.

MPMG - Transparência

Contracheque - Remuneração de todos os servidores ativos - Pós Resolução CNMP 200/2019

Período: 2022 - Novembro

Ordem Matrícula Nome Cargo Efetivo Lotação Rendimentos Descontos Rendimento Líquido Total *14 Data de Referência
Remuneração básica Remuneração eventual ou Temporária Outras Remunerações Temporárias *7 Verbas Indenizatórias *8 Total de Rendimentos Brutos *9 Obrigatórios Legais Outros Descontos Eventuais Total de descontos *13
Remuneração do Cargo Efetivo *1 Outras Verbas Remuneratórias *2 Função de Confiança ou Cargo em Comissão *3 Gratificação Natalina *4 Férias 1/3 Constitucional *5 Abono de Permanência *6 Contribuição Previdenciária *10 Imposto de Renda *11 Retenção por Teto Constitucional *12
1 498900 ABDON MARCIO BARBOSA DA SILVA OFICIAL DO MP ABRE CAMPO - COMARCA; ABRE CAMPO-PJ-01PJ 6.694,66 1.338,93 0,00 0,00 0,00 0,00 0,00 1.911,00 9.944,59 1.078,59 938,99 0,00 0,00 2.017,58 7.927,01 30/11/2022
2 177800 ADALBERTO MENEZES FARIA SAMORA OFICIAL DO MP BELO HORIZONTE - COMARCA; DIRET DE PLANOS PROJETOS E PROGRAMAS INST 19.037,29 7.614,92 0,00 0,00 0,00 0,00 0,00 1.911,00 28.563,21 4.057,57 5.239,89 0,00 0,00 9.297,46 19.265,75 30/11/2022
3 306400 ADALBERTO MOREIRA GONCALVES ANALISTA DO MP BELO HORIZONTE - COMARCA; BH-24PJ JUIZO REG BARREIRO-SECRETARIA 19.791,01 5.937,30 0,00 0,00 0,00 0,00 0,00 1.911,00 27.639,31 3.909,74 5.130,75 0,00 0,00 9.040,49 18.598,82 30/11/2022
4 179300 ADENISE AUXILIADORA SOUZA SAD OFICIAL DO MP BARBACENA - COMARCA; BARBACENA-PJ-06PJ 18.312,36 7.324,94 0,00 0,00 0,00 0,00 0,00 1.911,00 27.548,30 3.895,18 5.005,45 0,00 0,00 8.900,63 18.647,67 30/11/2022
5 272200 ADILSON BATISTA ORNELAS OFICIAL DO MP LAVRAS - COMARCA; LAVRAS-PJ-SECRETARIA 6.694,66 2.008,40 0,00 0,00 0,00 0,00 0,00 1.911,00 10.614,06 1.185,70 1.145,78 0,00 0,00 2.331,48 8.282,58 30/11/2022
6 380100 ADILSON GONCALVES DE MELO JUNIOR ANALISTA DO MP ARAXÁ - COMARCA; ARAXA-PJ-05PJ 14.687,60 2.937,52 0,00 0,00 0,00 0,00 0,00 1.911,00 19.536,12 2.613,23 3.154,63 0,00 0,00 5.767,86 13.768,26 30/11/2022
7 148800 ADILSON JANUARIO OFICIAL DO MP BELO HORIZONTE - COMARCA; BH-22PJ PES COM DEF E IDOSOS-SECRETARIA 20.574,59 16.459,68 0,00 0,00 0,00 5.467,17 0,00 1.911,00 44.412,44 5.467,17 8.830,61 1.572,05 0,00 15.869,83 28.542,61 30/11/2022
8 322601 ADMILSON SILVEIRA ANALISTA DO MP SAO JOAO DO PARAISO COMARCA; SAO JOAO DO PARAISO-PJ-UNPJ 11.008,33 1.100,83 0,00 0,00 0,00 0,00 0,00 2.796,30 14.905,46 1.730,68 1.984,72 0,00 0,00 3.715,40 11.190,06 30/11/2022
9 333700 ADRIANA ABRITTA TEIXEIRA OFICIAL DO MP BELO HORIZONTE - COMARCA; DIRET DE PESSOAL DO MINISTERIO PUBLICO - DPMP 11.008,33 3.302,50 0,00 0,00 0,00 0,00 0,00 1.911,00 16.221,83 2.082,95 2.493,31 0,00 0,00 4.576,26 11.645,57 30/11/2022
10 468500 ADRIANA APARECIDA FIRMINO ANALISTA DO MP CARATINGA - COMARCA; CARATINGA-PJ-04PJ 11.008,33 2.201,67 0,00 0,00 0,00 0,00 0,00 1.911,00 15.121,00 1.906,81 2.186,88 0,00 0,00 4.093,69 11.027,31 30/11/2022
11 326100 ADRIANA AUGUSTA AMARAL BELO OFICIAL DO MP BARBACENA - COMARCA; BARBACENA-PJ-08PJ 11.008,33 3.302,50 0,00 0,00 0,00 0,00 0,00 1.911,00 16.221,83 2.082,95 2.389,03 0,00 0,00 4.471,98 11.749,85 30/11/2022
12 605700 ADRIANA COSTA LIRA OFICIAL DO MP BELO HORIZONTE - COMARCA; CAO-EDUCACAO 6.694,66 669,47 3.585,64 0,00 0,00 0,00 0,00 1.911,00 12.860,77 971,47 1.874,67 0,00 0,00 2.846,14 10.014,63 30/11/2022
13 541100 ADRIANA CRISTINA DE OLIVEIRA OFICIAL DO MP GUAPÉ - COMARCA; GUAPE-PJ-UNPJ 6.694,66 669,47 0,00 0,00 0,00 0,00 0,00 1.911,00 9.275,13 971,47 836,48 0,00 0,00 1.807,95 7.467,18 30/11/2022
14 254800 ADRIANA DAS GRACAS FERNANDES ANALISTA DO MP UBERABA - COMARCA; UBERABA-PJ-07PJ 20.574,59 14.402,22 0,00 0,00 0,00 0,00 0,00 1.911,00 36.887,81 5.389,50 7.215,01 0,00 0,00 12.604,51 24.283,30 30/11/2022
15 217400 ADRIANA DE CARVALHO CATAO BRAGA ASSESSOR ADMINISTRATIVO III BELO HORIZONTE - COMARCA; DIV FISCAL ADM CONT TERCEIRIZACAO 0,00 3.873,69 9.684,23 0,00 0,00 0,00 0,00 1.911,00 15.468,92 828,38 2.997,84 0,00 0,00 3.826,22 11.642,70 30/11/2022
16 434600 ADRIANA FERREIRA DA SILVA ANALISTA DO MP BELO HORIZONTE - COMARCA; BH-14PJ DEFESA CONSUMIDOR-GAB 112PJ 15.659,55 3.131,91 0,00 0,00 0,00 0,00 0,00 1.911,00 20.702,46 2.799,85 3.528,33 0,00 0,00 6.328,18 14.374,28 30/11/2022
17 499800 ADRIANA FERREIRA TIAGO OFICIAL DO MP SALINAS - COMARCA; SALINAS-PJ-02PJ 8.377,76 1.675,55 0,00 0,00 0,00 0,00 0,00 1.911,00 11.964,31 1.401,74 1.405,55 0,00 0,00 2.807,29 9.157,02 30/11/2022
18 543400 ADRIANA GUIMARAES NUNES DE PAULA ANALISTA DO MP PATROCÍNIO - COMARCA; PATROCINIO-PJ-01PJ 11.008,33 1.100,83 0,00 0,00 0,00 0,00 44,40 2.395,37 14.548,93 927,17 2.102,11 0,00 0,00 3.029,28 11.519,65 30/11/2022
19 471500 ADRIANA HORTA DE CARVALHO RODRIGUES DE SOUSA ANALISTA DO MP BELO HORIZONTE - COMARCA; GRUPO ESP PROM JUST DEF PROB ADM PAT PUB 11.008,33 2.201,67 0,00 0,00 0,00 0,00 0,00 1.911,00 15.121,00 1.906,81 2.186,88 0,00 0,00 4.093,69 11.027,31 30/11/2022
20 86400 ADRIANA MOREIRA CALDEIRA BRANT OFICIAL DO MP BELO HORIZONTE - COMARCA; BH-21PJ TUTELA FUNDACOES-SECRETARIA 18.312,36 12.818,66 0,00 0,00 0,00 4.774,18 0,00 1.911,00 37.816,20 4.774,18 7.691,67 0,00 0,00 12.465,85 25.350,35 30/11/2022
21 480700 ADRIANA MOREIRA DE AVELLAR CEZILIO OFICIAL DO MP BELO HORIZONTE - COMARCA; BH-12PJ JUIZO CRIMINAL-SECRETARIA 6.694,66 1.338,93 0,00 0,00 0,00 0,00 670,00 1.911,00 10.614,59 1.078,59 938,99 0,00 0,00 2.017,58 8.597,01 30/11/2022
22 326000 ADRIANA PEREIRA CARNEIRO RESENDE OFICIAL DO MP BELO HORIZONTE - COMARCA; BH-25PJ DEFESA DA EDUCACAO-SECRETARIA 11.008,33 3.302,50 0,00 0,00 0,00 0,00 0,00 1.911,00 16.221,83 2.082,95 2.493,31 0,00 0,00 4.576,26 11.645,57 30/11/2022
23 502200 ADRIANA PETRUCCI DAVINA OFICIAL DO MP PATROCÍNIO - COMARCA; PATROCINIO-PJ-01PJ 8.650,50 1.730,10 0,00 0,00 0,00 0,00 0,00 2.796,30 13.176,90 1.454,11 1.585,42 0,00 0,00 3.039,53 10.137,37 30/11/2022
24 201900 ADRIANA REIS PIMENTA OFICIAL DO MP TEÓFILO OTONI - COMARCA; TEOFILO OTONI-PJ-03PJ 18.312,36 7.324,94 0,00 0,00 0,00 0,00 0,00 1.911,00 27.548,30 3.895,18 5.109,72 0,00 0,00 9.004,90 18.543,40 30/11/2022
25 278700 ADRIANA RODRIGUES PINTO COELHO AMARAL ANALISTA DO MP BELO HORIZONTE - COMARCA; CGMP-ASSESSORIA JURIDICA 20.574,59 6.172,38 0,00 0,00 0,00 0,00 0,00 1.911,00 28.657,97 4.072,73 5.366,06 0,00 0,00 9.438,79 19.219,18 30/11/2022
26 468000 ADRIANA SANTOS DE SANTANA MOREIRA ANALISTA DO MP GOVERNADOR VALADARES - COMARCA; GAECO REGIONAL DE GOVERNADOR VALADARES 11.008,33 4.403,33 0,00 0,00 0,00 0,00 0,00 1.911,00 17.322,66 2.259,08 2.643,33 0,00 0,00 4.902,41 12.420,25 30/11/2022
27 194700 ADRIANA TSUKIDE OFICIAL DO MP UBERABA - COMARCA; COORD REG BACIAS PARANAIBA BAIXO RIO GRANDE 18.312,36 7.324,94 0,00 0,00 0,00 0,00 94,00 2.936,49 28.667,79 3.895,18 5.057,59 0,00 0,00 8.952,77 19.715,02 30/11/2022
28 465500 ADRIANO CASSIANO MATOS ANALISTA DO MP ARAXÁ - COMARCA; ARAXA-PJ-02PJ 11.008,33 2.201,67 0,00 0,00 0,00 0,00 0,00 1.911,00 15.121,00 1.906,81 2.239,02 0,00 0,00 4.145,83 10.975,17 30/11/2022
29 500500 ADRIANO DE ALMEIDA SILVA OFICIAL DO MP UBERABA - COMARCA; UBERABA-PJ-12PJ 8.650,50 1.730,10 0,00 0,00 0,00 0,00 0,00 2.796,30 13.176,90 1.454,11 1.085,47 0,00 0,00 2.539,58 10.637,32 30/11/2022
30 187200 ADRIANO DE FREITAS MARON OFICIAL DO MP PONTE NOVA - COMARCA; PONTE NOVA-PJ-03PJ 14.224,47 12.802,03 0,00 0,00 0,00 4.117,45 0,00 1.911,00 33.054,95 4.117,45 6.562,93 0,00 0,00 10.680,38 22.374,57 30/11/2022
31 477900 ADRIANO FERREIRA DE ALMEIDA OFICIAL DO MP TAIOBEIRAS - COMARCA; TAIOBEIRAS-PJ-UNPJ 9.378,86 1.875,77 0,00 0,00 0,00 0,00 0,00 2.215,59 13.470,22 1.593,95 1.683,05 0,00 0,00 3.277,00 10.193,22 30/11/2022
32 269101 ADRIANO PEREIRA SILVA ANALISTA DO MP UBERABA - COMARCA; UBERABA-PJ-02PJ 11.008,33 2.201,67 0,00 0,00 0,00 0,00 0,00 1.911,00 15.121,00 1.906,81 2.082,60 0,00 0,00 3.989,41 11.131,59 30/11/2022
33 414200 ADRIANO RODRIGUES FERNANDES ANALISTA DO MP CARANDAÍ - COMARCA; CARANDAI-PJ-UNPJ 11.008,33 2.201,67 0,00 0,00 0,00 0,00 0,00 1.911,00 15.121,00 1.906,81 2.082,60 0,00 0,00 3.989,41 11.131,59 30/11/2022
34 536700 ADRIELLE COSTA MARIA MOURAO FIGUEIREDO OFICIAL DO MP SERRO - COMARCA; SERRO-PJ-SECRETARIA 6.694,66 669,47 0,00 0,00 0,00 0,00 0,00 2.796,30 10.160,43 971,47 888,62 0,00 0,00 1.860,09 8.300,34 30/11/2022
35 514300 ADRIENE DAMASCENO BRAGA ANALISTA DO MP ALFENAS - COMARCA; ALFENAS-PJ-03PJ 11.008,33 2.201,67 0,00 0,00 0,00 0,00 0,00 1.911,00 15.121,00 1.906,81 2.239,02 0,00 0,00 4.145,83 10.975,17 30/11/2022
36 254600 ADRIENE DOMINGUES COSTA ANALISTA DO MP BELO HORIZONTE - COMARCA; SUPER DE GESTAO DE PESSOAS-LOTACAO TEMPORARIA 20.574,59 6.172,38 0,00 0,00 0,00 0,00 0,00 0,00 26.746,97 4.072,73 5.366,06 0,00 0,00 9.438,79 17.308,18 30/11/2022
37 252001 ADRIENE GOMES BARRETO ANALISTA DO MP BELO HORIZONTE - COMARCA; BH-19PJ SAUDE-SECRETARIA 047PJ 16.169,47 8.084,74 0,00 0,00 0,00 0,00 1.616,95 1.911,00 27.782,16 3.932,60 5.163,74 0,00 0,00 9.096,34 18.685,82 30/11/2022
38 714800 ADSON GUSTAVO DE OLIVEIRA ASSESSOR PROCURADOR JUSTICA BELO HORIZONTE - COMARCA; GABINETE DE PROCURADOR DE JUSTIÇA - SALA 803 0,00 0,00 7.857,77 0,00 0,00 0,00 0,00 1.911,00 9.768,77 828,38 1.430,30 0,00 0,00 2.258,68 7.510,09 30/11/2022
39 724600 AECIO BRAS SILVA JUNIOR ASSESSOR PROMOTOR JUSTICA BAMBUÍ - COMARCA; BAMBUI-PJ-UNPJ 0,00 0,00 7.857,77 0,00 0,00 0,00 0,00 1.911,00 9.768,77 828,38 1.430,30 0,00 0,00 2.258,68 7.510,09 30/11/2022
40 302500 AGENOR JOSE DA SILVA JUNIOR ANALISTA DO MP JUIZ DE FORA - COMARCA; JUIZ DE FORA-PJ-07PJ 19.791,01 5.937,30 0,00 0,00 0,00 0,00 0,00 1.911,00 27.639,31 3.909,74 4.974,33 0,00 0,00 8.884,07 18.755,24 30/11/2022
41 357500 AILSON WAGNER DE ALENCAR SILVA OFICIAL DO MP BELO HORIZONTE - COMARCA; BH-12PJ JUIZO CRIMINAL-SECRETARIA 12.118,97 4.847,59 0,00 0,00 0,00 0,00 0,00 1.911,00 18.877,56 2.507,86 2.950,37 0,00 0,00 5.458,23 13.419,33 30/11/2022
42 366400 AILTON ALEXSSANDRO ALVES OFICIAL DO MP PARÁ DE MINAS - COMARCA; PARA DE MINAS-PJ-05PJ 10.661,25 4.264,50 0,00 0,00 0,00 0,00 0,00 1.911,00 16.836,75 2.181,33 2.635,35 0,00 0,00 4.816,68 12.020,07 30/11/2022
43 318900 AILTON DE CASTRO RIBEIRO JUNIOR OFICIAL DO MP ITAJUBA - COMARCA; ITAJUBA-PJ-01PJ 11.008,33 3.302,50 0,00 0,00 0,00 0,00 0,00 1.911,00 16.221,83 2.082,95 2.284,76 0,00 0,00 4.367,71 11.854,12 30/11/2022
44 464400 ALAN MONTEIRO GASPAR ANALISTA DO MP SETE LAGOAS - COMARCA; SETE LAGOAS-PJ-08PJ 11.008,33 2.201,67 0,00 0,00 0,00 0,00 0,00 1.911,00 15.121,00 1.906,81 2.239,02 0,00 0,00 4.145,83 10.975,17 30/11/2022
45 492000 ALANA DE CASTRO FREITAS OFICIAL DO MP LAVRAS - COMARCA; LAVRAS-PJ-03PJ 6.912,65 1.382,53 0,00 0,00 0,00 0,00 0,00 1.911,00 10.206,18 1.120,44 1.103,69 0,00 0,00 2.224,13 7.982,05 30/11/2022
46 306700 ALANA MARCIA DE OLIVEIRA OFICIAL DO MP BELO HORIZONTE - COMARCA; DIRETORIA DE ADMINISTRACAO FINANCEIRA 11.008,33 3.302,50 0,00 0,00 0,00 0,00 0,00 1.911,00 16.221,83 2.082,95 2.493,31 0,00 0,00 4.576,26 11.645,57 30/11/2022
47 324500 ALANMAR COUTINHO COSTA OFICIAL DO MP LEOPOLDINA - COMARCA; LEOPOLDINA-PJ-02PJ 11.008,33 3.302,50 0,00 0,00 0,00 0,00 0,00 1.911,00 16.221,83 2.082,95 2.389,03 0,00 0,00 4.471,98 11.749,85 30/11/2022
48 407300 ALBERTO LUIZ SOARES DE OLIVEIRA ANALISTA DO MP BELO HORIZONTE - COMARCA; DIRETORIA DE PROJETOS DE EDIFICACOES 15.659,55 3.131,91 0,00 0,00 0,00 0,00 0,00 1.911,00 20.702,46 2.799,85 3.528,33 0,00 0,00 6.328,18 14.374,28 30/11/2022
49 118200 ALBERTO PEREIRA DA COSTA OFICIAL DO MP DORES DO INDAIÁ - COMARCA; DORES DO INDAIA-PJ-UNPJ 19.791,01 17.811,91 0,00 0,00 0,00 5.467,17 0,00 1.911,00 44.981,09 5.467,17 8.830,61 2.140,70 0,00 16.438,48 28.542,61 30/11/2022
50 282400 ALCILENE MARISE DE ARAUJO ANALISTA DO MP BELO HORIZONTE - COMARCA; BH-23PJ INF-FISC MED SOC FEC 20.574,59 6.172,38 0,00 0,00 0,00 0,00 0,00 1.911,00 28.657,97 4.072,73 5.313,92 0,00 0,00 9.386,65 19.271,32 30/11/2022
51 112600 ALCIONE DA MOTA JARDIM OFICIAL DO MP BELO HORIZONTE - COMARCA; CAO-CRIANCAS E ADOLESCENTES-SECRETARIA 19.037,29 13.326,11 0,00 0,00 0,00 0,00 0,00 1.911,00 34.274,40 4.971,36 6.611,31 0,00 0,00 11.582,67 22.691,73 30/11/2022
52 396400 ALCIONE DE FREITAS E SILVA ANALISTA DO MP BELO HORIZONTE - COMARCA; ASSESS JUR DO CONS SUPERIOR DO MINISTERIO PUB 16.169,47 6.467,79 0,00 0,00 0,00 0,00 0,00 1.911,00 24.548,26 3.415,18 4.416,71 0,00 0,00 7.831,89 16.716,37 30/11/2022
53 657400 ALCIONE MARIA FERREIRA ASSESSOR PROCURADOR JUSTICA BELO HORIZONTE - COMARCA; GABINETE DE PROCURADOR DE JUSTIÇA - SALA 610 0,00 0,00 7.857,77 0,00 0,00 0,00 0,00 2.796,30 10.654,07 828,38 1.430,30 0,00 0,00 2.258,68 8.395,39 30/11/2022
54 161600 ALCIONE NERY SOUZA ASSESSOR ADMINISTRATIVO III BELO HORIZONTE - COMARCA; BH-18PJ DIREITOS HUMANOS-SECRETARIA 0,00 4.842,12 9.684,23 0,00 0,00 0,00 0,00 1.911,00 16.437,35 828,38 3.264,16 0,00 0,00 4.092,54 12.344,81 30/11/2022
55 376000 ALDA GOMES LANA OFICIAL DO MP BELO HORIZONTE - COMARCA; BH-18PJ VIOLENCIA DOMESTICA-SECRETARIA 11.008,33 2.201,67 0,00 0,00 0,00 0,00 0,00 1.911,00 15.121,00 1.906,81 2.186,88 0,00 0,00 4.093,69 11.027,31 30/11/2022
56 148000 ALDA MARTINS SIMOES OFICIAL DO MP BELO HORIZONTE - COMARCA; BH-23PJ CIVEL- FISC ENT AB POL 20.574,59 10.287,30 0,00 0,00 0,00 0,00 0,00 1.911,00 32.772,89 4.731,12 6.316,60 0,00 0,00 11.047,72 21.725,17 30/11/2022
57 318400 ALDO CREPALDI JUNIOR OFICIAL DO MP BELO HORIZONTE - COMARCA; DIVISAO DE MATERIAIS 11.008,33 3.302,50 0,00 0,00 0,00 0,00 0,00 1.911,00 16.221,83 2.082,95 2.441,17 0,00 0,00 4.524,12 11.697,71 30/11/2022
58 604500 ALENIZE APARECIDA RODRIGUES HENRIQUE OFICIAL DO MP RIO NOVO - COMARCA; RIO NOVO-PJ-UNPJ 6.081,20 608,12 0,00 0,00 0,00 0,00 0,00 1.911,00 8.600,32 865,50 732,19 0,00 0,00 1.597,69 7.002,63 30/11/2022
59 197900 ALESSA DE SOUSA E SILVA OFICIAL DO MP OLIVEIRA - COMARCA; OLIVEIRA-PJ-02PJ 19.037,29 7.614,92 0,00 0,00 0,00 0,00 0,00 2.054,13 28.706,34 4.057,57 5.239,89 0,00 0,00 9.297,46 19.408,88 30/11/2022
60 428500 ALESSANDRA ALVES DINIZ OFICIAL DO MP BELO HORIZONTE - COMARCA; CENTRAL DE APOIO TECNICO-SECRETARIA 8.932,15 4.466,08 0,00 0,00 0,00 0,00 0,00 1.911,00 15.309,23 1.936,93 2.282,50 0,00 0,00 4.219,43 11.089,80 30/11/2022
61 286801 ALESSANDRA BOTELHO JUNQUEIRA DE MENEZES ANALISTA DO MP PASSOS - COMARCA; PASSOS-PJ-05PJ 16.169,47 6.467,79 0,00 0,00 0,00 0,00 0,00 2.796,30 25.433,56 3.415,18 4.208,16 0,00 0,00 7.623,34 17.810,22 30/11/2022
62 307000 ALESSANDRA CRISTINA SANTOS MENDES ANALISTA DO MP BELO HORIZONTE - COMARCA; BH-18PJ VIOLENCIA DOMESTICA-SECRETARIA 18.312,36 5.493,71 0,00 0,00 0,00 0,00 0,00 1.911,00 25.717,07 3.602,18 4.634,57 0,00 0,00 8.236,75 17.480,32 30/11/2022
63 264400 ALESSANDRA DE SOUZA SANTOS ANALISTA DO MP BELO HORIZONTE - COMARCA; SUPERINTENDENCIA DOS ORGAOS COLEGIADOS 20.574,59 8.229,84 0,00 0,00 0,00 0,00 0,00 1.911,00 30.715,43 4.401,92 5.841,33 0,00 0,00 10.243,25 20.472,18 30/11/2022
64 441500 ALESSANDRA DRUMMOND DE FIGUEIREDO ROSSI ANALISTA DO MP BELO HORIZONTE - COMARCA; DIRETORIA DE PROJETOS DE EDIFICACOES 11.008,33 2.201,67 0,00 0,00 0,00 0,00 0,00 1.911,00 15.121,00 1.906,81 2.239,02 0,00 0,00 4.145,83 10.975,17 30/11/2022
65 524000 ALESSANDRA LUCIOLI DE BARROS GUERRA ANALISTA DO MP BELO HORIZONTE - COMARCA; BH-19PJ SAUDE--SECRETARIA 11.008,33 2.201,67 0,00 0,00 0,00 0,00 0,00 1.911,00 15.121,00 1.906,81 2.134,74 0,00 0,00 4.041,55 11.079,45 30/11/2022
66 479900 ALESSANDRA MARA ANDRADE DE FARIA OFICIAL DO MP UBERABA - COMARCA; UBERABA-PJ-09PJ 9.378,86 1.875,77 0,00 0,00 0,00 0,00 0,00 1.911,00 13.165,63 1.593,95 1.787,33 0,00 0,00 3.381,28 9.784,35 30/11/2022
67 226700 ALESSANDRA MARA VASCONCELOS REZENDE OFICIAL DO MP CONSELHEIRO LAFAIETE - COMARCA; CONSELHEIRO LAFAIETE-PJ-07PJ 15.659,55 6.263,82 0,00 0,00 0,00 0,00 0,00 1.911,00 23.834,37 3.300,95 4.251,80 0,00 0,00 7.552,75 16.281,62 30/11/2022
68 112100 ALESSANDRA MARCIA FERREIRA OFICIAL DO MP BELO HORIZONTE - COMARCA; BELO HORIZONTE- SECRETARIA DAS PROMOTORIAS 11.008,33 7.705,83 0,00 0,00 0,00 0,00 0,00 1.911,00 20.625,16 2.787,48 3.510,48 0,00 0,00 6.297,96 14.327,20 30/11/2022
69 196500 ALESSANDRA MARIA RIBEIRO LUCIANO OFICIAL DO MP RIO PARANAÍBA - COMARCA; RIO PARANAIBA-PJ-UNPJ 18.312,36 9.156,18 0,00 0,00 0,00 0,00 1.831,24 1.911,00 31.210,78 4.481,18 5.851,48 0,00 0,00 10.332,66 20.878,12 30/11/2022
70 651700 ALESSANDRA PROFIRIO SOUZA OFICIAL DO MP NOVA ERA - COMARCA; NOVA ERA-PJ-UNPJ 5.266,66 526,67 0,00 0,00 0,00 0,00 0,00 1.911,00 7.704,33 729,60 471,03 0,00 0,00 1.200,63 6.503,70 30/11/2022
71 384900 ALESSANDRA RODRIGUES ANALISTA DO MP VISCONDE DO RIO BRANCO - COMARCA; VISCONDE DO RIO BRANCO-PJ-03PJ 16.169,47 3.233,89 0,00 0,00 0,00 0,00 0,00 2.796,30 22.199,66 2.897,75 3.565,41 0,00 0,00 6.463,16 15.736,50 30/11/2022
72 390000 ALESSANDRA SPADANO MASSARA VASCONCELOS OFICIAL DO MP BETIM - COMARCA; BETIM-PJ-10PJ 9.999,62 1.999,92 0,00 0,00 0,00 0,00 0,00 1.911,00 13.910,54 1.713,14 1.959,40 0,00 0,00 3.672,54 10.238,00 30/11/2022
73 426500 ALESSANDRO CAMPOS DE PAIVA ANALISTA DO MP BELO HORIZONTE - COMARCA; DIR CRIACAO E MIDIAS 15.659,55 3.131,91 0,00 0,00 0,00 0,00 0,00 1.911,00 20.702,46 2.799,85 3.528,33 0,00 0,00 6.328,18 14.374,28 30/11/2022
74 623400 ALESSANDRO DE OLIVEIRA REZENDE ANALISTA DO MP BELO HORIZONTE - COMARCA; DIRET DE INFORMACAO E CONHECIMENTO-DINC/CEAF 10.325,15 1.032,52 0,00 0,00 0,00 0,00 0,00 1.911,00 13.268,67 1.610,44 1.811,13 0,00 0,00 3.421,57 9.847,10 30/11/2022
75 420600 ALESSANDRO SILVA OFICIAL DO MP VISCONDE DO RIO BRANCO - COMARCA; VISCONDE DO RIO BRANCO-PJ-02PJ 10.325,15 4.130,06 0,00 0,00 0,00 0,00 0,00 1.911,00 16.366,21 2.106,05 1.851,36 0,00 0,00 3.957,41 12.408,80 30/11/2022
76 375301 ALETHEIA PATRICIA ASSIS MORAIS MOREIRA ANALISTA DO MP ITABIRA - COMARCA; ITABIRA-PJ-02PJ 11.008,33 1.100,83 0,00 0,00 0,00 0,00 0,00 2.796,30 14.905,46 1.730,68 1.932,58 0,00 0,00 3.663,26 11.242,20 30/11/2022
77 382300 ALEX CARVALHO LIMA ANALISTA DO MP UBERLÂNDIA - COMARCA; UBERLANDIA-PJ-14PJ 16.169,47 3.233,89 0,00 0,00 0,00 0,00 0,00 2.796,30 22.199,66 2.897,75 3.669,68 0,00 0,00 6.567,43 15.632,23 30/11/2022
78 195201 ALEX DE CASTRO PEREIRA ANALISTA DO MP UBERABA - COMARCA; UBERABA-PJ-09PJ 20.574,59 8.229,84 0,00 0,00 0,00 0,00 0,00 1.911,00 30.715,43 4.401,92 5.841,33 0,00 0,00 10.243,25 20.472,18 30/11/2022
79 358900 ALEX DE PAULA LANZA ASSESSOR ADMINISTRATIVO IV BELO HORIZONTE - COMARCA; DIR CONTEUDO JORNALISTICO 0,00 0,00 12.920,95 0,00 0,00 0,00 0,00 2.796,30 15.717,25 828,38 2.822,67 0,00 0,00 3.651,05 12.066,20 30/11/2022
80 178400 ALEX RODRIGO SALDANHA GUIMARAES OFICIAL DO MP BELO HORIZONTE - COMARCA; DIRETORIA DE SISTEMAS DE INFORMACAO 6.694,66 2.677,86 0,00 0,00 0,00 0,00 0,00 1.911,00 11.283,52 1.292,82 1.352,56 0,00 0,00 2.645,38 8.638,14 30/11/2022
81 413500 ALEX VILELA OLIVEIRA ANALISTA DO MP GOVERNADOR VALADARES - COMARCA; COORD REG PJ DEF EDU DIR CRIANCA ADOL RIODOCE 16.169,47 3.233,89 0,00 0,00 0,00 0,00 0,00 1.911,00 21.314,36 2.897,75 3.669,68 0,00 0,00 6.567,43 14.746,93 30/11/2022
82 264300 ALEXANDRA FATIMA SARAIVA SOARES ANALISTA DO MP BELO HORIZONTE - COMARCA; CENTRAL DE APOIO TECN-SETOR DE MEIO AMBIENTE 20.574,59 6.172,38 0,00 0,00 0,00 0,00 4.006,10 1.911,00 32.664,07 4.072,73 6.467,73 0,00 0,00 10.540,46 22.123,61 30/11/2022
83 488000 ALEXANDRA LARA PAIS DE CARVALHO ANALISTA DO MP SABARÁ - COMARCA; SABARA-PJ-04PJ 11.008,33 2.201,67 0,00 0,00 0,00 0,00 0,00 1.911,00 15.121,00 1.906,81 2.082,60 0,00 0,00 3.989,41 11.131,59 30/11/2022
84 256300 ALEXANDRA SANTOS GOMES OFICIAL DO MP BELO HORIZONTE - COMARCA; DIRETORIA GESTAO COMPRAS LICITACOES 11.008,33 3.302,50 0,00 0,00 0,00 0,00 0,00 1.911,00 16.221,83 2.082,95 2.493,31 0,00 0,00 4.576,26 11.645,57 30/11/2022
85 403300 ALEXANDRE AUGUSTO RODRIGUES ANALISTA DO MP ÁGUAS FORMOSAS - COMARCA; AGUAS FORMOSAS-PJ-UNPJ 11.008,33 2.201,67 0,00 0,00 0,00 0,00 0,00 3.681,60 16.891,60 1.906,81 2.239,02 0,00 0,00 4.145,83 12.745,77 30/11/2022
86 640900 ALEXANDRE BARBOSA MASCARENHAS ANALISTA DO MP BETIM - COMARCA; BETIM-PJ-02PJ 8.377,76 837,78 0,00 0,00 0,00 0,00 0,00 1.911,00 11.126,54 927,17 1.071,92 0,00 0,00 1.999,09 9.127,45 30/11/2022
87 311700 ALEXANDRE BARCELOS RESENDE OFICIAL DO MP BELO HORIZONTE - COMARCA; BH-13ª PJ JUÍZO DE TÓXICOS-SECRETARIA 9.378,86 2.813,66 0,00 0,00 0,00 0,00 0,00 2.796,30 14.988,82 1.744,02 2.003,98 0,00 0,00 3.748,00 11.240,82 30/11/2022
88 285600 ALEXANDRE CAMPOS DE OLIVEIRA OFICIAL DO MP UBERABA - COMARCA; COORD REG BACIAS PARANAIBA BAIXO RIO GRANDE 11.008,33 3.302,50 0,00 0,00 0,00 0,00 0,00 1.911,00 16.221,83 2.082,95 2.336,90 0,00 0,00 4.419,85 11.801,98 30/11/2022
89 509200 ALEXANDRE CAPUANO DE REZENDE ANALISTA DO MP BELO HORIZONTE - COMARCA; BH-07PJ 03 TRIBUNAL DO JURI-GAB 061PJ 11.008,33 2.201,67 0,00 0,00 0,00 0,00 0,00 1.911,00 15.121,00 1.906,81 2.186,88 0,00 0,00 4.093,69 11.027,31 30/11/2022
90 229400 ALEXANDRE CARLOS BOTREL SUPERINTENDENTE BELO HORIZONTE - COMARCA; SUPERINTENDENCIA DOS ORGAOS COLEGIADOS 24.982,93 7.494,88 0,00 0,00 0,00 0,00 0,00 1.911,00 34.388,81 3.156,46 7.194,01 0,00 0,00 10.350,47 24.038,34 30/11/2022
91 411900 ALEXANDRE CARVALHO SANTOS RIBEIRO ANALISTA DO MP OLIVEIRA - COMARCA; OLIVEIRA-PJ-02PJ 15.659,55 3.131,91 0,00 0,00 0,00 0,00 0,00 2.796,30 21.587,76 2.799,85 3.528,33 0,00 0,00 6.328,18 15.259,58 30/11/2022
92 641600 ALEXANDRE DA SILVA ASSUNCAO OFICIAL DO MP BELO HORIZONTE - COMARCA; SERVICO MEDICO-DEPTO PERIC MEDICA SAUDE OCUP 5.889,39 588,94 0,00 0,00 0,00 0,00 0,00 1.911,00 8.389,33 832,79 683,16 0,00 0,00 1.515,95 6.873,38 30/11/2022
93 201200 ALEXANDRE DE ALENCAR CORDEIRO OFICIAL DO MP ÁGUAS FORMOSAS - COMARCA; AGUAS FORMOSAS-PJ-UNPJ 6.694,66 3.347,33 0,00 0,00 0,00 0,00 0,00 1.911,00 11.952,99 1.399,93 1.507,21 0,00 0,00 2.907,14 9.045,85 30/11/2022
94 288200 ALEXANDRE DE VASCONCELOS COSTA KER ANALISTA DO MP BELO HORIZONTE - COMARCA; BH-03PJ EMPRESARIAL-SECRETARIA 19.791,01 5.937,30 0,00 0,00 0,00 0,00 0,00 1.911,00 27.639,31 3.909,74 5.078,61 0,00 0,00 8.988,35 18.650,96 30/11/2022
95 445000 ALEXANDRE DIOGENES OLIVEIRA ANALISTA DO MP SALINAS - COMARCA; SALINAS-PJ-02PJ 12.118,97 2.423,79 0,00 0,00 0,00 0,00 0,00 2.796,30 17.339,06 2.120,06 2.546,88 0,00 0,00 4.666,94 12.672,12 30/11/2022
96 463400 ALEXANDRE LEAL WINKELSTROTER ANALISTA DO MP TEÓFILO OTONI - COMARCA; TEOFILO OTONI-PJ-04PJ 11.008,33 2.201,67 0,00 0,00 0,00 0,00 0,00 1.911,00 15.121,00 1.906,81 2.239,02 0,00 0,00 4.145,83 10.975,17 30/11/2022
97 615700 ALEXANDRE LUIZ DE CASTRO MACIEL ANALISTA DO MP BELO HORIZONTE - COMARCA; BH-08PJ JUIZADO ESPECIAL-SECRETARIA 10.325,15 1.032,52 0,00 0,00 0,00 0,00 0,00 1.911,00 13.268,67 1.610,44 1.811,13 0,00 0,00 3.421,57 9.847,10 30/11/2022
98 356900 ALEXANDRE MOISES MENDONCA E ARAUJO OFICIAL DO MP UBERABA - COMARCA; UBERABA-PJ-13PJ 8.377,76 2.513,33 0,00 0,00 0,00 0,00 0,00 1.911,00 12.802,09 1.535,79 1.703,35 0,00 0,00 3.239,14 9.562,95 30/11/2022
99 633300 ALEXANDRE NONATO MARTINS OFICIAL DO MP IGARAPÉ - COMARCA; IGARAPE-PJ-02PJ 5.889,39 588,94 0,00 0,00 0,00 0,00 0,00 1.911,00 8.389,33 832,79 631,03 0,00 0,00 1.463,82 6.925,51 30/11/2022
100 469900 ALEXANDRE PEREIRA GUEDES ANALISTA DO MP CATAGUASES - COMARCA; CATAGUASES-PJ-03PJ 11.008,33 2.201,67 0,00 0,00 0,00 0,00 0,00 1.911,00 15.121,00 1.906,81 2.239,02 0,00 0,00 4.145,83 10.975,17 30/11/2022
101 208700 ALEXANDRE RESENDE FRAGA ANALISTA DO MP BELO HORIZONTE - COMARCA; BH-19PJ SAUDE-SECRETARIA 130PJ 20.574,59 8.229,84 0,00 0,00 0,00 0,00 0,00 1.911,00 30.715,43 4.401,92 5.684,92 0,00 0,00 10.086,84 20.628,59 30/11/2022
102 216401 ALEXANDRE RIBEIRO DE LIMA MAIORINO ANALISTA DO MP UBERABA - COMARCA; UBERABA-PJ-03PJ 19.791,01 7.916,40 0,00 0,00 0,00 0,00 0,00 1.911,00 29.618,41 4.226,40 5.535,78 0,00 0,00 9.762,18 19.856,23 30/11/2022
103 475100 ALEXANDRE TEOTONIO COSTA ANALISTA DO MP ARAGUARI - COMARCA; ARAGUARI-PJ-01PJ 11.008,33 2.201,67 0,00 0,00 0,00 0,00 0,00 1.911,00 15.121,00 1.906,81 2.134,74 0,00 0,00 4.041,55 11.079,45 30/11/2022
104 339000 ALEXANDRE VITOR CARDOSO OFICIAL DO MP BELO HORIZONTE - COMARCA; BH-23PJ INFRACIONAL-SEC EXP 6.694,66 2.008,40 0,00 0,00 0,00 0,00 0,00 1.911,00 10.614,06 1.185,70 1.041,50 0,00 0,00 2.227,20 8.386,86 30/11/2022
105 623100 ALEXSANDER BATISTA AGUIAR COORDENADOR II BELO HORIZONTE - COMARCA; DIRETORIA DE SUPORTE E MANUTENCAO 18.312,36 1.831,24 0,00 0,00 0,00 0,00 0,00 2.796,30 22.939,90 1.610,44 4.122,98 0,00 0,00 5.733,42 17.206,48 30/11/2022
106 513300 ALFSON MIRANDA BRAGA ANALISTA DO MP BELO HORIZONTE - COMARCA; BH-12PJ JUIZO CRIMINAL-GAB 087PJ 11.008,33 2.201,67 0,00 0,00 0,00 0,00 0,00 1.911,00 15.121,00 1.906,81 2.239,02 0,00 0,00 4.145,83 10.975,17 30/11/2022
107 618400 ALICE MAGALHAES MACEDO DE CARVALHO ANALISTA DO MP IPATINGA - COMARCA; IPATINGA-PJ-10PJ 10.325,15 1.032,52 0,00 0,00 0,00 0,00 0,00 2.796,30 14.153,97 1.610,44 1.811,13 0,00 0,00 3.421,57 10.732,40 30/11/2022
108 707000 ALICE MARIA RIBEIRO DINIZ ASSESSOR PROMOTOR JUSTICA BELO HORIZONTE - COMARCA; PROC JUST ATUACAO TRIBUNAIS SUPERIORES-GAB004 0,00 0,00 7.857,77 0,00 0,00 0,00 0,00 1.911,00 9.768,77 828,38 1.430,30 0,00 0,00 2.258,68 7.510,09 30/11/2022
109 471000 ALICE TITONELI MOREIRA ANALISTA DO MP MIRADOURO - COMARCA; MIRADOURO-PJ-UNPJ 11.008,33 2.201,67 0,00 0,00 0,00 0,00 0,00 2.796,30 16.006,30 1.906,81 2.134,74 0,00 0,00 4.041,55 11.964,75 30/11/2022
110 725800 ALINE ALBIERI FRANCISCO ASSESSOR PROMOTOR JUSTICA BELO HORIZONTE - COMARCA; CAO-ORDEM ECONOMICA E TRIBUTARIA-ASSESS TECN 0,00 0,00 7.857,77 0,00 0,00 0,00 0,00 1.911,00 9.768,77 828,38 1.430,30 0,00 0,00 2.258,68 7.510,09 30/11/2022
111 622400 ALINE BALBINO PORTUGAL LOPES ANALISTA DO MP TRÊS PONTAS - COMARCA; TRES PONTAS-PJ-03PJ 10.325,15 1.032,52 0,00 0,00 0,00 0,00 0,00 2.796,30 14.153,97 1.610,44 1.811,13 0,00 0,00 3.421,57 10.732,40 30/11/2022
112 373000 ALINE BOTELHO RESENDE OFICIAL DO MP JUIZ DE FORA - COMARCA; JUIZ DE FORA-PJ-22PJ 10.661,25 2.132,25 0,00 0,00 0,00 0,00 0,00 1.911,00 14.704,50 1.840,17 2.142,80 0,00 0,00 3.982,97 10.721,53 30/11/2022
113 699800 ALINE CRISTINA DE OLIVEIRA AMARAL BARBOSA ASSESSOR PROCURADOR JUSTICA BELO HORIZONTE - COMARCA; GABINETE DE PROCURADOR DE JUSTIÇA - SALA 904 0,00 0,00 7.857,77 0,00 0,00 0,00 0,00 1.911,00 9.768,77 828,38 1.326,02 0,00 0,00 2.154,40 7.614,37 30/11/2022
114 407700 ALINE CRISTINA RODRIGUES PEREIRA COORDENADOR II BELO HORIZONTE - COMARCA; DIRETORIA DE PROJETOS DE EDIFICACOES 18.312,36 3.662,47 0,00 0,00 0,00 0,00 0,00 1.911,00 23.885,83 1.906,81 4.649,34 0,00 0,00 6.556,15 17.329,68 30/11/2022
115 193100 ALINE CRISTINA SENA OLIVEIRA OFICIAL DO MP UBERLÂNDIA - COMARCA; UBERLANDIA-PJ-03PJ 16.695,70 6.678,28 0,00 0,00 0,00 0,00 0,00 2.796,30 26.170,28 3.533,05 4.534,76 0,00 0,00 8.067,81 18.102,47 30/11/2022
116 554200 ALINE CRISTINA SILVA SOUZA OFICIAL DO MP TIROS - COMARCA; TIROS-PJ-UNPJ 6.694,66 669,47 0,00 0,00 0,00 0,00 0,00 1.911,00 9.275,13 971,47 888,62 0,00 0,00 1.860,09 7.415,04 30/11/2022
117 505500 ALINE DA CUNHA MARREIROS OLIVEIRA ANALISTA DO MP EUGENÓPOLIS - COMARCA; EUGENOPOLIS-PJ-UNPJ 11.008,33 2.201,67 0,00 0,00 0,00 0,00 0,00 3.681,60 16.891,60 1.906,81 2.186,88 0,00 0,00 4.093,69 12.797,91 30/11/2022
118 433500 ALINE DE MELO QUEIROZ OFICIAL DO MP BELO HORIZONTE - COMARCA; ASSESSORIA JURIDICA DO PROCON-MG 9.684,23 1.936,85 3.585,64 0,00 0,00 0,00 0,00 2.796,30 18.003,02 1.652,59 2.858,03 0,00 0,00 4.510,62 13.492,40 30/11/2022
119 691100 ALINE DE MELO SOUZA ASSESSOR PROCURADOR JUSTICA BELO HORIZONTE - COMARCA; GABINETE DE PROCURADOR DE JUSTIÇA - SALA 401 0,00 0,00 7.857,77 0,00 0,00 0,00 0,00 1.911,00 9.768,77 828,38 1.430,30 0,00 0,00 2.258,68 7.510,09 30/11/2022
120 542700 ALINE DE SOUSA ALBINO ANALISTA DO MP CONTAGEM - COMARCA; CONTAGEM-PJ-09PJ 11.008,33 1.100,83 0,00 0,00 0,00 0,00 0,00 1.911,00 14.020,16 1.730,68 1.984,72 0,00 0,00 3.715,40 10.304,76 30/11/2022
121 330000 ALINE DIORIO MAYRINK OFICIAL DO MP BELO HORIZONTE - COMARCA; NUCLEO DE ACORDOS DE NAO PERSECUCAO PENAL BH 8.650,50 1.730,10 0,00 0,00 0,00 0,00 0,00 1.911,00 12.291,60 1.454,11 1.585,42 0,00 0,00 3.039,53 9.252,07 30/11/2022
122 499000 ALINE FERREIRA LOPES ANALISTA DO MP TEÓFILO OTONI - COMARCA; TEOFILO OTONI-PJ-09PJ 11.008,33 2.201,67 0,00 0,00 0,00 0,00 0,00 1.911,00 15.121,00 1.906,81 2.186,88 0,00 0,00 4.093,69 11.027,31 30/11/2022
123 405300 ALINE LAIA CARDOZO SUPERINTENDENTE BELO HORIZONTE - COMARCA; SUPERINTENDENCIA LOGISTICA SERVICOS 24.982,93 4.996,59 0,00 0,00 0,00 0,00 0,00 1.911,00 31.890,52 2.897,75 6.578,13 0,00 0,00 9.475,88 22.414,64 30/11/2022
124 278200 ALINE MARCIA FARIA BARBOSA FERNANDES OFICIAL DO MP BARBACENA - COMARCA; BARBACENA-PJ-SECRETARIA 8.377,76 2.513,33 0,00 0,00 0,00 0,00 0,00 1.911,00 12.802,09 1.535,79 1.599,07 0,00 0,00 3.134,86 9.667,23 30/11/2022
125 389000 ALINE NERI NOBRE ANALISTA DO MP MONTES CLAROS - COMARCA; COORD REG PJ DEF EDUC DIR CRIANCA ADOL NORTE 16.695,70 5.008,71 0,00 0,00 0,00 0,00 0,00 1.911,00 23.615,41 3.265,92 4.201,22 0,00 0,00 7.467,14 16.148,27 30/11/2022
126 294600 ALINE PATRICIA SILVA VIEIRA OFICIAL DO MP UBERLÂNDIA - COMARCA; UBERLANDIA-PJ-03PJ 12.118,97 3.635,69 0,00 0,00 0,00 0,00 1.580,00 1.911,00 19.245,66 2.313,96 3.052,78 0,00 0,00 5.366,74 13.878,92 30/11/2022
127 420000 ALINE RODRIGUES CAMOROPIN ANALISTA DO MP SABARÁ - COMARCA; SABARA-PJ-02PJ 15.659,55 3.131,91 0,00 0,00 0,00 0,00 0,00 1.911,00 20.702,46 2.799,85 3.528,33 0,00 0,00 6.328,18 14.374,28 30/11/2022
128 715800 ALINE SANTOS PEDROSA MAIA BARBOSA ASSESSOR PROCURADOR JUSTICA BELO HORIZONTE - COMARCA; GABINETE DE PROCURADOR DE JUSTIÇA - SALA 1010 0,00 0,00 7.857,77 0,00 0,00 0,00 0,00 1.911,00 9.768,77 828,38 1.430,30 0,00 0,00 2.258,68 7.510,09 30/11/2022
129 699600 ALINE SEPULVEDA ROSA PIRES ASSESSOR PROCURADOR JUSTICA BELO HORIZONTE - COMARCA; GABINETE DE PROCURADOR DE JUSTIÇA - SALA 905 0,00 0,00 7.857,77 0,00 0,00 0,00 0,00 1.911,00 9.768,77 828,38 1.430,30 0,00 0,00 2.258,68 7.510,09 30/11/2022
130 408300 ALINE SILVA ARAUJO DE PAULA ANALISTA DO MP SÃO SEBASTIÃO DO PARAÍSO - COMARCA; SAO SEBASTIAO DO PARAISO-PJ-02PJ 16.169,47 3.233,89 0,00 0,00 0,00 0,00 0,00 1.911,00 21.314,36 927,17 4.093,05 0,00 0,00 5.020,22 16.294,14 30/11/2022
131 425400 ALINE TRINDADE DE FREITAS CAMPOS OFICIAL DO MP BELO HORIZONTE - COMARCA; BH-14PJ DEFESA CONSUMIDOR-SECRETARIA 9.999,62 1.999,92 0,00 0,00 0,00 0,00 0,00 1.911,00 13.910,54 1.713,14 1.959,40 0,00 0,00 3.672,54 10.238,00 30/11/2022
132 517200 ALISSOM PEREIRA DA SILVA ANALISTA DO MP BORDA DA MATA - COMARCA; BORDA DA MATA-PJ-UNPJ 11.008,33 2.201,67 0,00 0,00 0,00 0,00 0,00 2.796,30 16.006,30 1.906,81 2.239,02 0,00 0,00 4.145,83 11.860,47 30/11/2022
133 442400 ALISSON LABRE ANALISTA DO MP VARGINHA - COMARCA; VARGINHA-PJ-03PJ 11.736,91 2.347,38 0,00 0,00 0,00 0,00 0,00 1.911,00 15.995,29 927,17 2.748,85 0,00 0,00 3.676,02 12.319,27 30/11/2022
134 643800 ALLAN PAUL FONSECA DE CASTRO OFICIAL DO MP CONTAGEM - COMARCA; CONTAGEM-PJ-SECRETARIA 5.889,39 588,94 2.602,68 0,00 0,00 0,00 0,00 2.796,30 11.877,31 832,79 1.398,90 0,00 0,00 2.231,69 9.645,62 30/11/2022
135 612900 ALLAN VINICIUS VIEIRA ARAUJO COORDENADOR II BELO HORIZONTE - COMARCA; DIRETORIA DE GESTAO DOCUMENTAL 18.312,36 1.831,24 0,00 0,00 0,00 0,00 0,00 1.911,00 22.054,60 971,47 4.402,97 0,00 0,00 5.374,44 16.680,16 30/11/2022
136 349000 ALLEC RODRIGUES VIEIRA OFICIAL DO MP CAPINÓPOLIS - COMARCA; CAO-CIVEL 11.008,33 3.302,50 0,00 0,00 0,00 0,00 0,00 1.911,00 16.221,83 2.082,95 2.493,31 0,00 0,00 4.576,26 11.645,57 30/11/2022
137 297300 ALLYSON SALIBA MONTEIRO LAIZO ANALISTA DO MP CONSELHEIRO LAFAIETE - COMARCA; CONSELHEIRO LAFAIETE-PJ-03PJ 20.574,59 6.172,38 0,00 0,00 0,00 0,00 0,00 2.796,30 29.543,27 4.072,73 5.366,06 0,00 0,00 9.438,79 20.104,48 30/11/2022
138 303700 ALMIR LOPES LOURES ANALISTA DO MP BELO HORIZONTE - COMARCA; CENTRAL DE APOIO TECN-SETOR DE MEIO AMBIENTE 20.574,59 6.172,38 0,00 0,00 0,00 0,00 0,00 1.911,00 28.657,97 4.072,73 5.366,06 0,00 0,00 9.438,79 19.219,18 30/11/2022
139 696600 ALOIZIO MARTINS JALES JUNIOR ASSESSOR PROMOTOR JUSTICA CAMPESTRE - COMARCA; CAMPESTRE-PJ-SECRETARIA 0,00 0,00 7.857,77 0,00 0,00 0,00 0,00 1.911,00 9.768,77 828,38 1.430,30 0,00 0,00 2.258,68 7.510,09 30/11/2022
140 515900 ALTAIR NEVES JUNIOR OFICIAL DO MP BELO HORIZONTE - COMARCA; BH-01PJ FAZENDA PUBLICA-SECRETARIA 8.377,76 1.675,55 0,00 0,00 0,00 0,00 0,00 1.911,00 11.964,31 1.401,74 1.509,82 0,00 0,00 2.911,56 9.052,75 30/11/2022
141 233300 ALVARINDO BATISTA ANALISTA DO MP BELO HORIZONTE - COMARCA; NUCLEO APOIO TECNICO ESP COMUNICACAO 20.574,59 6.172,38 0,00 0,00 0,00 0,00 0,00 2.796,30 29.543,27 4.072,73 5.313,92 0,00 0,00 9.386,65 20.156,62 30/11/2022
142 274100 ALYSSON CARVALHO VIDAL DE LACERDA OFICIAL DO MP MANHUAÇU - COMARCA; MANHUACU-PJ-01PJ 11.008,33 3.302,50 0,00 0,00 0,00 0,00 0,00 1.911,00 16.221,83 2.082,95 2.493,31 0,00 0,00 4.576,26 11.645,57 30/11/2022
143 621000 AMANDA BASTOS ALVES ANALISTA DO MP BELO HORIZONTE - COMARCA; BH-07PJ 02 TRIBUNAL DO JURI-GAB 066PJ 10.325,15 1.032,52 0,00 0,00 0,00 0,00 0,00 1.911,00 13.268,67 927,17 1.910,95 0,00 0,00 2.838,12 10.430,55 30/11/2022
144 521700 AMANDA CRISTINA AGUIAR MACHADO OFICIAL DO MP CONGONHAS - COMARCA; CONGONHAS-PJ-01PJ 6.694,66 1.338,93 0,00 0,00 0,00 0,00 0,00 1.911,00 9.944,59 1.078,59 991,13 0,00 0,00 2.069,72 7.874,87 30/11/2022
145 713900 AMANDA DE ARAUJO CARVALHO ASSESSOR PROMOTOR JUSTICA ARAÇUAÍ - COMARCA; ARACUAI-PJ-01PJ 0,00 0,00 7.857,77 0,00 0,00 0,00 0,00 1.911,00 9.768,77 828,38 1.430,30 0,00 0,00 2.258,68 7.510,09 30/11/2022
146 613400 AMANDA DE ASSIS IUNES SANTOS ANALISTA DO MP CONGONHAS - COMARCA; CONGONHAS-PJ-01PJ 10.325,15 1.032,52 0,00 0,00 0,00 0,00 0,00 1.911,00 13.268,67 1.610,44 1.811,13 0,00 0,00 3.421,57 9.847,10 30/11/2022
147 695900 AMANDA DE OLIVEIRA ASSESSOR PROCURADOR JUSTICA BELO HORIZONTE - COMARCA; PROC JUST ATUACAO TRIBUNAIS SUPERIORES-GAB004 0,00 0,00 7.857,77 0,00 0,00 0,00 0,00 1.911,00 9.768,77 828,38 1.430,30 0,00 0,00 2.258,68 7.510,09 30/11/2022
148 520800 AMANDA DE SOUZA MACHADO ANALISTA DO MP BAEPENDI - COMARCA; BAEPENDI-PJ-UNPJ 11.008,33 2.201,67 0,00 0,00 0,00 0,00 0,00 1.911,00 15.121,00 1.906,81 2.134,74 0,00 0,00 4.041,55 11.079,45 30/11/2022
149 663900 AMANDA DENISE GONCALVES DA SILVA ASSESSOR ADMINISTRATIVO I BELO HORIZONTE - COMARCA; BH-12PJ JUIZO CRIMINAL-SECRETARIA 0,00 0,00 4.345,58 0,00 0,00 0,00 670,00 1.911,00 6.926,58 631,17 518,68 0,00 0,00 1.149,85 5.776,73 30/11/2022
150 677000 AMANDA LETICIA MESSIAS PEGO ASSESSOR PROMOTOR JUSTICA CORAÇÃO DE JESUS - COMARCA; CORACAO DE JESUS-PJ-UNPJ 0,00 0,00 7.857,77 0,00 0,00 0,00 0,00 1.911,00 9.768,77 828,38 1.430,30 0,00 0,00 2.258,68 7.510,09 30/11/2022
151 543100 AMANDA VIEIRA FREITAS BRESSANE ANALISTA DO MP VARGINHA - COMARCA; COORD REG DEF ORDEM ECON TRIB VARGINHA 11.008,33 1.100,83 0,00 0,00 0,00 0,00 0,00 1.911,00 14.020,16 1.730,68 1.984,72 0,00 0,00 3.715,40 10.304,76 30/11/2022
152 434400 AMARILIS ASSIS SIMAO CURCIO ANALISTA DO MP BELO HORIZONTE - COMARCA; DIRETORIA GESTAO COMPRAS LICITACOES 11.008,33 2.201,67 0,00 0,00 0,00 0,00 0,00 1.911,00 15.121,00 1.906,81 2.239,02 0,00 0,00 4.145,83 10.975,17 30/11/2022
153 652000 AMAURI SILVA ALVES ASSESSOR ADMINISTRATIVO III BELO HORIZONTE - COMARCA; BH-23PJ INFRACIONAL-SEC EXP 9.684,23 968,42 0,00 0,00 0,00 0,00 0,00 1.911,00 12.563,65 729,60 1.859,48 0,00 0,00 2.589,08 9.974,57 30/11/2022
154 58000 AMELIA GUARIZE DE CASTRO OFICIAL DO MP JUIZ DE FORA - COMARCA; JUIZ DE FORA-PJ-SECRETARIA 7.370,10 7.370,10 0,00 0,00 0,00 2.151,65 0,00 1.911,00 18.802,85 2.151,65 3.184,20 0,00 0,00 5.335,85 13.467,00 30/11/2022
155 324301 AMERICA SUELI FERREIRA DA SILVA ANALISTA DO MP UBERLÂNDIA - COMARCA; UBERLANDIA-PJ-02PJ 11.008,33 2.201,67 0,00 0,00 0,00 0,00 0,00 1.911,00 15.121,00 1.906,81 2.186,88 0,00 0,00 4.093,69 11.027,31 30/11/2022
156 273300 AMUJACY DE BRITO ASSIZ OFICIAL DO MP BELO HORIZONTE - COMARCA; BH-12PJ JUIZO CRIMINAL-SECRETARIA 11.008,33 3.302,50 0,00 0,00 0,00 0,00 0,00 1.911,00 16.221,83 2.082,95 2.284,76 0,00 0,00 4.367,71 11.854,12 30/11/2022
157 482200 ANA ALICE LOPES ACHTSCHIN ANALISTA DO MP BELO HORIZONTE - COMARCA; PROC JUST ATUACAO TRIBUNAIS SUPERIORES-GAB002 13.341,69 2.668,34 0,00 0,00 0,00 0,00 0,00 1.911,00 17.921,03 2.354,82 2.885,82 0,00 0,00 5.240,64 12.680,39 30/11/2022
158 490400 ANA AMELIA PAULINO GARCIA OFICIAL DO MP CONTAGEM - COMARCA; CONTAGEM-PJ-SECRETARIA 8.650,50 1.730,10 0,00 0,00 0,00 0,00 0,00 2.796,30 13.176,90 1.454,11 1.533,29 0,00 0,00 2.987,40 10.189,50 30/11/2022
159 690400 ANA ANGELICA MOREIRA DA CUNHA ASSESSOR PROMOTOR JUSTICA TIMÓTEO - COMARCA; TIMOTEO-PJ-02PJ 0,00 0,00 7.857,77 0,00 0,00 0,00 0,00 1.911,00 9.768,77 828,38 1.430,30 0,00 0,00 2.258,68 7.510,09 30/11/2022
160 714900 ANA BEATRIZ LOBATO ALVES DE CARVALHO ASSESSOR PROCURADOR JUSTICA BELO HORIZONTE - COMARCA; GABINETE DE PROCURADOR DE JUSTICA - SALA 309 0,00 2.357,33 7.857,77 0,00 0,00 0,00 0,00 1.911,00 12.126,10 828,38 2.078,56 0,00 0,00 2.906,94 9.219,16 30/11/2022
161 715000 ANA CARLA RODRIGUES DE SOUZA ASSESSOR PROMOTOR JUSTICA TRÊS CORACOES - COMARCA; TRES CORACOES-PJ-01PJ 0,00 0,00 7.857,77 0,00 0,00 0,00 0,00 1.911,00 9.768,77 828,38 1.430,30 0,00 0,00 2.258,68 7.510,09 30/11/2022
162 279100 ANA CAROLINA ARAUJO PEREIRA ANALISTA DO MP BELO HORIZONTE - COMARCA; DIRETORIA DE PROJETOS DE EDIFICACOES 20.574,59 6.172,38 0,00 0,00 0,00 0,00 0,00 1.911,00 28.657,97 4.072,73 5.313,92 0,00 0,00 9.386,65 19.271,32 30/11/2022
163 653300 ANA CAROLINA CYRNE DINIZ ASSESSOR ADMINISTRATIVO III BELO HORIZONTE - COMARCA; CENTRAL DE APOIO TECNICO-SETOR CONTABIL 0,00 0,00 9.684,23 0,00 0,00 0,00 0,00 1.911,00 11.595,23 828,38 1.932,57 0,00 0,00 2.760,95 8.834,28 30/11/2022
164 359400 ANA CAROLINA DE ABREU FARIA ASSESSOR ADMINISTRATIVO IV BELO HORIZONTE - COMARCA; SUPERINTENDÊNCIA DE ENGENHARIA E ARQUITETURA 0,00 0,00 12.920,95 0,00 0,00 0,00 0,00 2.796,30 15.717,25 828,38 2.770,53 0,00 0,00 3.598,91 12.118,34 30/11/2022
165 408500 ANA CAROLINA DE CASTRO CARVALHO ANALISTA DO MP BARBACENA - COMARCA; BARBACENA - SECRETARIA DAS PJS CRIMINAIS 16.169,47 3.233,89 0,00 0,00 0,00 0,00 0,00 2.796,30 22.199,66 2.897,75 3.669,68 0,00 0,00 6.567,43 15.632,23 30/11/2022
166 688000 ANA CAROLINA DE OLIVEIRA PINTO ASSESSOR PROCURADOR JUSTICA BELO HORIZONTE - COMARCA; GABINETE DE PROCURADOR DE JUSTIÇA - SALA 1005 0,00 0,00 7.857,77 0,00 0,00 0,00 0,00 1.911,00 9.768,77 828,38 1.430,30 0,00 0,00 2.258,68 7.510,09 30/11/2022
167 420200 ANA CAROLINA FERNANDES SILVA ANALISTA DO MP BELO HORIZONTE - COMARCA; GABINETE DE PROCURADOR DE JUSTIÇA - SALA 704 14.224,47 2.844,89 0,00 0,00 0,00 0,00 0,00 1.911,00 18.980,36 2.524,31 3.130,53 0,00 0,00 5.654,84 13.325,52 30/11/2022
168 522100 ANA CAROLINA FERNANDINO VIDAL PEREIRA SANTOS OFICIAL DO MP BELO HORIZONTE - COMARCA; SECRETARIA DO PROCON-MG 8.377,76 1.675,55 0,00 0,00 0,00 0,00 0,00 1.911,00 11.964,31 927,17 1.579,15 0,00 0,00 2.506,32 9.457,99 30/11/2022
169 716000 ANA CAROLINA FIGUEIREDO SILVA ASSESSOR PROCURADOR JUSTICA BELO HORIZONTE - COMARCA; PROC JUST ATUACAO TRIBUNAIS SUPERIORES-GAB001 0,00 0,00 7.857,77 0,00 0,00 0,00 0,00 1.911,00 9.768,77 828,38 1.430,30 0,00 0,00 2.258,68 7.510,09 30/11/2022
170 502400 ANA CAROLINA GONCALVES FERNANDES ANALISTA DO MP IPATINGA - COMARCA; IPATINGA-PJ-01PJ 11.008,33 2.201,67 0,00 0,00 0,00 0,00 0,00 3.681,60 16.891,60 927,17 2.382,14 0,00 0,00 3.309,31 13.582,29 30/11/2022
171 529900 ANA CAROLINA GONCALVES PECANHA CHEQUER ANALISTA DO MP MANHUAÇU - COMARCA; MANHUACU-PJ-04PJ 11.008,33 1.100,83 0,00 0,00 0,00 0,00 0,00 3.681,60 15.790,76 1.730,68 1.984,72 0,00 0,00 3.715,40 12.075,36 30/11/2022
172 431900 ANA CAROLINA MOTTA GUATIMOSIM ANALISTA DO MP BELO HORIZONTE - COMARCA; ASSESSORIA JURIDICO-ADMINISTRATIVA 14.224,47 2.844,89 0,00 0,00 0,00 0,00 0,00 2.796,30 19.865,66 2.524,31 3.130,53 0,00 0,00 5.654,84 14.210,82 30/11/2022
173 490600 ANA CAROLINA XAVIER GODOY ANALISTA DO MP BELO HORIZONTE - COMARCA; BH-18PJ DIREITOS HUMANOS-SECRETARIA 11.008,33 2.201,67 0,00 0,00 0,00 0,00 0,00 3.681,60 16.891,60 1.906,81 2.134,74 0,00 0,00 4.041,55 12.850,05 30/11/2022
174 600300 ANA CAROLINE PEREIRA DINIZ ANALISTA DO MP BELO HORIZONTE - COMARCA; PROC JUST ESP ACOES COMP ORIG CRIMINAL-SEC 11.008,33 1.100,83 0,00 0,00 0,00 0,00 0,00 2.796,30 14.905,46 1.730,68 1.984,72 0,00 0,00 3.715,40 11.190,06 30/11/2022
175 615800 ANA CAROLINE PEREIRA OLIVEIRA OFICIAL DO MP ALFENAS - COMARCA; ALFENAS-PJ-06PJ 6.694,66 669,47 0,00 0,00 0,00 0,00 0,00 1.911,00 9.275,13 971,47 888,62 0,00 0,00 1.860,09 7.415,04 30/11/2022
176 324800 ANA CECILIA MENDES DA SILVA OFICIAL DO MP OURO FINO - COMARCA; OURO FINO-PJ-01PJ 11.008,33 4.403,33 0,00 0,00 0,00 0,00 0,00 1.911,00 17.322,66 2.259,08 2.695,46 0,00 0,00 4.954,54 12.368,12 30/11/2022
177 704100 ANA CLARA MARTINS ALBUQUERQUE ASSESSOR ADMINISTRATIVO I BELO HORIZONTE - COMARCA; CAO-CRIANCAS E ADOLESCENTES-ASS TECNICA 0,00 0,00 4.345,58 0,00 0,00 0,00 0,00 1.911,00 6.256,58 828,38 464,45 0,00 0,00 1.292,83 4.963,75 30/11/2022
178 698700 ANA CLARA SANTOS ALMEIDA ASSESSOR PROMOTOR JUSTICA SABINÓPOLIS - COMARCA; SABINOPOLIS-PJ-UNPJ 0,00 0,00 7.857,77 0,00 0,00 0,00 0,00 1.911,00 9.768,77 828,38 1.430,30 0,00 0,00 2.258,68 7.510,09 30/11/2022
179 441300 ANA CLAUDIA ALKIMIM MIRANDA BOMTEMPO ANALISTA DO MP MONTES CLAROS - COMARCA; MONTES CLAROS-PJ-11PJ 14.224,47 2.844,89 0,00 0,00 0,00 0,00 0,00 1.911,00 18.980,36 2.524,31 3.026,25 0,00 0,00 5.550,56 13.429,80 30/11/2022
180 642500 ANA CLAUDIA DA COSTA NAVES OFICIAL DO MP MONTE CARMELO - COMARCA; MONTE CARMELO-PJ-02PJ 5.438,14 543,81 0,00 0,00 0,00 0,00 0,00 2.996,24 8.978,19 757,89 567,26 0,00 0,00 1.325,15 7.653,04 30/11/2022
181 716800 ANA CLAUDIA DOURADO MENDES ASSESSOR PROMOTOR JUSTICA ARAÇUAÍ - COMARCA; ARACUAI-PJ-02PJ 0,00 0,00 7.857,77 0,00 0,00 0,00 0,00 1.911,00 9.768,77 828,38 1.430,30 0,00 0,00 2.258,68 7.510,09 30/11/2022
182 604900 ANA CLAUDIA OLIVEIRA DE MIRANDA OFICIAL DO MP PONTE NOVA - COMARCA; PONTE NOVA-PJ-04PJ 6.081,20 608,12 0,00 0,00 0,00 0,00 0,00 1.911,00 8.600,32 865,50 680,05 0,00 0,00 1.545,55 7.054,77 30/11/2022
183 379300 ANA CRISTINA ALVES FLAVIO ANALISTA DO MP SÃO GOTARDO - COMARCA; SAO GOTARDO-PJ-01PJ 16.169,47 3.233,89 0,00 0,00 0,00 0,00 0,00 2.796,30 22.199,66 2.897,75 3.617,55 0,00 0,00 6.515,30 15.684,36 30/11/2022
184 461200 ANA CRISTINA ALVES PASCHOAL ANALISTA DO MP BELO HORIZONTE - COMARCA; BH-07PJ 03 TRIBUNAL DO JURI-GAB 064PJ 11.008,33 2.201,67 0,00 0,00 0,00 0,00 0,00 1.911,00 15.121,00 1.906,81 2.186,88 0,00 0,00 4.093,69 11.027,31 30/11/2022
185 514100 ANA CRISTINA ARAUJO ASSUNCAO ANALISTA DO MP BELO HORIZONTE - COMARCA; ASSESS JUR DO CONS SUPERIOR DO MINISTERIO PUB 11.008,33 2.201,67 0,00 0,00 0,00 0,00 0,00 2.796,30 16.006,30 1.906,81 2.186,88 0,00 0,00 4.093,69 11.912,61 30/11/2022
186 113401 ANA CRISTINA BRAGA ALBUQUERQUE ASSESSOR ADM. ESPECIAL BELO HORIZONTE - COMARCA; DIRETORIA-GERAL 0,00 0,00 24.982,93 0,00 0,00 0,00 0,00 1.333,00 26.315,93 828,38 6.139,72 0,00 0,00 6.968,10 19.347,83 30/11/2022
187 233800 ANA CRISTINA BRAGA SOARES OFICIAL DO MP CONTAGEM - COMARCA; CONTAGEM-PJ-SECRETARIA 13.341,69 4.002,51 0,00 0,00 0,00 0,00 0,00 1.911,00 19.255,20 2.568,29 3.089,74 0,00 0,00 5.658,03 13.597,17 30/11/2022
188 186400 ANA CRISTINA DE AZEVEDO LOPES OFICIAL DO MP UBÁ - COMARCA; UBA-PJ-01PJ 18.312,36 7.324,94 0,00 0,00 0,00 0,00 0,00 1.911,00 27.548,30 3.895,18 5.109,72 0,00 0,00 9.004,90 18.543,40 30/11/2022
189 693000 ANA CRISTINA DE MELO SILVEIRA ASSESSOR PROCURADOR JUSTICA BELO HORIZONTE - COMARCA; COORD DE CONTROLE CONSTITUCIONALIDADE 0,00 0,00 9.190,77 0,00 0,00 0,00 0,00 1.463,30 10.654,07 828,38 1.430,30 0,00 0,00 2.258,68 8.395,39 30/11/2022
190 465100 ANA CRISTINA DE OLIVEIRA GUIMARAES ANALISTA DO MP ITAJUBA - COMARCA; ITAJUBA-PJ-05PJ 11.008,33 2.201,67 0,00 0,00 0,00 0,00 0,00 2.796,30 16.006,30 1.906,81 2.134,74 0,00 0,00 4.041,55 11.964,75 30/11/2022
191 500600 ANA CRISTINA LATADO SUDARIO ANALISTA DO MP UBERLÂNDIA - COMARCA; UBERLANDIA-PJ-09PJ 11.008,33 2.201,67 0,00 0,00 4.403,33 0,00 0,00 1.911,00 19.524,33 1.906,81 3.449,93 0,00 0,00 5.356,74 14.167,59 30/11/2022
192 331400 ANA CRISTINA RIBEIRO ALVES OFICIAL DO MP BAMBUÍ - COMARCA; BAMBUI-PJ-UNPJ 11.008,33 3.302,50 0,00 0,00 0,00 0,00 0,00 1.911,00 16.221,83 2.082,95 2.441,17 0,00 0,00 4.524,12 11.697,71 30/11/2022
193 249300 ANA ELOINA MARTINS OFICIAL DO MP BETIM - COMARCA; BETIM-PJ-02PJ 14.224,47 5.689,79 0,00 0,00 0,00 0,00 0,00 1.911,00 21.825,26 2.979,50 3.787,70 0,00 0,00 6.767,20 15.058,06 30/11/2022
194 257400 ANA FLAVIA CAMBRAIA ANALISTA DO MP BELO HORIZONTE - COMARCA; BH-19PJ SAUDE-SECRETARIA 150PJ 20.574,59 6.172,38 0,00 0,00 0,00 0,00 0,00 1.911,00 28.657,97 4.072,73 5.313,92 0,00 0,00 9.386,65 19.271,32 30/11/2022
195 248201 ANA FLAVIA DE MORAIS SOUZA ANALISTA DO MP DIVINÓPOLIS - COMARCA; DIVINOPOLIS-PJ-01PJ 12.118,97 3.635,69 0,00 0,00 0,00 0,00 0,00 2.796,30 18.550,96 2.313,96 2.722,56 0,00 0,00 5.036,52 13.514,44 30/11/2022
196 621100 ANA FLAVIA DINIZ TEODORO OFICIAL DO MP SANTA LUZIA - COMARCA; SANTA LUZIA-PJ-06PJ 6.694,66 669,47 0,00 0,00 0,00 0,00 0,00 1.911,00 9.275,13 971,47 888,62 0,00 0,00 1.860,09 7.415,04 30/11/2022
197 238600 ANA FLAVIA FRANCO OFICIAL DO MP BELO HORIZONTE - COMARCA; DIRETORIA DE PESSOAL ADMINISTRATIVO - DPAD 15.659,55 6.263,82 0,00 0,00 0,00 0,00 0,00 1.911,00 23.834,37 3.300,95 4.251,80 0,00 0,00 7.552,75 16.281,62 30/11/2022
198 690000 ANA FLAVIA LURIAN DE PAIVA ASSESSOR PROCURADOR JUSTICA BELO HORIZONTE - COMARCA; GABINETE DE PROCURADOR DE JUSTIÇA - SALA 609 0,00 0,00 7.857,77 0,00 0,00 0,00 0,00 1.911,00 9.768,77 828,38 1.430,30 0,00 0,00 2.258,68 7.510,09 30/11/2022
199 402900 ANA FLAVIA PORTES DE CARVALHO ANALISTA DO MP BELO HORIZONTE - COMARCA; DIRET DE PLANOS PROJETOS E PROGRAMAS INST 16.169,47 3.233,89 0,00 0,00 0,00 0,00 0,00 1.911,00 21.314,36 2.897,75 3.617,55 0,00 0,00 6.515,30 14.799,06 30/11/2022
200 382700 ANA KARENINA SALDANHA GONTIJO ANALISTA DO MP BELO HORIZONTE - COMARCA; ASSESS TECNICO-JUR JUNTO AS PROC. DE JUST 15.659,55 3.131,91 0,00 0,00 0,00 0,00 0,00 1.911,00 20.702,46 2.799,85 3.528,33 0,00 0,00 6.328,18 14.374,28 30/11/2022
201 620500 ANA KARINE DE ANDRADE OLIVEIRA ANALISTA DO MP RIBEIRÃO DAS NEVES - COMARCA; RIBEIRAO NEVES-SEC PJ EXECUCAO PENAL 9.378,86 937,89 0,00 0,00 0,00 0,00 0,00 1.911,00 12.227,75 1.443,89 1.570,68 0,00 0,00 3.014,57 9.213,18 30/11/2022
202 462200 ANA LUCIA ANDRADE TOMICH OTTONI ANALISTA DO MP TEÓFILO OTONI - COMARCA; TEOFILO OTONI-PJ-07PJ 11.008,33 2.201,67 0,00 0,00 0,00 0,00 0,00 2.796,30 16.006,30 1.906,81 2.134,74 0,00 0,00 4.041,55 11.964,75 30/11/2022
203 504100 ANA LUCIA CATAO DE CARVALHO OFICIAL DO MP BELO HORIZONTE - COMARCA; DIR RELACOES INSTITUCIONAIS 8.650,50 1.730,10 0,00 0,00 0,00 0,00 0,00 1.911,00 12.291,60 1.454,11 1.533,29 0,00 0,00 2.987,40 9.304,20 30/11/2022
204 274700 ANA LUCIA DE ALENCAR BRAGATO OFICIAL DO MP UBERABA - COMARCA; UBERABA-PJ-07PJ 11.008,33 3.302,50 0,00 0,00 0,00 0,00 0,00 1.911,00 16.221,83 2.082,95 2.493,31 0,00 0,00 4.576,26 11.645,57 30/11/2022
205 509400 ANA LUCIA DORNELAS MALLOSTO ANALISTA DO MP JUIZ DE FORA - COMARCA; JUIZ DE FORA-PJ-25PJ 11.008,33 2.201,67 0,00 0,00 0,00 0,00 0,00 1.911,00 15.121,00 1.906,81 2.186,88 0,00 0,00 4.093,69 11.027,31 30/11/2022
206 302600 ANA LUCIA LOPES SANTOS OFICIAL DO MP BELO HORIZONTE - COMARCA; DIVISÃO DE FISCALIZAÇÃO DAS RELAÇÕES DE CONSU 11.008,33 3.302,50 0,00 0,00 0,00 0,00 1.580,00 1.911,00 17.801,83 2.082,95 2.875,67 0,00 0,00 4.958,62 12.843,21 30/11/2022
207 716700 ANA LUISA DE LANA COELHO ASSESSOR PROCURADOR JUSTICA BELO HORIZONTE - COMARCA; GABINETE DE PROCURADOR DE JUSTIÇA - SALA 715 0,00 0,00 7.857,77 0,00 0,00 0,00 0,00 1.911,00 9.768,77 828,38 1.430,30 0,00 0,00 2.258,68 7.510,09 30/11/2022
208 702000 ANA LUISA DE OLIVEIRA RIBEIRO ASSESSOR PROCURADOR JUSTICA BELO HORIZONTE - COMARCA; ASSESS TECNICO-JUR JUNTO AS PROC. DE JUST 0,00 0,00 7.857,77 0,00 0,00 0,00 0,00 1.911,00 9.768,77 828,38 1.430,30 0,00 0,00 2.258,68 7.510,09 30/11/2022
209 493400 ANA LUISA NOGUEIRA MOREIRA ANALISTA DO MP BELO HORIZONTE - COMARCA; BH-19PJ SAUDE-SECRETARIA 130PJ 11.008,33 2.201,67 0,00 0,00 0,00 0,00 0,00 1.911,00 15.121,00 1.906,81 2.239,02 0,00 0,00 4.145,83 10.975,17 30/11/2022
210 389300 ANA LUISA REUTER LIMA ANALISTA DO MP BELO HORIZONTE - COMARCA; DIRETORIA DE SISTEMAS DE INFORMACAO 16.169,47 3.233,89 4.939,72 0,00 0,00 0,00 0,00 1.911,00 26.254,08 2.897,75 5.028,11 0,00 0,00 7.925,86 18.328,22 30/11/2022
211 480600 ANA LUIZA FERNANDES FRAGA E GRECO COORDENADOR I BELO HORIZONTE - COMARCA; OUVIDORIA DO MPMG 14.687,60 2.937,52 0,00 0,00 0,00 0,00 0,00 1.911,00 19.536,12 1.401,74 3.592,07 0,00 0,00 4.993,81 14.542,31 30/11/2022
212 726800 ANA LUIZA GOMES PEREIRA ASSESSOR ADMINISTRATIVO I BELO HORIZONTE - COMARCA; OUVIDORIA DO MPMG 0,00 0,00 4.345,58 0,00 0,00 0,00 0,00 1.911,00 6.256,58 631,17 518,68 0,00 0,00 1.149,85 5.106,73 30/11/2022
213 517800 ANA LUIZA MAGALHAES CIRINO PIOTO DE MELO OFICIAL DO MP BELO HORIZONTE - COMARCA; DIVISAO DE MATERIAIS 5.889,39 588,94 0,00 0,00 0,00 0,00 0,00 3.681,60 10.159,93 832,79 683,16 0,00 0,00 1.515,95 8.643,98 30/11/2022
214 481400 ANA MARCIA CANDIDA FERREIRA OFICIAL DO MP BRUMADINHO - COMARCA; BRUMADINHO-PJ-02PJ 6.694,66 1.338,93 0,00 0,00 0,00 0,00 0,00 1.911,00 9.944,59 1.078,59 1.043,27 0,00 0,00 2.121,86 7.822,73 30/11/2022
215 716200 ANA MARIA COUTO GONTIJO ASSESSOR PROCURADOR JUSTICA BELO HORIZONTE - COMARCA; GABINETE DE PROCURADOR DE JUSTIÇA - SALA 1014 0,00 0,00 7.857,77 0,00 0,00 0,00 0,00 1.911,00 9.768,77 828,38 1.430,30 0,00 0,00 2.258,68 7.510,09 30/11/2022
216 643100 ANA MARIA LOPES MIRANDA ANALISTA DO MP BELO HORIZONTE - COMARCA; CAO-FUNDACOES 9.223,00 922,30 0,00 0,00 0,00 0,00 0,00 2.796,30 12.941,60 927,17 1.539,48 0,00 0,00 2.466,65 10.474,95 30/11/2022
217 556400 ANA MARIA OLIVEIRA SOUZA OFICIAL DO MP ITAPECERICA - COMARCA; ITAPECERICA-PJ-UNPJ 6.912,65 691,27 0,00 0,00 0,00 0,00 0,00 1.911,00 9.514,92 1.009,84 944,01 0,00 0,00 1.953,85 7.561,07 30/11/2022
218 409600 ANA OLIVIA FARIA ROSENBURG ANALISTA DO MP BELO HORIZONTE - COMARCA; DIRETORIA DO COLEGIO E DA CAMARA DE PJ 16.169,47 4.850,84 0,00 0,00 0,00 0,00 1.464,99 1.911,00 24.396,30 3.156,46 4.446,07 0,00 0,00 7.602,53 16.793,77 30/11/2022
219 461500 ANA PAULA ALVES CARVALHO ANALISTA DO MP UBERLÂNDIA - COMARCA; UBERLANDIA-PJ-25PJ 11.366,79 2.273,36 0,00 0,00 0,00 0,00 0,00 2.796,30 16.436,45 1.975,64 2.234,11 0,00 0,00 4.209,75 12.226,70 30/11/2022
220 523200 ANA PAULA ALVES DA SILVA OFICIAL DO MP GOVERNADOR VALADARES - COMARCA; GOVERNADOR VALADARES-PJ-10PJ 8.377,76 1.675,55 0,00 0,00 0,00 0,00 0,00 5.452,20 15.505,51 927,17 1.474,88 0,00 0,00 2.402,05 13.103,46 30/11/2022
221 381200 ANA PAULA BARROS PEREIRA RIGHI ANALISTA DO MP BELO HORIZONTE - COMARCA; PROC JUST ATUACAO TRIBUNAIS SUPERIORES-GAB003 16.169,47 3.233,89 0,00 0,00 0,00 0,00 0,00 2.796,30 22.199,66 927,17 3.905,44 0,00 0,00 4.832,61 17.367,05 30/11/2022
222 696400 ANA PAULA CARVALHO SILVA ASSESSOR PROMOTOR JUSTICA PERDÕES - COMARCA; PERDOES-PJ-UNPJ 0,00 0,00 7.857,77 0,00 2.619,26 0,00 172,87 4.682,16 15.332,06 828,38 2.098,46 0,00 0,00 2.926,84 12.405,22 30/11/2022
223 700900 ANA PAULA CRAVO SALOME ASSESSOR ADMINISTRATIVO I BELO HORIZONTE - COMARCA; PROCURADOR-GERAL DE JUSTIÇA 0,00 0,00 4.345,58 0,00 0,00 0,00 670,00 1.911,00 6.926,58 631,17 518,68 0,00 0,00 1.149,85 5.776,73 30/11/2022
224 227200 ANA PAULA DA SILVA CAMPOLINA ANALISTA DO MP BELO HORIZONTE - COMARCA; DIRETORIA DE ORCAMENTO-DIOR/SPC 20.574,59 10.287,30 0,00 0,00 0,00 0,00 0,00 1.911,00 32.772,89 4.731,12 6.316,60 0,00 0,00 11.047,72 21.725,17 30/11/2022
225 278500 ANA PAULA DIAS CAPANEMA OFICIAL DO MP BELO HORIZONTE - COMARCA; DIRETORIA DE SEGURANCA 11.736,91 3.521,07 0,00 0,00 0,00 0,00 0,00 1.911,00 17.168,98 2.234,49 2.712,10 0,00 0,00 4.946,59 12.222,39 30/11/2022
226 327300 ANA PAULA GARCIA MAXIMO OFICIAL DO MP UNAÍ - COMARCA; UNAI-PJ-01PJ 13.341,69 5.336,68 0,00 0,00 0,00 0,00 0,00 1.911,00 20.589,37 2.781,75 3.345,80 0,00 0,00 6.127,55 14.461,82 30/11/2022
227 270000 ANA PAULA GOULART CRUZ DE MAGALHAES ANALISTA DO MP BELO HORIZONTE - COMARCA; ASSESSORIA ESPECIAL DO PGJ 20.574,59 6.172,38 0,00 0,00 0,00 0,00 0,00 1.911,00 28.657,97 4.072,73 5.366,06 0,00 0,00 9.438,79 19.219,18 30/11/2022
228 262100 ANA PAULA KOMATSUZAKI ABIJAUDI ANALISTA DO MP BELO HORIZONTE - COMARCA; BH-17PJ PATRIMONIO PUBLICO-SECRETARIA 20.574,59 10.287,30 0,00 0,00 0,00 0,00 0,00 1.911,00 32.772,89 4.731,12 6.212,33 0,00 0,00 10.943,45 21.829,44 30/11/2022
229 278900 ANA PAULA MOREIRA GURGEL ANALISTA DO MP BELO HORIZONTE - COMARCA; ASSESSORIA JURIDICO-ADMINISTRATIVA 20.574,59 8.229,84 7.494,88 0,00 0,00 0,00 24.982,93 1.911,00 63.193,24 4.401,92 14.542,52 837,09 0,00 19.781,53 43.411,71 30/11/2022
230 425701 ANA PAULA ROCHA ANALISTA DO MP BELO HORIZONTE - COMARCA; ASSESSORIA DE COMUNICACAO INTEGRADA 11.008,33 1.100,83 0,00 0,00 0,00 0,00 0,00 2.796,30 14.905,46 1.730,68 1.984,72 0,00 0,00 3.715,40 11.190,06 30/11/2022
231 395601 ANA PAULA SALGE OLIVEIRA ANALISTA DO MP UBERABA - COMARCA; UBERABA-PJ-15PJ 11.008,33 3.302,50 0,00 0,00 0,00 0,00 0,00 1.911,00 16.221,83 2.082,95 2.493,31 0,00 0,00 4.576,26 11.645,57 30/11/2022
232 473200 ANA PAULA SCOTTON BRASIL ANALISTA DO MP JUIZ DE FORA - COMARCA; JUIZ DE FORA-PJ-09PJ 11.008,33 2.201,67 0,00 0,00 0,00 0,00 0,00 1.911,00 15.121,00 1.906,81 2.239,02 0,00 0,00 4.145,83 10.975,17 30/11/2022
233 633600 ANA PAULA SILVA FERNANDES OFICIAL DO MP CATAGUASES - COMARCA; CATAGUASES-PJ-04PJ 6.483,63 648,36 0,00 0,00 0,00 0,00 0,00 1.939,54 9.071,53 934,33 835,00 0,00 0,00 1.769,33 7.302,20 30/11/2022
234 470900 ANA PAULA VALADARES ANALISTA DO MP PITANGUI - COMARCA; PITANGUI-PJ-01PJ 11.008,33 2.201,67 0,00 0,00 0,00 0,00 0,00 1.911,00 15.121,00 1.906,81 2.134,74 0,00 0,00 4.041,55 11.079,45 30/11/2022
235 447000 ANA PAULA VALENTIM DE ARAUJO ANALISTA DO MP BELO HORIZONTE - COMARCA; PROC JUST ESP ACOES COMP ORIG CRIMINAL-ASSESS 12.118,97 2.423,79 0,00 0,00 0,00 0,00 0,00 1.911,00 16.453,76 2.120,06 2.546,88 0,00 0,00 4.666,94 11.786,82 30/11/2022
236 604200 ANA PAULA VIANA E SILVA OFICIAL DO MP BELO HORIZONTE - COMARCA; BH-17PJ PATRIMONIO PUBLICO-SECRETARIA 6.694,66 669,47 0,00 0,00 0,00 0,00 0,00 1.911,00 9.275,13 971,47 888,62 0,00 0,00 1.860,09 7.415,04 30/11/2022
237 505400 ANA PAULA VIEIRA SOUTO OFICIAL DO MP ALMENARA - COMARCA; ALMENARA-PJ-01PJ 6.694,66 2.677,86 0,00 0,00 0,00 0,00 0,00 1.911,00 11.283,52 1.292,82 1.300,42 0,00 0,00 2.593,24 8.690,28 30/11/2022
238 280200 ANA RACHEL BRANDAO LADEIRA ROLAND ANALISTA DO MP BELO HORIZONTE - COMARCA; SUPERINTENDENCIA GESTÃO DE PESSOAS 20.574,59 6.172,38 7.494,88 0,00 0,00 0,00 24.982,93 1.911,00 61.135,78 4.072,73 14.297,45 0,00 0,00 18.370,18 42.765,60 30/11/2022
239 691000 ANA RACHEL DOS REIS E SENA COSTA ASSESSOR PROMOTOR JUSTICA BELO HORIZONTE - COMARCA; GABINETE DE PROCURADOR DE JUSTIÇA - SALA 601 0,00 0,00 7.857,77 0,00 0,00 0,00 0,00 1.911,00 9.768,77 828,38 1.430,30 0,00 0,00 2.258,68 7.510,09 30/11/2022
240 601200 ANA REGINA RIBEIRO ANALISTA DO MP BELO HORIZONTE - COMARCA; DIV FISCAL ADM CONT TERCEIRIZACAO 11.008,33 1.100,83 4.406,28 0,00 0,00 0,00 0,00 1.911,00 18.426,44 927,17 3.313,84 0,00 0,00 4.241,01 14.185,43 30/11/2022
241 384700 ANA RODRIGUES PEREIRA MARRA ANALISTA DO MP COROMANDEL - COMARCA; COROMANDEL-PJ-01PJ 11.008,33 2.201,67 0,00 0,00 0,00 0,00 0,00 2.796,30 16.006,30 1.906,81 2.134,74 0,00 0,00 4.041,55 11.964,75 30/11/2022
242 232700 ANA SILVIA SEMBLANO NAKAMURA OFICIAL DO MP BELO HORIZONTE - COMARCA; CENT DE APOIO TEC-SETOR DEF,IDOSO E INFANC 11.008,33 3.302,50 3.585,64 0,00 0,00 0,00 0,00 1.911,00 19.807,47 2.082,95 3.479,36 0,00 0,00 5.562,31 14.245,16 30/11/2022
243 602100 ANACLETO FRANCISCO MARCIER PIMENTA OFICIAL DO MP SÃO JOÃO DEL REI - COMARCA; SAO JOAO DEL REI-PJ-03PJ 6.694,66 669,47 0,00 0,00 0,00 0,00 0,00 3.681,60 11.045,73 971,47 627,93 0,00 0,00 1.599,40 9.446,33 30/11/2022
244 310400 ANADEJE DO CARMO DINIZ ARAUJO OFICIAL DO MP BELO HORIZONTE - COMARCA; DIRETORIA DE PESSOAL ADMINISTRATIVO - DPAD 11.008,33 3.302,50 0,00 0,00 0,00 0,00 0,00 1.911,00 16.221,83 2.082,95 2.493,31 0,00 0,00 4.576,26 11.645,57 30/11/2022
245 337000 ANAILDES MARIA MENDES OFICIAL DO MP JANAÚBA - COMARCA; JANAUBA-PJ-02PJ 11.008,33 3.302,50 0,00 0,00 0,00 0,00 0,00 2.796,30 17.107,13 2.082,95 2.493,31 0,00 0,00 4.576,26 12.530,87 30/11/2022
246 192900 ANATALIA CERQUEIRA LIMA PERES OFICIAL DO MP UBERABA - COMARCA; COORD REG SAUDE MACROR SANIT TRIANGULO SUL 13.776,02 5.510,41 0,00 0,00 0,00 0,00 0,00 1.911,00 21.197,43 2.879,04 3.642,67 0,00 0,00 6.521,71 14.675,72 30/11/2022
247 377400 ANDEIRSON DA MATTA BARBOSA ANALISTA DO MP POUSO ALEGRE - COMARCA; POUSO ALEGRE-PJ-01PJ 11.008,33 2.201,67 0,00 0,00 0,00 0,00 0,00 2.796,30 16.006,30 1.906,81 2.239,02 0,00 0,00 4.145,83 11.860,47 30/11/2022
248 317400 ANDERSON DA SILVA BICALHO OFICIAL DO MP CONTAGEM - COMARCA; CONTAGEM-PJ-SECRETARIA 10.661,25 3.198,38 0,00 0,00 0,00 0,00 0,00 1.911,00 15.770,63 2.010,75 2.232,67 0,00 0,00 4.243,42 11.527,21 30/11/2022
249 506900 ANDERSON DE SOUZA DAMIANI ANALISTA DO MP BELO HORIZONTE - COMARCA; DIRETORIA DE PAGAMENTO DE PESSOAL-DPAG 11.008,33 3.302,50 4.939,72 0,00 0,00 0,00 0,00 1.911,00 21.161,55 2.082,95 3.799,59 0,00 0,00 5.882,54 15.279,01 30/11/2022
250 410000 ANDERSON DE SOUZA NETO ASSESSOR ADMINISTRATIVO II BELO HORIZONTE - COMARCA; DIRETORIA DE ADMINISTRACAO FINANCEIRA 0,00 0,00 6.694,66 0,00 0,00 0,00 0,00 1.911,00 8.605,66 828,38 1.110,44 0,00 0,00 1.938,82 6.666,84 30/11/2022
251 181900 ANDERSON FLAVIO DE OLIVEIRA OFICIAL DO MP ITAGUARA - COMARCA; ITAGUARA-PJ-SECRETARIA 16.169,47 6.467,79 0,00 0,00 0,00 0,00 0,00 1.911,00 24.548,26 3.415,18 4.416,71 0,00 0,00 7.831,89 16.716,37 30/11/2022
252 333200 ANDERSON JOSE DE FREITAS OFICIAL DO MP IPATINGA - COMARCA; IPATINGA-PJ-04PJ 11.008,33 3.302,50 0,00 0,00 0,00 0,00 1.580,00 2.796,30 18.687,13 2.082,95 2.771,40 0,00 0,00 4.854,35 13.832,78 30/11/2022
253 699400 ANDERSON LUIZ CABRAL ASSESSOR PROMOTOR JUSTICA ALÉM PARAÍBA - COMARCA; ALEM PARAIBA-PJ-03PJ 0,00 0,00 7.857,77 0,00 0,00 0,00 0,00 1.911,00 9.768,77 828,38 1.430,30 0,00 0,00 2.258,68 7.510,09 30/11/2022
254 462100 ANDERSON LUIZ GUIMARAES CARDOSO ANALISTA DO MP BARBACENA - COMARCA; BARBACENA-PJ-02PJ 13.341,69 2.668,34 0,00 0,00 0,00 0,00 0,00 1.911,00 17.921,03 2.354,82 2.885,82 0,00 0,00 5.240,64 12.680,39 30/11/2022
255 429700 ANDERSON MELO DE SOUZA ASSESSOR ADMINISTRATIVO IV BELO HORIZONTE - COMARCA; DIRET DE ESTAGIOS E CONVENIOS ACADEMICOS 12.920,95 2.584,19 0,00 0,00 0,00 0,00 0,00 1.911,00 17.416,14 1.078,59 3.097,94 0,00 0,00 4.176,53 13.239,61 30/11/2022
256 545600 ANDERSON MENDES PROCOPIO FERREIRA ANALISTA DO MP BELO HORIZONTE - COMARCA; BH-12PJ JUIZO CRIMINAL-GAB 089PJ 11.008,33 1.100,83 0,00 0,00 0,00 0,00 0,00 1.911,00 14.020,16 1.730,68 1.984,72 0,00 0,00 3.715,40 10.304,76 30/11/2022
257 519900 ANDERSON MOREIRA DOEHLER ANALISTA DO MP TEÓFILO OTONI - COMARCA; COORD REG SAUDE MACRORREGIAO SANIT NORDESTE 11.008,33 3.302,50 0,00 0,00 0,00 0,00 0,00 1.911,00 16.221,83 2.082,95 2.493,31 0,00 0,00 4.576,26 11.645,57 30/11/2022
258 103000 ANDERSON TADEU DE DEUS ASSESSOR ADMINISTRATIVO II BELO HORIZONTE - COMARCA; BH-26 CRIME CONT CRIAN ADOL-SECRETARIA 0,00 4.686,26 6.694,66 0,00 0,00 0,00 0,00 1.911,00 13.291,92 828,38 2.399,16 0,00 0,00 3.227,54 10.064,38 30/11/2022
259 309200 ANDITYAS SOARES DE MOURA COSTA MATOS ANALISTA DO MP BELO HORIZONTE - COMARCA; GABINETE DE PROCURADOR DE JUSTIÇA - SALA 909 16.695,70 5.008,71 0,00 0,00 0,00 0,00 0,00 1.911,00 23.615,41 3.265,92 4.201,22 0,00 0,00 7.467,14 16.148,27 30/11/2022
260 519200 ANDRE BORJA LANA ANALISTA DO MP BELO HORIZONTE - COMARCA; DIR CONTEUDO JORNALISTICO 11.008,33 2.201,67 0,00 0,00 0,00 0,00 7.011,87 1.911,00 22.132,87 1.906,81 4.167,28 0,00 0,00 6.074,09 16.058,78 30/11/2022
261 637200 ANDRE FERNANDES DA CUNHA OFICIAL DO MP MORADA NOVA DE MINAS - COMARCA; MORADA NOVA DE MINAS-PJ-UNPJ 6.483,63 648,36 0,00 0,00 0,00 0,00 0,00 1.911,00 9.042,99 927,17 836,97 0,00 0,00 1.764,14 7.278,85 30/11/2022
262 651500 ANDRE GONCALVES MARANHAO OFICIAL DO MP ANDRADAS - COMARCA; ANDRADAS-PJ-02PJ 5.266,66 526,67 0,00 0,00 0,00 0,00 0,00 1.911,00 7.704,33 729,60 523,17 0,00 0,00 1.252,77 6.451,56 30/11/2022
263 521900 ANDRE LUIS GOMES SILVA ANALISTA DO MP FORMIGA - COMARCA; FORMIGA-PJ-02PJ 11.008,33 2.201,67 0,00 0,00 0,00 0,00 0,00 3.681,60 16.891,60 1.906,81 1.740,49 0,00 0,00 3.647,30 13.244,30 30/11/2022
264 304300 ANDRE LUIZ AVELAR ANALISTA DO MP BELO HORIZONTE - COMARCA; DIRETORIA DE REDES E BANCOS DE DADOS 9.223,00 2.766,90 0,00 0,00 0,00 0,00 0,00 1.911,00 13.900,90 1.711,60 1.905,04 0,00 0,00 3.616,64 10.284,26 30/11/2022
265 397400 ANDRE PATARO MYRRHA DE PAULA E SILVA ANALISTA DO MP BELO HORIZONTE - COMARCA; ASSESSORIA JURIDICO-ADMINISTRATIVA 16.169,47 3.233,89 0,00 0,00 0,00 0,00 0,00 2.796,30 22.199,66 2.897,75 3.669,68 0,00 0,00 6.567,43 15.632,23 30/11/2022
266 650100 ANDRE THOME VARGAS OFICIAL DO MP LEOPOLDINA - COMARCA; LEOPOLDINA-PJ-04PJ 5.703,71 570,37 0,00 0,00 0,00 0,00 0,00 1.911,00 8.185,08 801,71 635,54 0,00 0,00 1.437,25 6.747,83 30/11/2022
267 548500 ANDRE VINICIUS CARVALHO MEIRA ANALISTA DO MP JUIZ DE FORA - COMARCA; JUIZ DE FORA-PJ-24PJ 11.008,33 1.100,83 0,00 0,00 0,00 0,00 0,00 1.911,00 14.020,16 927,17 2.102,11 0,00 0,00 3.029,28 10.990,88 30/11/2022
268 297200 ANDRE WILLE ROSARIO ANALISTA DO MP BELO HORIZONTE - COMARCA; ASSESSORIA ESPECIAL DO PGJ 20.574,59 6.172,38 0,00 0,00 0,00 0,00 0,00 1.911,00 28.657,97 4.072,73 5.261,78 0,00 0,00 9.334,51 19.323,46 30/11/2022
269 423600 ANDREA COSTA GUALBERTO ALVES ANALISTA DO MP GOVERNADOR VALADARES - COMARCA; COORD REG PJ DEF EDU DIR CRIANCA ADOL RIODOCE 15.659,55 10.961,69 0,00 0,00 0,00 4.052,61 0,00 1.911,00 32.584,85 4.052,61 6.399,34 0,00 0,00 10.451,95 22.132,90 30/11/2022
270 467300 ANDREA DE CASSIA PENNA ALVERNAZ ANALISTA DO MP PONTE NOVA - COMARCA; PONTE NOVA-PJ-01PJ 11.008,33 2.201,67 0,00 0,00 0,00 0,00 0,00 1.911,00 15.121,00 1.906,81 2.186,88 0,00 0,00 4.093,69 11.027,31 30/11/2022
271 308000 ANDREA DE CASSIA SANTOS OLIVEIRA ANALISTA DO MP BELO HORIZONTE - COMARCA; COORD DE GABINETE DO PGJ 19.791,01 5.937,30 0,00 0,00 0,00 0,00 0,00 1.911,00 27.639,31 3.909,74 5.078,61 0,00 0,00 8.988,35 18.650,96 30/11/2022
272 349500 ANDREA DE OLIVEIRA LOIOLA REGIS OFICIAL DO MP IGUATAMA - COMARCA; IGUATAMA-PJ-UNPJ 11.008,33 3.302,50 0,00 0,00 0,00 0,00 0,00 1.911,00 16.221,83 2.082,95 2.389,03 0,00 0,00 4.471,98 11.749,85 30/11/2022
273 287900 ANDREA FERNANDES PENA MARTINS OFICIAL DO MP MONTES CLAROS - COMARCA; MONTES CLAROS-PJ-09PJ 11.008,33 3.302,50 0,00 0,00 0,00 0,00 0,00 1.911,00 16.221,83 2.082,95 2.389,03 0,00 0,00 4.471,98 11.749,85 30/11/2022
274 300800 ANDREA FERREIRA ANALISTA DO MP LAVRAS - COMARCA; LAVRAS-PJ-04PJ 19.037,29 5.711,19 0,00 0,00 0,00 0,00 0,00 1.911,00 26.659,48 3.752,97 4.904,41 0,00 0,00 8.657,38 18.002,10 30/11/2022
275 395100 ANDREA LANNA MENDES NOVAIS ANALISTA DO MP BELO HORIZONTE - COMARCA; PROMOT ESTADUAL DE DEF PATRI CULT E TUR DE MG 16.695,70 3.339,14 0,00 0,00 0,00 0,00 0,00 1.911,00 21.945,84 2.998,79 3.763,42 0,00 0,00 6.762,21 15.183,63 30/11/2022
276 67300 ANDREA LEAO MAGALHAES ROQUE ASSESSOR ADMINISTRATIVO IV BELO HORIZONTE - COMARCA; COORD ESTADUAL COMBATE CRIMES CIBERNETICOS 0,00 9.044,67 12.920,95 0,00 0,00 0,00 0,00 1.911,00 23.876,62 828,38 5.257,82 0,00 0,00 6.086,20 17.790,42 30/11/2022
277 335700 ANDREA LOPES PEREIRA ANALISTA DO MP GOVERNADOR VALADARES - COMARCA; COORD REG DO MA DA BACIA DO RIO DOCE 19.037,29 5.711,19 0,00 0,00 0,00 0,00 0,00 1.911,00 26.659,48 3.752,97 4.904,41 0,00 0,00 8.657,38 18.002,10 30/11/2022
278 419000 ANDREIA BARBOSA DE ALMEIDA ANALISTA DO MP BELO HORIZONTE - COMARCA; SUPER DE RECURSOS HUMANOS-COOP REMOTA 15.659,55 3.131,91 0,00 0,00 0,00 0,00 0,00 1.911,00 20.702,46 2.799,85 3.528,33 0,00 0,00 6.328,18 14.374,28 30/11/2022
279 281501 ANDREIA CARLA COSTA ANALISTA DO MP UBÁ - COMARCA; UBA-PJ-02PJ 16.169,47 3.233,89 0,00 0,00 0,00 0,00 0,00 1.911,00 21.314,36 2.897,75 3.669,68 0,00 0,00 6.567,43 14.746,93 30/11/2022
280 477100 ANDREIA DE ALMEIDA RIBEIRO MELO OFICIAL DO MP CONTAGEM - COMARCA; CONTAGEM-PJ-SECRETARIA 8.650,50 1.730,10 0,00 0,00 0,00 0,00 0,00 1.911,00 12.291,60 1.454,11 1.585,42 0,00 0,00 3.039,53 9.252,07 30/11/2022
281 619000 ANDREIA FERREIRA NORONHA COORDENADOR II BELO HORIZONTE - COMARCA; DIRETORIA DE SERVICO CRIMINAL 18.312,36 1.831,24 0,00 0,00 0,00 0,00 0,00 1.911,00 22.054,60 971,47 4.402,97 0,00 0,00 5.374,44 16.680,16 30/11/2022
282 424000 ANDREIA LUCIA COUTO ANALISTA DO MP BELO HORIZONTE - COMARCA; BH-18PJ DIREITOS HUMANOS-SECRETARIA 16.169,47 3.233,89 0,00 0,00 0,00 0,00 0,00 1.911,00 21.314,36 2.897,75 3.669,68 0,00 0,00 6.567,43 14.746,93 30/11/2022
283 370100 ANDREIA MARIA SILVA PINTO OFICIAL DO MP CORONEL FABRICIANO - COMARCA; CORONEL FABRICIANO-PJ-01PJ 11.008,33 3.302,50 0,00 0,00 0,00 0,00 0,00 2.796,30 17.107,13 927,17 2.662,16 0,00 0,00 3.589,33 13.517,80 30/11/2022
284 382100 ANDREIA NATALI PEREIRA DE OLIVEIRA OFICIAL DO MP PRADOS - COMARCA; PRADOS-PJ-UNPJ 11.008,33 2.201,67 0,00 0,00 0,00 0,00 0,00 1.911,00 15.121,00 1.906,81 2.239,02 0,00 0,00 4.145,83 10.975,17 30/11/2022
285 275200 ANDREIA RIBEIRO FREITAS OFICIAL DO MP VIÇOSA - COMARCA; VICOSA-PJ-04PJ 11.366,79 3.410,04 0,00 0,00 0,00 0,00 0,00 1.911,00 16.687,83 2.157,51 2.548,82 0,00 0,00 4.706,33 11.981,50 30/11/2022
286 352200 ANDREIA XAVIER PEREIRA OFICIAL DO MP CLÁUDIO - COMARCA; CLAUDIO-PJ-UNPJ 11.008,33 3.302,50 0,00 0,00 0,00 0,00 0,00 3.238,95 17.549,78 2.082,95 2.493,31 0,00 0,00 4.576,26 12.973,52 30/11/2022
287 638500 ANDRESA ALVES FEITOSA CASAGRANDE ANALISTA DO MP LAVRAS - COMARCA; COORD REG DO MA DA BACIA DO RIO GRANDE 9.999,62 999,96 0,00 0,00 0,00 0,00 0,00 1.911,00 12.910,58 927,17 1.900,55 0,00 0,00 2.827,72 10.082,86 30/11/2022
288 383700 ANDRESSA EDUARDO SOUZA ANALISTA DO MP OURO BRANCO - COMARCA; OURO BRANCO-PJ-SECRETARIA 16.169,47 3.233,89 0,00 0,00 0,00 0,00 0,00 2.796,30 22.199,66 2.897,75 3.669,68 0,00 0,00 6.567,43 15.632,23 30/11/2022
289 678400 ANDRESSA LUIZA SILVA LOPES ASSESSOR PROMOTOR JUSTICA CARMO DO PARANAÍBA - COMARCA; CARMO DO PARANAIBA-PJ-02PJ 0,00 0,00 7.857,77 0,00 0,00 0,00 0,00 1.911,00 9.768,77 828,38 1.430,30 0,00 0,00 2.258,68 7.510,09 30/11/2022
290 426200 ANDRESSA MENDES CASAL OFICIAL DO MP BELO HORIZONTE - COMARCA; DIR ESTRUTURA E PROCESSOS ORGANIZACIONAIS 8.650,50 1.730,10 0,00 0,00 0,00 0,00 0,00 2.796,30 13.176,90 1.454,11 1.533,29 0,00 0,00 2.987,40 10.189,50 30/11/2022
291 390100 ANDRESSA RIBEIRO PUCCI OFICIAL DO MP UBERABA - COMARCA; UBERABA-PJ-14PJ 8.377,76 1.675,55 0,00 0,00 0,00 0,00 0,00 1.911,00 11.964,31 1.401,74 1.509,82 0,00 0,00 2.911,56 9.052,75 30/11/2022
292 462500 ANDREZA APARECIDA COSTA E SILVA ANALISTA DO MP CONSELHEIRO LAFAIETE - COMARCA; CONSELHEIRO LAFAIETE-PJ-02PJ 11.008,33 2.201,67 0,00 0,00 0,00 0,00 0,00 1.911,00 15.121,00 927,17 2.382,14 0,00 0,00 3.309,31 11.811,69 30/11/2022
293 677700 ANDREZA DE LOURDES FERREIRA DE PAIVA ASSESSOR PROMOTOR JUSTICA ABRE CAMPO - COMARCA; ABRE CAMPO-PJ-01PJ 0,00 0,00 7.857,77 0,00 0,00 0,00 0,00 1.911,00 9.768,77 828,38 1.430,30 0,00 0,00 2.258,68 7.510,09 30/11/2022
294 537800 ANDREZZA LUZIA DE OLIVEIRA ALVES ANALISTA DO MP PATOS DE MINAS - COMARCA; COORD REG PJ DEF EDU DIR CRI ADO AL PAR NOROE 11.008,33 1.100,83 0,00 0,00 0,00 0,00 0,00 1.911,00 14.020,16 1.730,68 1.932,58 0,00 0,00 3.663,26 10.356,90 30/11/2022
295 491600 ANE PATRICIA RIBEIRO DUARTE ANALISTA DO MP SETE LAGOAS - COMARCA; SETE LAGOAS-PJ-11PJ 11.008,33 2.201,67 0,00 0,00 0,00 0,00 0,00 1.911,00 15.121,00 1.906,81 2.186,88 0,00 0,00 4.093,69 11.027,31 30/11/2022
296 465800 ANELISE GAMA ASSESSOR ADMINISTRATIVO III BELO HORIZONTE - COMARCA; BH-18PJ VIOLENCIA DOMESTICA-SECRETARIA 0,00 0,00 9.684,23 0,00 3.228,08 0,00 0,00 1.911,00 14.823,31 828,38 2.820,30 0,00 0,00 3.648,68 11.174,63 30/11/2022
297 535200 ANELIZE FERNANDA ALVES VILARINHO OFICIAL DO MP CAPINÓPOLIS - COMARCA; CAPINOPOLIS-PJ-UNPJ 6.694,66 669,47 0,00 0,00 0,00 0,00 0,00 2.855,32 10.219,45 971,47 888,62 0,00 0,00 1.860,09 8.359,36 30/11/2022
298 197200 ANGELA COELHO SALDANHA OFICIAL DO MP PARÁ DE MINAS - COMARCA; PARA DE MINAS-PJ-03PJ 19.037,29 7.614,92 0,00 0,00 0,00 0,00 0,00 1.911,00 28.563,21 4.057,57 5.344,17 0,00 0,00 9.401,74 19.161,47 30/11/2022
299 307400 ANGELA CRISTINA GONCALVES MUNIZ ANALISTA DO MP UBERLÂNDIA - COMARCA; UBERLANDIA-PJ-SEC FAMILIA 20.574,59 8.229,84 0,00 0,00 0,00 0,00 0,00 1.911,00 30.715,43 4.401,92 5.737,06 0,00 0,00 10.138,98 20.576,45 30/11/2022
300 191800 ANGELA MARIA DE OLIVEIRA OFICIAL DO MP GUARANÉSIA - COMARCA; GUARANESIA-PJ-SECRETARIA 19.037,29 13.326,11 0,00 0,00 0,00 4.971,36 0,00 1.911,00 39.245,76 4.971,36 8.030,58 0,00 0,00 13.001,94 26.243,82 30/11/2022
301 497400 ANGELA MARIA HENRIQUES ANALISTA DO MP BELO HORIZONTE - COMARCA; COORD REG BACIAS RIO VELHAS E PARAOPEBA 11.008,33 2.201,67 0,00 0,00 0,00 0,00 0,00 1.911,00 15.121,00 1.906,81 2.239,02 0,00 0,00 4.145,83 10.975,17 30/11/2022
302 260700 ANGELICA CRISTINA AZEVEDO MOREIRA MOUCO OFICIAL DO MP UBÁ - COMARCA; UBA-PJ-05PJ 14.224,47 4.267,34 0,00 0,00 0,00 0,00 0,00 1.911,00 20.402,81 2.751,90 3.459,11 0,00 0,00 6.211,01 14.191,80 30/11/2022
303 708300 ANGELICA NUNES VIEIRA DA SILVA ASSESSOR PROMOTOR JUSTICA IBIRITÉ - COMARCA; IBIRITE-PJ-02PJ 0,00 0,00 7.857,77 0,00 0,00 0,00 0,00 1.911,00 9.768,77 828,38 1.430,30 0,00 0,00 2.258,68 7.510,09 30/11/2022
304 334600 ANGELICA PANISSA DE FREITAS GALLATI OFICIAL DO MP GUAXUPÉ - COMARCA; GUAXUPE-PJ-02PJ 11.008,33 3.302,50 0,00 0,00 0,00 0,00 0,00 2.796,30 17.107,13 2.082,95 2.441,17 0,00 0,00 4.524,12 12.583,01 30/11/2022
305 521100 ANGELICA SALES MOREIRA OFICIAL DO MP BELO HORIZONTE - COMARCA; BH-02PJ FAMILIA-SECRETARIA 8.377,76 1.675,55 0,00 0,00 0,00 0,00 0,00 1.911,00 11.964,31 1.401,74 1.509,82 0,00 0,00 2.911,56 9.052,75 30/11/2022
306 466500 ANGELLO MARQUES AGRELLI ANALISTA DO MP MAR DE ESPANHA - COMARCA; MAR DE ESPANHA-PJ-UNPJ 11.008,33 2.201,67 0,00 0,00 0,00 0,00 0,00 1.911,00 15.121,00 1.906,81 2.239,02 0,00 0,00 4.145,83 10.975,17 30/11/2022
307 363300 ANGELO VERDOLIN HENRIQUES ANALISTA DO MP SETE LAGOAS - COMARCA; SETE LAGOAS-PJ-04PJ 18.312,36 7.324,94 0,00 0,00 0,00 0,00 0,00 1.911,00 27.548,30 3.895,18 5.109,72 0,00 0,00 9.004,90 18.543,40 30/11/2022
308 250900 ANISIO APARECIDO SANTOS OFICIAL DO MP BETIM - COMARCA; BETIM - SECRETARIA DAS PJS CRIMINAIS 6.658,21 2.677,86 0,00 0,00 0,00 0,00 0,00 1.911,00 11.247,07 1.292,82 733,29 0,00 0,00 2.026,11 9.220,96 30/11/2022
309 698100 ANNA CAROLINA POLICARIO BERTOLIN ASSESSOR PROCURADOR JUSTICA BELO HORIZONTE - COMARCA; PROC. JUSTICA DIR. DIFUSOS E COLETIVOS-SEC 0,00 0,00 7.857,77 0,00 0,00 0,00 940,00 1.911,00 10.708,77 828,38 1.430,30 0,00 0,00 2.258,68 8.450,09 30/11/2022
310 253400 ANNA FLAVIA LEHMAN ANALISTA DO MP BELO HORIZONTE - COMARCA; SUPRIN DE PLANEJAMENTO E COORDENACAO 20.574,59 6.172,38 7.494,88 0,00 0,00 0,00 0,00 1.911,00 36.152,85 4.072,73 7.270,74 0,00 0,00 11.343,47 24.809,38 30/11/2022
311 688800 ANNA LUIZA MATTOS DUARTE ASSESSOR PROCURADOR JUSTICA BELO HORIZONTE - COMARCA; GABINETE DE PROCURADOR DE JUSTICA - SALA 311 0,00 0,00 7.857,77 0,00 0,00 0,00 0,00 1.911,00 9.768,77 828,38 1.430,30 0,00 0,00 2.258,68 7.510,09 30/11/2022
312 447600 ANNGELUCE ALCANTARA DE CAMPOS OFICIAL DO MP DIVINÓPOLIS - COMARCA; DIVINOPOLIS-PJ-SECRETARIA 8.932,15 2.679,65 0,00 0,00 0,00 0,00 0,00 1.911,00 13.522,80 1.651,10 1.869,83 0,00 0,00 3.520,93 10.001,87 30/11/2022
313 119600 ANSELMO BORGES PARREIRAS OFICIAL DO MP BONFIM - COMARCA; BONFIM-PJ-UNPJ 9.684,23 8.715,81 0,00 0,00 0,00 2.737,22 0,00 1.911,00 23.048,26 2.737,22 4.138,51 0,00 0,00 6.875,73 16.172,53 30/11/2022
314 630300 ANTONIA GOMES RAMALHO OFICIAL DO MP NOVO CRUZEIRO - COMARCA; NOVO CRUZEIRO-PJ-UNPJ 6.483,63 648,36 0,00 0,00 0,00 0,00 0,00 3.681,60 10.813,59 934,33 835,00 0,00 0,00 1.769,33 9.044,26 30/11/2022
315 401600 ANTONIO CARLOS GUEDES AROUCA ANALISTA DO MP BELO HORIZONTE - COMARCA; ASSESSORIA JURIDICO-ADMINISTRATIVA 14.687,60 2.937,52 0,00 0,00 0,00 0,00 0,00 1.911,00 19.536,12 2.613,23 3.258,91 0,00 0,00 5.872,14 13.663,98 30/11/2022
316 333900 ANTONIO GONCALVES DE SOUZA FILHO OFICIAL DO MP BELO HORIZONTE - COMARCA; DIRETORIA DE CONTABILIDADE 11.008,33 3.302,50 0,00 0,00 0,00 0,00 0,00 1.911,00 16.221,83 2.082,95 2.493,31 0,00 0,00 4.576,26 11.645,57 30/11/2022
317 176100 ANTONIO MARCELO CAMPOS CAMPANELLA OFICIAL DO MP BELO HORIZONTE - COMARCA; COORD DE GABINETE DO PGJ 19.037,29 9.518,65 0,00 0,00 0,00 0,00 0,00 1.911,00 30.466,94 4.362,16 5.783,93 0,00 0,00 10.146,09 20.320,85 30/11/2022
318 321001 ANTONIO OLINTO VIEIRA MACHADO ANALISTA DO MP BELO HORIZONTE - COMARCA; CENTRAL DE APOIO TECN-SETOR DE MEIO AMBIENTE 16.695,70 3.339,14 0,00 0,00 0,00 5.413,58 0,00 1.911,00 27.359,42 2.998,79 5.200,01 0,00 0,00 8.198,80 19.160,62 30/11/2022
319 356200 ANTONIO PAULA DA SILVA OFICIAL DO MP JUIZ DE FORA - COMARCA; JUIZ DE FORA-PJ-20PJ 10.661,25 4.264,50 0,00 0,00 0,00 0,00 0,00 1.911,00 16.836,75 2.181,33 2.635,35 0,00 0,00 4.816,68 12.020,07 30/11/2022
320 119900 ANTONIO RODRIGUES DE PINHO OFICIAL DO MP GUANHÃES - COMARCA; GUANHAES-PJ-01PJ 18.312,36 12.818,65 0,00 0,00 0,00 0,00 0,00 1.911,00 33.042,01 4.774,18 6.274,50 0,00 0,00 11.048,68 21.993,33 30/11/2022
321 373300 ANTONIO SERGIO ANANIAS OFICIAL DO MP SÃO JOÃO NEPOMUCENO - COMARCA; SAO JOAO NEPOMUCENO-PJ-01PJ 9.684,23 1.936,85 0,00 0,00 0,00 0,00 0,00 1.911,00 13.532,08 927,17 2.019,33 0,00 0,00 2.946,50 10.585,58 30/11/2022
322 608100 ANTONIO SIDINEY VIEIRA LEMOS ANALISTA DO MP PIRAPORA - COMARCA; PIRAPORA-PJ-01PJ 10.325,15 4.130,06 0,00 0,00 0,00 0,00 0,00 2.796,30 17.251,51 2.106,05 2.474,52 0,00 0,00 4.580,57 12.670,94 30/11/2022
323 374700 ANTONIO SILVA NETO OFICIAL DO MP BELO HORIZONTE - COMARCA; BH-12PJ JUIZO CRIMINAL-SECRETARIA 9.999,62 1.999,92 0,00 0,00 0,00 0,00 0,00 2.796,30 14.795,84 1.713,14 1.959,40 0,00 0,00 3.672,54 11.123,30 30/11/2022
324 636700 ANTONIUS VITORIANO FERNANDES OFICIAL DO MP BELO HORIZONTE - COMARCA; ASSESSORIA JURIDICA DO PROCON-MG 5.889,39 588,94 0,00 0,00 0,00 0,00 0,00 1.911,00 8.389,33 832,79 683,16 0,00 0,00 1.515,95 6.873,38 30/11/2022
325 413200 ANY PEREIRA SILVA ANALISTA DO MP TRÊS PONTAS - COMARCA; TRES PONTAS-PJ-01PJ 14.224,47 2.844,89 0,00 0,00 0,00 0,00 0,00 1.911,00 18.980,36 2.524,31 3.130,53 0,00 0,00 5.654,84 13.325,52 30/11/2022
326 151401 APARECIDA DE FATIMA MENDES DE ALMEIDA ASSESSOR ADMINISTRATIVO II JUIZ DE FORA - COMARCA; JUIZ DE FORA-PJ-SECRETARIA 0,00 0,00 6.694,66 0,00 0,00 0,00 0,00 1.911,00 8.605,66 828,38 1.110,44 0,00 0,00 1.938,82 6.666,84 30/11/2022
327 329300 APARECIDA MARIA MELO DE ASSIS OFICIAL DO MP BELO HORIZONTE - COMARCA; BH-18PJ DIREITOS HUMANOS-SECRETARIA 11.008,33 3.302,50 0,00 0,00 0,00 0,00 0,00 1.911,00 16.221,83 2.082,95 2.493,31 0,00 0,00 4.576,26 11.645,57 30/11/2022
328 475300 APARECIDA MARLENE FREIRE ROSA ANALISTA DO MP BELO HORIZONTE - COMARCA; BH-02PJ FAMILIA-SECRETARIA 14.224,47 14.224,48 0,00 0,00 0,00 4.572,64 1.422,45 1.911,00 36.355,04 4.572,64 7.345,28 0,00 0,00 11.917,92 24.437,12 30/11/2022
329 653000 APARECIDA ROSA DE LIMA ASSESSOR ADMINISTRATIVO III BELO HORIZONTE - COMARCA; SECRETARIA PROCESSOS DISCIPES ADMINISTRATIVOS 0,00 0,00 9.684,23 0,00 0,00 0,00 0,00 1.911,00 11.595,23 828,38 1.932,57 0,00 0,00 2.760,95 8.834,28 30/11/2022
330 354500 APARECIDA VIEIRA DE CARVALHO OFICIAL DO MP BELO HORIZONTE - COMARCA; DIVISÃO DE EDUCAÇÃO PARA O CONSUMO 9.378,86 2.813,66 0,00 0,00 0,00 0,00 0,00 1.911,00 14.103,52 1.744,02 2.003,98 0,00 0,00 3.748,00 10.355,52 30/11/2022
331 551000 ARACELES BICALHO FELIX ANALISTA DO MP MANHUAÇU - COMARCA; MANHUACU-PJ-SECRETARIA 11.008,33 1.100,83 0,00 0,00 0,00 0,00 0,00 3.475,03 15.584,19 1.730,68 1.984,72 0,00 0,00 3.715,40 11.868,79 30/11/2022
332 286200 ARACELI MEDRADO DOS SANTOS LIMA OFICIAL DO MP PARACATU - COMARCA; PARACATU-PJ-03PJ 6.694,66 2.008,40 0,00 0,00 0,00 0,00 0,00 1.911,00 10.614,06 1.185,70 1.197,91 0,00 0,00 2.383,61 8.230,45 30/11/2022
333 112200 ARAQUEM AUGUSTO DE MATOS AGENTE DO MP BELO HORIZONTE - COMARCA; BH-23PJ CIVEL-SEC EXP CIVEIS 11.366,79 10.230,12 0,00 0,00 0,00 3.248,72 0,00 1.911,00 26.756,63 3.248,72 4.965,52 0,00 0,00 8.214,24 18.542,39 30/11/2022
334 280600 ARDUINO FRATTEZI ANALISTA DO MP BELO HORIZONTE - COMARCA; CENTRAL DE APOIO TECNICO-SETOR CONTABIL 20.574,59 6.172,38 0,00 0,00 0,00 0,00 0,00 1.911,00 28.657,97 4.072,73 5.366,06 0,00 0,00 9.438,79 19.219,18 30/11/2022
335 520201 ARIANE DE FATIMA CARVALHO ALMEIDA RODRIGUES ANALISTA DO MP VESPASIANO - COMARCA; VESPASIANO-PJ-SECRETARIA 10.325,15 1.032,52 0,00 0,00 0,00 0,00 0,00 3.238,95 14.596,62 1.610,44 1.654,72 0,00 0,00 3.265,16 11.331,46 30/11/2022
336 537600 ARIELA FREIRE MONTIJO ANALISTA DO MP ARCOS - COMARCA; ARCOS-PJ-01PJ 11.008,33 1.100,83 0,00 0,00 0,00 0,00 0,00 1.911,00 14.020,16 1.730,68 1.880,45 0,00 0,00 3.611,13 10.409,03 30/11/2022
337 182000 ARILSON ALEXANDRE MARTINS MAGALHAES OFICIAL DO MP JOÃO MONLEVADE - COMARCA; JOAO MONLEVADE-PJ-01PJ 16.695,70 8.347,85 0,00 0,00 0,00 0,00 0,00 5.009,55 30.053,10 3.800,18 4.711,88 0,00 0,00 8.512,06 21.541,04 30/11/2022
338 511000 ARISLANE CAROLINA DA SILVA ANALISTA DO MP MONTE CARMELO - COMARCA; MONTE CARMELO-PJ-02PJ 11.008,33 2.201,67 0,00 0,00 0,00 0,00 0,00 3.681,60 16.891,60 1.906,81 2.239,02 0,00 0,00 4.145,83 12.745,77 30/11/2022
339 170000 ARLEY BRITES DA SILVA ASSESSOR ADMINISTRATIVO II BELO HORIZONTE - COMARCA; BH-14PJ DEFESA CONSUMIDOR-SECRETARIA 0,00 2.677,86 6.694,66 0,00 0,00 0,00 670,00 1.911,00 11.953,52 828,38 1.207,65 0,00 0,00 2.036,03 9.917,49 30/11/2022
340 120400 ARLINDO CASSIO DA CRUZ OFICIAL DO MP SÃO GONÇALO DO SAPUCAÍ - COMARCA; SAO GONCALO DO SAPUCAI-PJ-01PJ 20.574,59 16.459,68 0,00 0,00 0,00 5.467,17 0,00 1.911,00 44.412,44 5.467,17 8.778,48 1.572,05 0,00 15.817,70 28.594,74 30/11/2022
341 243700 ARLINDO MARCIO LACERDA OFICIAL DO MP CONTAGEM - COMARCA; CONTAGEM-PJ-SECRETARIA 15.659,55 6.263,82 0,00 0,00 0,00 0,00 1.580,00 1.911,00 25.414,37 3.300,95 4.686,30 0,00 0,00 7.987,25 17.427,12 30/11/2022
342 392100 ARNALDO DE ANDRADE OFICIAL DO MP DIVINÓPOLIS - COMARCA; DIVINOPOLIS-PJ-02PJ 11.008,33 2.201,67 0,00 0,00 0,00 0,00 1.580,00 2.796,30 17.586,30 1.906,81 2.621,38 0,00 0,00 4.528,19 13.058,11 30/11/2022
343 642400 ARTANE INARDE DE SIQUEIRA DAMASCENO ANALISTA DO MP BELO HORIZONTE - COMARCA; SECRETARIA DE ASSUNTOS INTERNACIONAIS 8.932,15 893,22 0,00 0,00 0,00 0,00 0,00 1.911,00 11.736,37 927,17 1.521,17 0,00 0,00 2.448,34 9.288,03 30/11/2022
344 712100 ARTUR FONTE BOA TEOFILO ASSESSOR ADMINISTRATIVO I BELO HORIZONTE - COMARCA; DIRET DE ESTAGIOS E CONVENIOS ACADEMICOS 0,00 0,00 4.345,58 0,00 0,00 0,00 670,00 1.911,00 6.926,58 631,17 518,68 0,00 0,00 1.149,85 5.776,73 30/11/2022
345 302100 AUGUSTO ROUSSEAU DE CASTRO ANALISTA DO MP CATAGUASES - COMARCA; CATAGUASES-PJ-02PJ 20.574,59 6.172,38 0,00 0,00 0,00 0,00 0,00 1.911,00 28.657,97 4.072,73 5.366,06 0,00 0,00 9.438,79 19.219,18 30/11/2022
346 540200 AUREA AVELAR BITTENCOURT OFICIAL DO MP BELO HORIZONTE - COMARCA; GRUPO ESP PROM JUST DEF PROB ADM PAT PUB 6.694,66 669,47 0,00 0,00 0,00 0,00 0,00 1.911,00 9.275,13 927,17 846,00 0,00 0,00 1.773,17 7.501,96 30/11/2022
347 633501 AUREA GONTIJO BIRCHAL ASSESSOR DE GABINETE I BELO HORIZONTE - COMARCA; PROCURADOR-GERAL DE JUSTIÇA 0,00 0,00 16.169,47 0,00 0,00 0,00 0,00 1.911,00 18.080,47 828,38 3.716,01 0,00 0,00 4.544,39 13.536,08 30/11/2022
348 183200 AURELIANO MAGELA DE REZENDE OFICIAL DO MP BELO HORIZONTE - COMARCA; COORD DE GABINETE DO PGJ 17.614,89 7.045,96 5.493,71 0,00 0,00 0,00 0,00 1.911,00 32.065,56 3.738,95 6.394,93 0,00 0,00 10.133,88 21.931,68 30/11/2022
349 629400 AYESKA DA COSTA VAL MOURA DABIEN OFICIAL DO MP BELO HORIZONTE - COMARCA; BH-09PJ AUDITORIA MILITAR-SECRETARIA 5.889,39 588,94 0,00 0,00 0,00 0,00 0,00 1.911,00 8.389,33 832,79 683,16 0,00 0,00 1.515,95 6.873,38 30/11/2022
350 707400 AYMEE JOHANSSENN TYNEE CORREIA ALVES ASSESSOR PROMOTOR JUSTICA NOVA LIMA - COMARCA; NOVA LIMA-PJ-01PJ 0,00 0,00 7.857,77 0,00 0,00 0,00 0,00 1.911,00 9.768,77 828,38 1.430,30 0,00 0,00 2.258,68 7.510,09 30/11/2022
351 701600 BARBARA CHAVES OLIVEIRA ASSESSOR PROCURADOR JUSTICA BELO HORIZONTE - COMARCA; PROC. JUSTICA DIR. DIFUSOS E COLETIVOS-SEC 0,00 0,00 7.857,77 0,00 0,00 0,00 940,00 1.911,00 10.708,77 828,38 1.430,30 0,00 0,00 2.258,68 8.450,09 30/11/2022
352 691900 BARBARA COUTINHO REIS ASSESSOR PROCURADOR JUSTICA BELO HORIZONTE - COMARCA; GABINETE DE PROCURADOR DE JUSTIÇA - SALA 910 0,00 0,00 7.857,77 0,00 0,00 0,00 0,00 1.911,00 9.768,77 828,38 1.430,30 0,00 0,00 2.258,68 7.510,09 30/11/2022
353 692200 BARBARA CRISTINA MENDES BANDEIRA DE MELO DUTRA ASSESSOR PROCURADOR JUSTICA BELO HORIZONTE - COMARCA; GABINETE DE PROCURADOR DE JUSTIÇA - SALA 1009 0,00 0,00 7.857,77 0,00 0,00 0,00 0,00 1.911,00 9.768,77 828,38 1.430,30 0,00 0,00 2.258,68 7.510,09 30/11/2022
354 723400 BARBARA CRISTINA TAVARES CARNEIRO ASSESSOR PROCURADOR JUSTICA BELO HORIZONTE - COMARCA; GABINETE DE PROCURADOR DE JUSTIÇA - SALA 502 0,00 0,00 7.857,77 0,00 0,00 0,00 0,00 1.911,00 9.768,77 828,38 1.430,30 0,00 0,00 2.258,68 7.510,09 30/11/2022
355 727200 BARBARA FERNANDES AMARAL ASSESSOR PROMOTOR JUSTICA GOVERNADOR VALADARES - COMARCA; GOVERNADOR VALADARES-PJ-SECRETARIA 0,00 0,00 7.857,77 0,00 0,00 0,00 0,00 1.911,00 9.768,77 828,38 1.430,30 0,00 0,00 2.258,68 7.510,09 30/11/2022
356 652800 BARBARA JULIANNE MOREIRA CASTRO ASSESSOR PROCURADOR JUSTICA BELO HORIZONTE - COMARCA; ASSESS TECNICO-JUR JUNTO AS PROC. DE JUST 0,00 0,00 7.857,77 0,00 0,00 0,00 0,00 1.911,00 9.768,77 828,38 1.430,30 0,00 0,00 2.258,68 7.510,09 30/11/2022
357 707700 BARBARA LOUISE PUFF DE OLIVEIRA ASSESSOR PROMOTOR JUSTICA RIBEIRÃO DAS NEVES - COMARCA; RIBEIRAO DAS NEVES-PJ-02PJ 0,00 0,00 7.857,77 0,00 0,00 0,00 0,00 1.911,00 9.768,77 828,38 1.430,30 0,00 0,00 2.258,68 7.510,09 30/11/2022
358 663600 BARBARA REGINA PEREIRA DE PINHO MAGALHAES ASSESSOR PROMOTOR JUSTICA BELO HORIZONTE - COMARCA; CAO-DH CONT EXT ATIV POLIC E AP COMUNIT 0,00 0,00 7.857,77 0,00 0,00 0,00 0,00 1.911,00 9.768,77 828,38 1.430,30 0,00 0,00 2.258,68 7.510,09 30/11/2022
359 692400 BARBARA SOUZA OLIVEIRA ASSESSOR PROMOTOR JUSTICA DIVINO - COMARCA; DIVINO-PJ-UNPJ 0,00 0,00 7.857,77 0,00 0,00 0,00 0,00 1.911,00 9.768,77 828,38 1.430,30 0,00 0,00 2.258,68 7.510,09 30/11/2022
360 546500 BARBARA ZACARONI GOULART OFICIAL DO MP BETIM - COMARCA; BETIM-PJ-08PJ 6.694,66 669,47 0,00 0,00 0,00 0,00 0,00 1.911,00 9.275,13 971,47 888,62 0,00 0,00 1.860,09 7.415,04 30/11/2022
361 316500 BEATRIZ ABILVIA DA SILVA ANALISTA DO MP GOVERNADOR VALADARES - COMARCA; GOVERNADOR VALADARES-PJ-07PJ 19.791,01 5.937,30 0,00 0,00 0,00 0,00 0,00 1.911,00 27.639,31 3.909,74 5.130,75 0,00 0,00 9.040,49 18.598,82 30/11/2022
362 311800 BEATRIZ APARECIDA SOARES GANEM OFICIAL DO MP ITAMBACURI - COMARCA; ITAMBACURI-PJ-02PJ 12.118,97 4.847,59 0,00 0,00 0,00 0,00 0,00 1.911,00 18.877,56 2.507,86 2.950,37 0,00 0,00 5.458,23 13.419,33 30/11/2022
363 266800 BEATRIZ AUGUSTA VILACA GOMES DE HUBER OFICIAL DO MP BELO HORIZONTE - COMARCA; BH-05PJ-JUÍZO SUCESSÕES-SEC 11.008,33 3.302,50 0,00 0,00 0,00 0,00 0,00 1.911,00 16.221,83 2.082,95 2.493,31 0,00 0,00 4.576,26 11.645,57 30/11/2022
364 235200 BEATRIZ BOTELHO BATISTA OFICIAL DO MP MATEUS LEME - COMARCA; MATEUS LEME-PJ-02PJ 11.008,33 4.403,33 0,00 0,00 0,00 0,00 0,00 1.911,00 17.322,66 2.259,08 2.747,60 0,00 0,00 5.006,68 12.315,98 30/11/2022
365 182300 BEATRIZ PAULA SOUSA RAMOS OFICIAL DO MP MARIANA - COMARCA; MARIANA-PJ-01PJ 16.695,70 8.347,85 0,00 0,00 0,00 0,00 0,00 1.911,00 26.954,55 3.800,18 4.972,57 0,00 0,00 8.772,75 18.181,80 30/11/2022
366 507000 BELCHIOR FRANKLIN AMARAL LEITE ANALISTA DO MP BELO HORIZONTE - COMARCA; CAO ORGAOS MPMG DESIG FUNC ELEITORAIS-SEC 11.736,91 2.347,38 0,00 0,00 0,00 0,00 0,00 2.796,30 16.880,59 2.046,70 2.284,57 0,00 0,00 4.331,27 12.549,32 30/11/2022
367 345100 BENITO ELIAS RODRIGUES ANALISTA DO MP BARBACENA - COMARCA; BARBACENA - SECRETARIA DAS PJS CRIMINAIS 19.037,29 5.711,19 0,00 0,00 0,00 0,00 0,00 1.911,00 26.659,48 3.752,97 4.852,27 0,00 0,00 8.605,24 18.054,24 30/11/2022
368 207300 BENITO VIEIRA DOS SANTOS ANALISTA DO MP BELO HORIZONTE - COMARCA; PROC JUST ESP ACOES COMP ORIG CRIMINAL-ASSESS 20.574,59 8.229,84 0,00 0,00 0,00 4.401,92 0,00 1.911,00 35.117,35 4.401,92 5.745,46 0,00 0,00 10.147,38 24.969,97 30/11/2022
369 480200 BERNADETE NUNES DOS SANTOS ANALISTA DO MP GUANHÃES - COMARCA; GUANHAES-PJ-02PJ 11.008,33 3.302,50 0,00 0,00 0,00 0,00 0,00 1.911,00 16.221,83 2.082,95 2.493,31 0,00 0,00 4.576,26 11.645,57 30/11/2022
370 378400 BETANIA FARNESI DE SOUZA E SILVA OFICIAL DO MP CURVELO - COMARCA; CURVELO-PJ-01PJ 9.999,62 3.999,85 0,00 0,00 0,00 0,00 0,00 1.911,00 15.910,47 2.033,13 2.369,25 0,00 0,00 4.402,38 11.508,09 30/11/2022
371 387400 BETANIA MENDONCA DE ASSIS CARVALHO ANALISTA DO MP JUIZ DE FORA - COMARCA; JUIZ DE FORA-PJ-03PJ 16.169,47 3.233,89 0,00 0,00 0,00 0,00 0,00 2.796,30 22.199,66 2.897,75 3.617,55 0,00 0,00 6.515,30 15.684,36 30/11/2022
372 714400 BIANCA DE CASTRO RAMOS ASSESSOR PROMOTOR JUSTICA BETIM - COMARCA; BETIM-PJ-13PJ 0,00 0,00 7.857,77 0,00 0,00 0,00 0,00 1.911,00 9.768,77 828,38 1.430,30 0,00 0,00 2.258,68 7.510,09 30/11/2022
373 712700 BIANCA DE JESUS SOUZA ASSESSOR ADMINISTRATIVO I GOVERNADOR VALADARES - COMARCA; COOR REG APOIO COM INC MOB VALE DO RIO DOCE 0,00 0,00 4.345,58 0,00 0,00 0,00 0,00 1.911,00 6.256,58 631,17 518,68 0,00 0,00 1.149,85 5.106,73 30/11/2022
374 450300 BIANCA OLIVEIRA DE ALBUQUERQUE ANALISTA DO MP BELO HORIZONTE - COMARCA; BH-10PJ EXECUÇÃO PENAL-SECRETARIA 11.008,33 2.201,67 0,00 0,00 0,00 0,00 0,00 2.796,30 16.006,30 1.906,81 2.239,02 0,00 0,00 4.145,83 11.860,47 30/11/2022
375 535400 BIANCA SALOTO ROSSI ANALISTA DO MP SANTOS DUMONT - COMARCA; SANTOS DUMONT-PJ-01PJ 11.008,33 1.100,83 0,00 0,00 0,00 0,00 0,00 2.796,30 14.905,46 1.730,68 1.984,72 0,00 0,00 3.715,40 11.190,06 30/11/2022
376 120800 BRAS MARQUES DE SOUZA ANALISTA DO MP BELO HORIZONTE - COMARCA; SUPERINTENDENCIA DE GESTAO ADMINISTRATIVA 25.971,96 23.374,77 0,00 0,00 0,00 5.467,17 0,00 1.911,00 56.724,90 5.467,17 8.778,48 13.884,51 0,00 28.130,16 28.594,74 30/11/2022
377 724400 BRENDA PIMENTEL DE SOUZA VIANA ASSESSOR PROMOTOR JUSTICA MANHUMIRIM - COMARCA; MANHUMIRIM-PJ-01PJ 0,00 0,00 7.857,77 0,00 0,00 0,00 0,00 1.911,00 9.768,77 828,38 1.430,30 0,00 0,00 2.258,68 7.510,09 30/11/2022
378 710500 BRENNO VINICIUS MAGESTE ROSA ASSESSOR PROMOTOR JUSTICA MANHUAÇU - COMARCA; MANHUACU-PJ-02PJ 0,00 0,00 7.857,77 0,00 0,00 0,00 0,00 1.911,00 9.768,77 828,38 1.430,30 0,00 0,00 2.258,68 7.510,09 30/11/2022
379 460900 BRENO CRISTIANO DE SOUZA REZENDE ANALISTA DO MP ITAÚNA - COMARCA; ITAUNA-PJ-02PJ 11.008,33 2.201,67 0,00 0,00 0,00 0,00 0,00 1.911,00 15.121,00 1.906,81 2.239,02 0,00 0,00 4.145,83 10.975,17 30/11/2022
380 239000 BRENO VENANCIO ROMANINI OFICIAL DO MP BELO HORIZONTE - COMARCA; BH-20PJ ORD ECON TRIBUTARIA-SECRETARIA 11.008,33 3.302,50 0,00 0,00 0,00 0,00 0,00 1.911,00 16.221,83 2.082,95 2.493,31 0,00 0,00 4.576,26 11.645,57 30/11/2022
381 722700 BRUNA DE SA FERREIRA LIMA ASSESSOR PROMOTOR JUSTICA MANGA - COMARCA; MANGA-PJ-01PJ 0,00 0,00 7.857,77 0,00 0,00 0,00 0,00 1.911,00 9.768,77 828,38 1.430,30 0,00 0,00 2.258,68 7.510,09 30/11/2022
382 722100 BRUNA HENRIQUE DE SOUZA ASSESSOR PROMOTOR JUSTICA PIRAPETINGA - COMARCA; PIRAPETINGA-PJ-UNPJ 0,00 0,00 7.857,77 0,00 0,00 0,00 0,00 1.911,00 9.768,77 828,38 1.430,30 0,00 0,00 2.258,68 7.510,09 30/11/2022
383 642300 BRUNA IZABELITA DE FATIMA OLIVEIRA COSTA OFICIAL DO MP BELO HORIZONTE - COMARCA; BH-02PJ FAMILIA-SECRETARIA 6.483,63 648,36 0,00 0,00 0,00 0,00 0,00 1.911,00 9.042,99 934,33 835,00 0,00 0,00 1.769,33 7.273,66 30/11/2022
384 513600 BRUNA KARLA MARTINS CARVALHO ANALISTA DO MP GOVERNADOR VALADARES - COMARCA; GOVERNADOR VALADARES-PJ-14PJ 11.008,33 2.201,67 0,00 0,00 0,00 0,00 0,00 1.911,00 15.121,00 927,17 2.382,14 0,00 0,00 3.309,31 11.811,69 30/11/2022
385 415100 BRUNA MARIA SOARES OLIVEIRA COSTA RAMOS ANALISTA DO MP UBÁ - COMARCA; COORD REG BACIA DO RIO PARAIBA DO SUL 16.169,47 3.233,89 0,00 0,00 0,00 0,00 0,00 1.911,00 21.314,36 927,17 3.957,57 0,00 0,00 4.884,74 16.429,62 30/11/2022
386 692900 BRUNA MENDES COELHO ASSESSOR PROCURADOR JUSTICA BELO HORIZONTE - COMARCA; GABINETE DE PROCURADOR DE JUSTIÇA - SALA 801 0,00 0,00 7.857,77 0,00 0,00 0,00 0,00 1.911,00 9.768,77 828,38 1.430,30 0,00 0,00 2.258,68 7.510,09 30/11/2022
387 470000 BRUNA MORAES ANALISTA DO MP TOMBOS - COMARCA; TOMBOS-PJ-UNPJ 14.224,47 2.844,89 0,00 0,00 0,00 0,00 0,00 1.911,00 18.980,36 2.524,31 2.974,12 0,00 0,00 5.498,43 13.481,93 30/11/2022
388 614700 BRUNA NATTANY DE LIMA OFICIAL DO MP MANTENA - COMARCA; MANTENA-PJ-01PJ 6.694,66 669,47 0,00 0,00 0,00 0,00 0,00 2.796,30 10.160,43 971,47 888,62 0,00 0,00 1.860,09 8.300,34 30/11/2022
389 729800 BRUNA PAULA AMARAL CEOLIN ASSESSOR PROMOTOR JUSTICA COMARCA - JUATUBA; JUATUBA-PJ-UNPJ 0,00 0,00 7.857,77 0,00 0,00 0,00 0,00 1.911,00 9.768,77 828,38 1.430,30 0,00 0,00 2.258,68 7.510,09 30/11/2022
390 631800 BRUNA RAPOSO JORGE OFICIAL DO MP JUIZ DE FORA - COMARCA; JUIZ DE FORA-PJ-06PJ 6.483,63 648,36 0,00 0,00 0,00 0,00 0,00 1.911,00 9.042,99 934,33 835,00 0,00 0,00 1.769,33 7.273,66 30/11/2022
391 707800 BRUNA ROMIE WERDINE ASSESSOR PROMOTOR JUSTICA IBIRITÉ - COMARCA; IBIRITE-PJ-06PJ 0,00 0,00 7.857,77 0,00 0,00 0,00 0,00 1.911,00 9.768,77 828,38 1.430,30 0,00 0,00 2.258,68 7.510,09 30/11/2022
392 697400 BRUNA SILVA SANTOS ASSESSOR PROMOTOR JUSTICA TIMÓTEO - COMARCA; TIMOTEO-PJ-04PJ 0,00 0,00 7.857,77 0,00 0,00 0,00 0,00 1.911,00 9.768,77 828,38 1.430,30 0,00 0,00 2.258,68 7.510,09 30/11/2022
393 699300 BRUNA URSINE TIMO ASSESSOR PROCURADOR JUSTICA BELO HORIZONTE - COMARCA; PROC JUST ESP ACOES COMP ORIG CRIMINAL-ASSESS 0,00 0,00 7.857,77 0,00 0,00 0,00 0,00 1.911,00 9.768,77 828,38 1.430,30 0,00 0,00 2.258,68 7.510,09 30/11/2022
394 463800 BRUNO ALVES TEIXEIRA ANALISTA DO MP UBERLÂNDIA - COMARCA; UBERLANDIA-PJ-04PJ 11.008,33 2.201,67 0,00 0,00 0,00 0,00 0,00 1.911,00 15.121,00 1.906,81 2.239,02 0,00 0,00 4.145,83 10.975,17 30/11/2022
395 538500 BRUNO AUGUSTO DA SILVA OFICIAL DO MP SANTA LUZIA - COMARCA; SANTA LUZIA-PJ-03PJ 6.694,66 669,47 0,00 0,00 0,00 0,00 0,00 1.911,00 9.275,13 971,47 888,62 0,00 0,00 1.860,09 7.415,04 30/11/2022
396 318200 BRUNO BARROS DE SOUZA OFICIAL DO MP UBÁ - COMARCA; UBA-PJ-04PJ 11.008,33 3.302,50 0,00 0,00 0,00 0,00 0,00 1.911,00 16.221,83 927,17 2.256,07 0,00 0,00 3.183,24 13.038,59 30/11/2022
397 427400 BRUNO CESAR RIBEIRO DE PAIVA ANALISTA DO MP BELO HORIZONTE - COMARCA; DIRETORIA DO COLEGIO E DA CAMARA DE PJ 16.169,47 3.233,89 0,00 0,00 0,00 0,00 0,00 1.911,00 21.314,36 2.897,75 3.669,68 0,00 0,00 6.567,43 14.746,93 30/11/2022
398 380900 BRUNO CIRILO ANTUNES OFICIAL DO MP VARGINHA - COMARCA; VARGINHA-PJ-05PJ 10.325,15 2.065,03 0,00 0,00 0,00 0,00 0,00 1.911,00 14.301,18 1.775,64 2.049,64 0,00 0,00 3.825,28 10.475,90 30/11/2022
399 329000 BRUNO DE MELO REIS ANALISTA DO MP PATROCÍNIO - COMARCA; PATROCINIO-PJ-02PJ 19.037,29 7.614,92 0,00 0,00 0,00 0,00 1.903,73 3.681,60 32.237,54 4.362,16 5.679,65 0,00 0,00 10.041,81 22.195,73 30/11/2022
400 697800 BRUNO GAZZOLA BEZERRA FALCAO ASSESSOR PROCURADOR JUSTICA BELO HORIZONTE - COMARCA; PROCURADOR-GERAL ADJUNTO JURIDICO- GABINETE 0,00 0,00 7.857,77 0,00 0,00 0,00 0,00 1.911,00 9.768,77 828,38 1.430,30 0,00 0,00 2.258,68 7.510,09 30/11/2022
401 378300 BRUNO HERDY LOPES DE OLIVEIRA ANALISTA DO MP GOVERNADOR VALADARES - COMARCA; GOVERNADOR VALADARES-PJ-03PJ 16.169,47 3.233,89 0,00 0,00 0,00 0,00 0,00 1.911,00 21.314,36 2.897,75 3.669,68 0,00 0,00 6.567,43 14.746,93 30/11/2022
402 529700 BRUNO JOSE BUENO DIAS OFICIAL DO MP SÃO SEBASTIÃO DO PARAÍSO - COMARCA; SAO SEBASTIAO DO PARAISO-PJ-02PJ 6.694,66 669,47 0,00 0,00 0,00 0,00 0,00 1.911,00 9.275,13 971,47 836,48 0,00 0,00 1.807,95 7.467,18 30/11/2022
403 691600 BRUNO JOSE RIBEIRO ASSESSOR PROMOTOR JUSTICA CLÁUDIO - COMARCA; CLAUDIO-PJ-UNPJ 0,00 0,00 7.857,77 0,00 0,00 0,00 0,00 1.911,00 9.768,77 828,38 1.430,30 0,00 0,00 2.258,68 7.510,09 30/11/2022
404 350100 BRUNO LAUD SERRANO DOS REIS OFICIAL DO MP UBÁ - COMARCA; UBA-PJ-02PJ 11.008,33 3.302,50 0,00 0,00 0,00 0,00 0,00 1.911,00 16.221,83 2.082,95 2.441,17 0,00 0,00 4.524,12 11.697,71 30/11/2022
405 728900 BRUNO LIMA PITANGA ASSESSOR PROMOTOR JUSTICA BELO HORIZONTE - COMARCA; NUCLEO DA EXECUCAO PENAL 0,00 0,00 7.857,77 0,00 0,00 0,00 0,00 2.796,30 10.654,07 828,38 1.430,30 0,00 0,00 2.258,68 8.395,39 30/11/2022
406 373800 BRUNO MARTINO DE ALBUQUERQUE ANALISTA DO MP PONTE NOVA - COMARCA; PONTE NOVA-PJ-03PJ 16.169,47 3.233,89 0,00 0,00 0,00 0,00 0,00 1.911,00 21.314,36 2.897,75 3.565,41 0,00 0,00 6.463,16 14.851,20 30/11/2022
407 470400 BRUNO NOVAIS CABRAL ANALISTA DO MP MUTUM - COMARCA; MUTUM-PJ-UNPJ 11.008,33 2.201,67 0,00 0,00 0,00 0,00 0,00 1.911,00 15.121,00 1.906,81 1.905,72 0,00 0,00 3.812,53 11.308,47 30/11/2022
408 648600 BRUNO RIBEIRO E MELO ASSESSOR ADMINISTRATIVO IV BELO HORIZONTE - COMARCA; DIR RELACOES INSTITUCIONAIS 0,00 0,00 12.920,95 0,00 0,00 0,00 0,00 1.911,00 14.831,95 828,38 2.822,67 0,00 0,00 3.651,05 11.180,90 30/11/2022
409 369200 BRUNO ROBERTO DIAS DE OLIVEIRA OFICIAL DO MP BELO HORIZONTE - COMARCA; BH-22PJ PES COM DEF E IDOSOS-SECRETARIA 11.008,33 3.302,50 0,00 0,00 0,00 0,00 0,00 1.911,00 16.221,83 927,17 2.662,16 0,00 0,00 3.589,33 12.632,50 30/11/2022
410 547700 BRUNO ROBERTO SOUZA GONCALVES ANALISTA DO MP PARACATU - COMARCA; PARACATU-PJ-03PJ 11.008,33 1.100,83 0,00 0,00 0,00 0,00 0,00 2.796,30 14.905,46 1.730,68 1.984,72 0,00 0,00 3.715,40 11.190,06 30/11/2022
411 546100 BRUNO SA VIEIRA ANALISTA DO MP BARBACENA - COMARCA; BARBACENA-PJ-SECRETARIA 11.008,33 1.100,83 0,00 0,00 0,00 0,00 0,00 2.796,30 14.905,46 1.730,68 1.880,45 0,00 0,00 3.611,13 11.294,33 30/11/2022
412 438200 BRUNO SALES PEREIRA ANALISTA DO MP BELO HORIZONTE - COMARCA; CENTRAL DE APOIO TECNICO-SETOR CONTABIL 13.776,02 2.755,20 0,00 0,00 0,00 0,00 0,00 1.911,00 18.442,22 2.438,21 2.954,08 0,00 0,00 5.392,29 13.049,93 30/11/2022
413 537400 BRUNO SANT'ANA CESAR ANALISTA DO MP BELO HORIZONTE - COMARCA; BH-12PJ JUIZO CRIMINAL-GAB 105PJ 11.008,33 1.100,83 0,00 0,00 0,00 0,00 0,00 1.911,00 14.020,16 1.730,68 1.984,72 0,00 0,00 3.715,40 10.304,76 30/11/2022
414 727700 BYANKA DA SILVA MORAIS ASSESSOR PROCURADOR JUSTICA BELO HORIZONTE - COMARCA; GABINETE DE PROCURADOR DE JUSTIÇA - SALA 805 0,00 0,00 7.857,77 0,00 0,00 0,00 0,00 1.911,00 9.768,77 828,38 1.430,30 0,00 0,00 2.258,68 7.510,09 30/11/2022
415 405800 CAIO FERNANDO RODRIGUES DE OLIVEIRA ANALISTA DO MP BELO HORIZONTE - COMARCA; ASSESSORIA JURIDICO-ADMINISTRATIVA 16.169,47 3.233,89 0,00 0,00 0,00 0,00 940,00 1.911,00 22.254,36 927,17 4.093,05 0,00 0,00 5.020,22 17.234,14 30/11/2022
416 530000 CAIO GUEDES DE OLIVEIRA ANALISTA DO MP DIAMANTINA - COMARCA; DIAMANTINA-PJ-02PJ 11.008,33 1.100,83 0,00 0,00 0,00 0,00 0,00 1.911,00 14.020,16 1.730,68 1.932,58 0,00 0,00 3.663,26 10.356,90 30/11/2022
417 491400 CAIO MIRANDA JUNQUEIRA ANALISTA DO MP BUENO BRANDAO - COMARCA; BUENO BRANDAO-PJ-UNPJ 11.008,33 2.201,67 0,00 0,00 0,00 0,00 0,00 1.911,00 15.121,00 1.906,81 2.134,74 0,00 0,00 4.041,55 11.079,45 30/11/2022
418 415800 CAMILA ALVES DA SILVA ANALISTA DO MP CAETÉ - COMARCA; CAETE-PJ-01PJ 15.659,55 3.131,91 0,00 0,00 0,00 0,00 0,00 1.911,00 20.702,46 2.799,85 3.528,33 0,00 0,00 6.328,18 14.374,28 30/11/2022
419 555800 CAMILA CAROLINE ROCHA CHAVES OFICIAL DO MP SALINAS - COMARCA; SALINAS-PJ-01PJ 6.694,66 669,47 0,00 0,00 0,00 0,00 0,00 1.911,00 9.275,13 971,47 888,62 0,00 0,00 1.860,09 7.415,04 30/11/2022
420 445200 CAMILA CONDE ROCHA ANALISTA DO MP CONTAGEM - COMARCA; CONTAGEM-PJ-21PJ 11.736,91 2.347,38 0,00 0,00 0,00 0,00 0,00 1.911,00 15.995,29 2.046,70 2.440,98 0,00 0,00 4.487,68 11.507,61 30/11/2022
421 419900 CAMILA CUNNINGHAM PIMENTA DE PADUA ANALISTA DO MP BELO HORIZONTE - COMARCA; ASSESSORIA PSICOSSOCIAL 16.169,47 3.233,89 0,00 0,00 0,00 0,00 0,00 1.911,00 21.314,36 2.897,75 3.669,68 0,00 0,00 6.567,43 14.746,93 30/11/2022
422 714200 CAMILA DE SOUSA CUNHA ASSESSOR PROMOTOR JUSTICA PRADOS - COMARCA; PRADOS-PJ-UNPJ 0,00 0,00 7.857,77 0,00 0,00 0,00 0,00 1.911,00 9.768,77 828,38 1.430,30 0,00 0,00 2.258,68 7.510,09 30/11/2022
423 507700 CAMILA ELIZABETH RODRIGUES ANALISTA DO MP BELO HORIZONTE - COMARCA; BH-02PJ FAMILIA-SECRETARIA 13.341,69 2.668,34 0,00 0,00 0,00 0,00 0,00 1.911,00 17.921,03 2.354,82 2.885,82 0,00 0,00 5.240,64 12.680,39 30/11/2022
424 372700 CAMILA FONSECA LIMONGE ANALISTA DO MP BETIM - COMARCA; BETIM-PJ-01PJ 16.169,47 3.233,89 0,00 0,00 0,00 0,00 0,00 1.911,00 21.314,36 2.897,75 3.669,68 0,00 0,00 6.567,43 14.746,93 30/11/2022
425 621300 CAMILA GOLFETO DE SOUSA VALENTE OFICIAL DO MP CARANGOLA - COMARCA; CARANGOLA-PJ-SECRETARIA 6.694,66 669,47 0,00 0,00 0,00 0,00 0,00 3.238,95 10.603,08 971,47 784,35 0,00 0,00 1.755,82 8.847,26 30/11/2022
426 409800 CAMILA GONCALVES COSTA RIBEIRO ANALISTA DO MP INHAPIM - COMARCA; INHAPIM-PJ-02PJ 11.008,33 2.201,67 0,00 0,00 0,00 0,00 0,00 2.796,30 16.006,30 1.906,81 2.134,74 0,00 0,00 4.041,55 11.964,75 30/11/2022
427 335000 CAMILA GONTIJO DE PAIVA ANALISTA DO MP BELO HORIZONTE - COMARCA; COORD DE CONTROLE CONSTITUCIONALIDADE 18.312,36 5.493,71 0,00 0,00 0,00 0,00 0,00 1.911,00 25.717,07 3.602,18 4.634,57 0,00 0,00 8.236,75 17.480,32 30/11/2022
428 693400 CAMILA HECKSHER MONTEIRO ASSESSOR PROCURADOR JUSTICA BELO HORIZONTE - COMARCA; GABINETE DE PROCURADOR DE JUSTIÇA - SALA 613 0,00 0,00 7.857,77 0,00 2.619,26 0,00 0,00 1.911,00 12.388,03 828,38 2.150,59 0,00 0,00 2.978,97 9.409,06 30/11/2022
429 696000 CAMILA IMACULADA OLIVEIRA ASSESSOR PROCURADOR JUSTICA BELO HORIZONTE - COMARCA; GABINETE DE PROCURADOR DE JUSTIÇA - SALA 816 0,00 0,00 7.857,77 0,00 0,00 0,00 0,00 1.911,00 9.768,77 828,38 1.430,30 0,00 0,00 2.258,68 7.510,09 30/11/2022
430 547800 CAMILA MATTARELLI DE ABREU E SILVA ANALISTA DO MP BELO HORIZONTE - COMARCA; CAO-VIOLENCIA DOMESTICA E FAMILIAR 11.008,33 1.100,83 0,00 0,00 0,00 0,00 0,00 1.911,00 14.020,16 1.730,68 1.984,72 0,00 0,00 3.715,40 10.304,76 30/11/2022
431 430000 CANDIDA MARINA COSTA ANALISTA DO MP BELO HORIZONTE - COMARCA; DIRET DE INFORMACAO E CONHECIMENTO-DINC/CEAF 15.659,55 3.131,91 0,00 0,00 0,00 0,00 0,00 1.911,00 20.702,46 2.799,85 3.528,33 0,00 0,00 6.328,18 14.374,28 30/11/2022
432 614300 CARINA CORTIELHA OFICIAL DO MP BELO HORIZONTE - COMARCA; BH-23PJ CIVEL-FISC AC POL PUB I 6.081,20 608,12 0,00 0,00 0,00 0,00 0,00 1.911,00 8.600,32 865,50 732,19 0,00 0,00 1.597,69 7.002,63 30/11/2022
433 380400 CARINA DIAS FACANHA DE SOUZA ANALISTA DO MP SANTA RITA DO SAPUCAÍ - COMARCA; SANTA RITA DO SAPUCAI-PJ-01PJ 16.169,47 3.233,89 0,00 0,00 0,00 0,00 0,00 2.796,30 22.199,66 2.897,75 3.669,68 0,00 0,00 6.567,43 15.632,23 30/11/2022
434 255000 CARLA ADRIANA DE MENEZES OFICIAL DO MP BELO HORIZONTE - COMARCA; CENT DE APOIO TEC-SETOR DEF,IDOSO E INFANC 11.008,33 3.302,50 0,00 0,00 0,00 0,00 0,00 1.911,00 16.221,83 2.082,95 2.493,31 0,00 0,00 4.576,26 11.645,57 30/11/2022
435 425100 CARLA ADRIANA DINIZ AMARAL OFICIAL DO MP CONTAGEM - COMARCA; CONTAGEM-PJ-SECRETARIA 9.999,62 1.999,92 2.602,68 0,00 0,00 0,00 0,00 1.911,00 16.513,22 1.713,14 2.675,14 0,00 0,00 4.388,28 12.124,94 30/11/2022
436 508100 CARLA ALESSANDRA FONSECA ANALISTA DO MP BELO HORIZONTE - COMARCA; CAO-ORDEM ECONOMICA E TRIBUTARIA-SECRETARIA 11.008,33 2.201,67 0,00 0,00 0,00 0,00 0,00 1.911,00 15.121,00 1.906,81 2.239,02 0,00 0,00 4.145,83 10.975,17 30/11/2022
437 607100 CARLA ANGELICA DIAS MIRANDA OFICIAL DO MP JABOTICATUBAS - COMARCA; JABOTICATUBAS-PJ-UNPJ 6.694,66 669,47 0,00 0,00 0,00 0,00 0,00 1.911,00 9.275,13 971,47 732,21 0,00 0,00 1.703,68 7.571,45 30/11/2022
438 351500 CARLA APARECIDA MENDES RAMIRIO OFICIAL DO MP PASSOS - COMARCA; PASSOS-PJ-01PJ 11.008,33 3.302,50 0,00 0,00 0,00 0,00 0,00 1.911,00 16.221,83 2.082,95 2.441,17 0,00 0,00 4.524,12 11.697,71 30/11/2022
439 713100 CARLA DOS SANTOS SOUZA ASSESSOR PROMOTOR JUSTICA ESPERA FELIZ - COMARCA; ESPERA FELIZ-PJ-UNPJ 0,00 0,00 7.857,77 0,00 0,00 0,00 0,00 1.911,00 9.768,77 828,38 1.430,30 0,00 0,00 2.258,68 7.510,09 30/11/2022
440 442800 CARLA GONCALVES COSTA SOALHEIRO ANALISTA DO MP GOVERNADOR VALADARES - COMARCA; GOVERNADOR VALADARES-PJ-11PJ 10.335,12 2.273,36 0,00 0,00 0,00 0,00 0,00 2.796,30 15.404,78 1.975,64 2.002,53 0,00 0,00 3.978,17 11.426,61 30/11/2022
441 321500 CARLA GONCALVES MASSOTE OFICIAL DO MP CAMPO BELO - COMARCA; CAMPO BELO-PJ-02PJ 11.008,33 3.302,50 0,00 0,00 0,00 0,00 0,00 1.911,00 16.221,83 2.082,95 2.493,31 0,00 0,00 4.576,26 11.645,57 30/11/2022
442 429200 CARLA HAUTEQUESTT BECHARA ANALISTA DO MP BELO HORIZONTE - COMARCA; DIRET DE INFORMACAO E CONHECIMENTO-DINC/CEAF 15.659,55 3.131,91 0,00 0,00 0,00 0,00 0,00 1.911,00 20.702,46 2.799,85 3.528,33 0,00 0,00 6.328,18 14.374,28 30/11/2022
443 247500 CARLA MATILDE GUIMARAES DE OLIVEIRA OFICIAL DO MP ITAJUBA - COMARCA; ITAJUBA-PJ-SECRETARIA 11.008,33 4.403,33 0,00 0,00 0,00 0,00 0,00 1.911,00 17.322,66 2.259,08 2.695,46 0,00 0,00 4.954,54 12.368,12 30/11/2022
444 226100 CARLA MERLI DA CONCEICAO ANALISTA DO MP BELO HORIZONTE - COMARCA; CENTRAL DE APOIO TECNICO-SETOR CONTABIL 20.574,59 6.172,38 0,00 0,00 0,00 0,00 0,00 1.911,00 28.657,97 4.072,73 5.313,92 0,00 0,00 9.386,65 19.271,32 30/11/2022
445 181401 CARLO MICHEL GAUDENSI COELHO ANALISTA DO MP BELO HORIZONTE - COMARCA; BH-08PJ JUIZADO ESPECIAL-SECRETARIA 15.659,55 6.263,82 0,00 0,00 0,00 0,00 0,00 1.911,00 23.834,37 3.300,95 4.251,80 0,00 0,00 7.552,75 16.281,62 30/11/2022
446 634000 CARLOS ALBERTO AMORMINO TRIGUEIRO ANALISTA DO MP BELO HORIZONTE - COMARCA; DIRET DE APOIO AS PROCURADORIAS DE JUSTICA 9.999,62 999,96 0,00 0,00 0,00 0,00 0,00 2.796,30 13.795,88 927,17 1.767,72 0,00 0,00 2.694,89 11.100,99 30/11/2022
447 637900 CARLOS ALBERTO DE MOURA OFICIAL DO MP SETE LAGOAS - COMARCA; SETE LAGOAS-PJ-07PJ 6.483,63 648,36 0,00 0,00 0,00 0,00 0,00 1.911,00 9.042,99 927,17 784,83 0,00 0,00 1.712,00 7.330,99 30/11/2022
448 638700 CARLOS ALBERTO FERREIRA BRAGA ANALISTA DO MP VESPASIANO - COMARCA; VESPASIANO-PJ-06PJ 9.999,62 999,96 0,00 0,00 0,00 0,00 0,00 1.911,00 12.910,58 927,17 1.796,28 0,00 0,00 2.723,45 10.187,13 30/11/2022
449 375801 CARLOS ALBERTO ROCHA ANALISTA DO MP VARGINHA - COMARCA; GAECO REGIONAL DE VARGINHA 11.008,33 1.100,83 0,00 0,00 0,00 0,00 0,00 2.796,30 14.905,46 1.730,68 1.932,58 0,00 0,00 3.663,26 11.242,20 30/11/2022
450 462800 CARLOS ANDREI SOARES FAGUNDES ANALISTA DO MP MONTES CLAROS - COMARCA; MONTES CLAROS-PJ-09PJ 11.008,33 2.201,67 0,00 0,00 0,00 0,00 0,00 1.911,00 15.121,00 1.906,81 2.186,88 0,00 0,00 4.093,69 11.027,31 30/11/2022
451 370300 CARLOS AUGUSTO BUENO DIAS ASSESSOR ADMINISTRATIVO IV BELO HORIZONTE - COMARCA; SUPERINTENDÊNCIA DE ENGENHARIA E ARQUITETURA 0,00 0,00 12.920,95 0,00 0,00 0,00 0,00 1.911,00 14.831,95 828,38 2.027,66 0,00 0,00 2.856,04 11.975,91 30/11/2022
452 505100 CARLOS CEZAR CARVALHO ANALISTA DO MP CONTAGEM - COMARCA; CONTAGEM-PJ-02PJ 11.008,33 4.403,33 0,00 0,00 0,00 0,00 0,00 1.911,00 17.322,66 2.259,08 2.643,33 0,00 0,00 4.902,41 12.420,25 30/11/2022
453 196800 CARLOS EDUARDO DE OLIVEIRA MARINHO OFICIAL DO MP ALPINÓPOLIS - COMARCA; ALPINOPOLIS-PJ-UNPJ 18.312,36 12.818,66 0,00 0,00 0,00 0,00 0,00 1.911,00 33.042,02 4.774,18 6.326,63 0,00 0,00 11.100,81 21.941,21 30/11/2022
454 650800 CARLOS EDUARDO NIZA DA SILVA OFICIAL DO MP IGARAPÉ - COMARCA; IGARAPE-PJ-01PJ 5.703,71 570,37 0,00 0,00 0,00 0,00 0,00 2.796,30 9.070,38 801,71 531,27 0,00 0,00 1.332,98 7.737,40 30/11/2022
455 491800 CARLOS EDUARDO ROMAN OFICIAL DO MP BARBACENA - COMARCA; BARBACENA-PJ-09PJ 8.650,50 1.730,10 0,00 0,00 0,00 0,00 0,00 1.911,00 12.291,60 1.454,11 1.585,42 0,00 0,00 3.039,53 9.252,07 30/11/2022
456 299300 CARLOS HENRIQUE BICALHO ANALISTA DO MP BELO HORIZONTE - COMARCA; BH-17PJ PATRIMONIO PUBLICO-SECRETARIA 20.574,59 8.229,84 0,00 0,00 0,00 0,00 0,00 2.796,30 31.600,73 4.401,92 5.841,33 0,00 0,00 10.243,25 21.357,48 30/11/2022
457 205100 CARLOS HENRIQUE ESTEVES OFICIAL DO MP ITAMBACURI - COMARCA; ITAMBACURI-PJ-01PJ 19.037,29 7.614,92 0,00 0,00 0,00 0,00 0,00 1.911,00 28.563,21 4.057,57 5.292,03 0,00 0,00 9.349,60 19.213,61 30/11/2022
458 351600 CARLOS HENRIQUE FELICIO DA FONSECA OFICIAL DO MP JUIZ DE FORA - COMARCA; JUIZ DE FORA-PJ-21PJ 11.008,33 3.302,50 0,00 0,00 0,00 0,00 0,00 1.911,00 16.221,83 2.082,95 2.441,17 0,00 0,00 4.524,12 11.697,71 30/11/2022
459 729100 CARLOS HENRIQUE TEIXEIRA BRAGA ASSESSOR ADMINISTRATIVO II BELO HORIZONTE - COMARCA; DIRETORIA DE SUPORTE E MANUTENCAO 0,00 0,00 6.694,66 0,00 0,00 0,00 0,00 1.911,00 8.605,66 828,38 1.110,44 0,00 0,00 1.938,82 6.666,84 30/11/2022
460 85400 CARLOS JOSE VIEIRA OFICIAL DO MP BELO HORIZONTE - COMARCA; DIRETORIA DO COLEGIO E DA CAMARA DE PJ 25.971,96 20.777,57 0,00 0,00 0,00 5.467,17 0,00 1.911,00 54.127,70 5.467,17 8.882,75 11.287,31 0,00 25.637,23 28.490,47 30/11/2022
461 229100 CARLOS MERCES DE OLIVEIRA ANALISTA DO MP BELO HORIZONTE - COMARCA; CENTRAL DE APOIO TECN-SETOR DE MEIO AMBIENTE 20.574,59 8.229,84 0,00 0,00 0,00 0,00 0,00 1.911,00 30.715,43 4.401,92 4.595,87 0,00 0,00 8.997,79 21.717,64 30/11/2022
462 538300 CARLOS RANGEL SILVA DE MELO ANALISTA DO MP BELO HORIZONTE - COMARCA; DIVISAO DE CONTROLE IMOBILIARIO 11.008,33 3.302,50 0,00 0,00 0,00 0,00 0,00 3.681,60 17.992,43 2.082,95 2.493,31 0,00 0,00 4.576,26 13.416,17 30/11/2022
463 265100 CARLOS REIFF MIRANDA ANALISTA DO MP BELO HORIZONTE - COMARCA; BH-19PJ SAUDE-SECRETARIA 150PJ 20.574,59 6.172,38 0,00 0,00 0,00 0,00 0,00 1.911,00 28.657,97 4.072,73 5.366,06 0,00 0,00 9.438,79 19.219,18 30/11/2022
464 305400 CARLOS ROCHA DE SOUZA OFICIAL DO MP MONTALVÂNIA - COMARCA; MONTALVANIA-PJ-SECRETARIA 6.694,66 2.008,40 0,00 0,00 0,00 0,00 0,00 3.366,86 12.069,92 1.185,70 989,36 0,00 0,00 2.175,06 9.894,86 30/11/2022
465 399900 CARMELITA EVANGELISTA DE SOUZA OFICIAL DO MP JOÃO PINHEIRO - COMARCA; JOAO PINHEIRO-PJ-01PJ 9.378,86 1.875,77 0,00 0,00 0,00 0,00 0,00 1.911,00 13.165,63 1.593,95 1.787,33 0,00 0,00 3.381,28 9.784,35 30/11/2022
466 202000 CARMEN LUCIA MARIZ DE MACEDO OFICIAL DO MP BELO HORIZONTE - COMARCA; DIRETORIA GESTAO COMPRAS LICITACOES 18.312,36 12.818,66 4.846,91 0,00 0,00 0,00 0,00 1.911,00 37.888,93 4.774,18 7.465,58 515,71 0,00 12.755,47 25.133,46 30/11/2022
467 701900 CAROLINA CARVALHO COSTA ASSESSOR PROCURADOR JUSTICA BELO HORIZONTE - COMARCA; GABINETE DE PROCURADOR DE JUSTIÇA - SALA 811 0,00 0,00 7.857,77 0,00 0,00 0,00 0,00 1.911,00 9.768,77 828,38 1.430,30 0,00 0,00 2.258,68 7.510,09 30/11/2022
468 228500 CAROLINA CHIARELLA DOS SANTOS RIBEIRO COORDENADOR I BELO HORIZONTE - COMARCA; DIVISAO TRANSPORTES 14.687,60 4.406,28 0,00 0,00 0,00 0,00 0,00 1.911,00 21.004,88 2.082,95 3.704,37 0,00 0,00 5.787,32 15.217,56 30/11/2022
469 446500 CAROLINA COSTA VAL RODRIGUES ANALISTA DO MP BELO HORIZONTE - COMARCA; DIVISAO DE MATERIAIS 15.659,55 3.131,91 4.406,28 0,00 0,00 0,00 543,71 1.911,00 25.652,45 2.799,85 4.889,58 0,00 0,00 7.689,43 17.963,02 30/11/2022
470 603501 CAROLINA DOMINGOS BRANDAO RABELLO ANALISTA DO MP BARROSO - COMARCA; BARROSO-PJ-01PJ 10.325,15 1.032,52 0,00 0,00 0,00 0,00 0,00 2.796,30 14.153,97 1.610,44 1.811,13 0,00 0,00 3.421,57 10.732,40 30/11/2022
471 404300 CAROLINA DOS SANTOS VIEIRA ANALISTA DO MP BELO HORIZONTE - COMARCA; BH-08PJ JUIZADO ESPECIAL-SECRETARIA 16.169,47 3.233,89 0,00 0,00 0,00 0,00 0,00 1.911,00 21.314,36 2.897,75 3.565,41 0,00 0,00 6.463,16 14.851,20 30/11/2022
472 551200 CAROLINA LOPES ARANTES MASCARENHAS ANALISTA DO MP BELO HORIZONTE - COMARCA; CAO-VIOLENCIA DOMESTICA E FAMILIAR 11.008,33 1.100,83 0,00 0,00 0,00 0,00 0,00 2.796,30 14.905,46 1.730,68 1.880,45 0,00 0,00 3.611,13 11.294,33 30/11/2022
473 622600 CAROLINA LOREDO LOPES CATIZANI OFICIAL DO MP RIBEIRÃO DAS NEVES - COMARCA; RIBEIRAO DAS NEVES-PJ-12PJ 6.081,20 608,12 0,00 0,00 0,00 0,00 0,00 1.911,00 8.600,32 865,50 732,19 0,00 0,00 1.597,69 7.002,63 30/11/2022
474 382200 CAROLINA MENDES CHAVES LIN ANALISTA DO MP BELO HORIZONTE - COMARCA; BH-12PJ JUIZO CRIMINAL-GAB 088PJ 11.008,33 2.201,67 0,00 0,00 0,00 0,00 0,00 2.796,30 16.006,30 1.906,81 2.186,88 0,00 0,00 4.093,69 11.912,61 30/11/2022
475 461900 CAROLINA MURTA TEIXEIRA DIAS ANALISTA DO MP BELO HORIZONTE - COMARCA; CENTRO AUTOCOMPOSICAO DE CONFLITOS 11.008,33 2.201,67 0,00 0,00 0,00 0,00 0,00 1.911,00 15.121,00 1.906,81 2.239,02 0,00 0,00 4.145,83 10.975,17 30/11/2022
476 509600 CAROLINA PINTO DE OLIVEIRA SOUZA ANALISTA DO MP MURIAÉ - COMARCA; MURIAE-PJ-01PJ 11.008,33 2.201,67 0,00 0,00 0,00 0,00 0,00 2.796,30 16.006,30 1.906,81 2.134,74 0,00 0,00 4.041,55 11.964,75 30/11/2022
477 629100 CAROLINA RODRIGUES AMARAL ANALISTA DO MP BELO HORIZONTE - COMARCA; PROC. JUSTICA DIR. DIFUSOS E COLETIVOS-SEC 10.325,15 1.032,52 0,00 0,00 0,00 0,00 0,00 1.911,00 13.268,67 1.610,44 1.811,13 0,00 0,00 3.421,57 9.847,10 30/11/2022
478 502600 CAROLINA RODRIGUES RUBEN ANALISTA DO MP BELO HORIZONTE - COMARCA; BH-18PJ VIOLENCIA DOMESTICA-GAB 007PJ 11.008,33 2.201,67 0,00 0,00 0,00 0,00 0,00 3.681,60 16.891,60 1.906,81 2.134,74 0,00 0,00 4.041,55 12.850,05 30/11/2022
479 529600 CAROLINA VAZ DE MELO MAMBRINI ANALISTA DO MP BELO HORIZONTE - COMARCA; BH-14PJ DEFESA CONSUMIDOR-GAB 005PJ 11.008,33 1.100,83 0,00 0,00 0,00 0,00 0,00 1.911,00 14.020,16 1.730,68 1.984,72 0,00 0,00 3.715,40 10.304,76 30/11/2022
480 619100 CAROLINA ZAKHIA NARDELLI RODRIGUES ANALISTA DO MP NEPOMUCENO - COMARCA; NEPOMUCENO-PJ-UNPJ 10.325,15 1.032,52 0,00 0,00 0,00 0,00 0,00 2.796,30 14.153,97 1.610,44 1.811,13 0,00 0,00 3.421,57 10.732,40 30/11/2022
481 517600 CAROLINE ALVES DE OLIVEIRA MULLER ANALISTA DO MP VISCONDE DO RIO BRANCO - COMARCA; VISCONDE DO RIO BRANCO-PJ-01PJ 11.008,33 2.201,67 0,00 0,00 0,00 0,00 0,00 1.911,00 15.121,00 1.906,81 2.186,88 0,00 0,00 4.093,69 11.027,31 30/11/2022
482 373200 CAROLINE ANTUNES RIBEIRO OFICIAL DO MP JACUI - COMARCA; JACUI-PJ-UNPJ 11.008,33 2.201,67 0,00 0,00 0,00 0,00 0,00 1.911,00 15.121,00 1.906,81 2.186,88 0,00 0,00 4.093,69 11.027,31 30/11/2022
483 723500 CAROLINE CORDEIRO FERNANDES MACHADO ASSESSOR PROMOTOR JUSTICA BELO HORIZONTE - COMARCA; COORD DE INCLUSAO E MOBILIZACAO SOCIAIS 0,00 0,00 7.857,77 0,00 0,00 0,00 0,00 1.911,00 9.768,77 828,38 1.430,30 0,00 0,00 2.258,68 7.510,09 30/11/2022
484 556800 CAROLINE DE SOUZA CARDOSO DOMINGUES OFICIAL DO MP BRASÍLIA DE MINAS - COMARCA; BRASILIA DE MINAS-PJ-02PJ 6.694,66 669,47 0,00 0,00 0,00 0,00 0,00 1.911,00 9.275,13 971,47 888,62 0,00 0,00 1.860,09 7.415,04 30/11/2022
485 499400 CAROLINE MARQUES DE LOURDES MARZULLO OFICIAL DO MP JUIZ DE FORA - COMARCA; JUIZ DE FORA-PJ-08PJ 8.650,50 1.730,10 0,00 0,00 0,00 0,00 0,00 3.238,95 13.619,55 927,17 1.662,41 0,00 0,00 2.589,58 11.029,97 30/11/2022
486 616800 CAROLINE MONTEIRO DE BARROS ANALISTA DO MP CONTAGEM - COMARCA; CONTAGEM-PJ-11PJ 10.325,15 1.032,52 0,00 0,00 0,00 0,00 0,00 1.911,00 13.268,67 927,17 1.910,95 0,00 0,00 2.838,12 10.430,55 30/11/2022
487 618100 CAROLINE VASCONCELOS COSTA LANZA ANALISTA DO MP PARAOPEBA - COMARCA; PARAOPEBA-PJ-UNPJ 10.325,15 1.032,52 0,00 0,00 0,00 0,00 0,00 4.566,90 15.924,57 1.610,44 1.811,13 0,00 0,00 3.421,57 12.503,00 30/11/2022
488 699000 CAROLLINA RODRIGUES SOUTO AMARAL ASSESSOR PROCURADOR JUSTICA BELO HORIZONTE - COMARCA; GABINETE DE PROCURADOR DE JUSTIÇA - SALA 405 0,00 0,00 7.857,77 0,00 0,00 0,00 0,00 1.911,00 9.768,77 828,38 1.430,30 0,00 0,00 2.258,68 7.510,09 30/11/2022
489 604000 CASSIA APARECIDA DA SILVA OFICIAL DO MP PARACATU - COMARCA; PARACATU-PJ-01PJ 6.694,66 669,47 0,00 0,00 0,00 0,00 0,00 1.911,00 9.275,13 971,47 888,62 0,00 0,00 1.860,09 7.415,04 30/11/2022
490 268800 CASSIA BEATRIZ TEIXEIRA OFICIAL DO MP BELO HORIZONTE - COMARCA; PROC JUST ESP ACOES COMP ORIG CRIMINAL-SEC 14.224,47 4.267,34 0,00 0,00 0,00 0,00 2.842,61 1.911,00 23.245,42 2.751,90 4.240,83 0,00 0,00 6.992,73 16.252,69 30/11/2022
491 500000 CASSIA DE OLIVEIRA COSTA VIANA ANALISTA DO MP SETE LAGOAS - COMARCA; SETE LAGOAS-PJ-09PJ 11.008,33 7.705,83 0,00 0,00 0,00 0,00 2.201,66 1.911,00 22.826,82 3.139,74 4.019,06 0,00 0,00 7.158,80 15.668,02 30/11/2022
492 368800 CASSIA LUISA BATISTA MENDONCA WEBER COORDENADOR II BELO HORIZONTE - COMARCA; DIVISÃO DE EDUCAÇÃO PARA O CONSUMO 18.312,36 5.493,71 0,00 0,00 0,00 0,00 0,00 1.911,00 25.717,07 1.711,60 3.775,78 0,00 5.203,04 10.690,42 15.026,65 30/11/2022
493 622200 CASSIA VAZ DE AZEVEDO LISBOA MARZANO ASSESSOR ADMINISTRATIVO III BELO HORIZONTE - COMARCA; CGMP-SECRETARIA DA CORREGEDORIA-GERAL DO MP 0,00 0,00 9.684,23 0,00 0,00 0,00 670,00 1.911,00 12.265,23 828,38 1.776,16 0,00 0,00 2.604,54 9.660,69 30/11/2022
494 121000 CASSIO HENRIQUE AFONSO DA SILVA OFICIAL DO MP BELO HORIZONTE - COMARCA; CGMP-ASSESSORIA JURIDICA 20.574,59 16.459,68 0,00 0,00 0,00 0,00 0,00 1.911,00 38.945,27 5.467,17 7.275,00 1.572,05 0,00 14.314,22 24.631,05 30/11/2022
495 512001 CATARINA NATALINO CALIXTO COORDENADOR II BELO HORIZONTE - COMARCA; DIRETORIA GESTAO TRANSPORTES 18.312,36 1.831,24 0,00 0,00 0,00 0,00 0,00 2.943,85 23.087,45 1.553,15 4.243,01 0,00 0,00 5.796,16 17.291,29 30/11/2022
496 606200 CATARINE DE SIQUEIRA DE QUADROS ANALISTA DO MP CONTAGEM - COMARCA; CONTAGEM-PJ-08PJ 10.325,15 1.032,52 0,00 0,00 0,00 0,00 0,00 2.796,30 14.153,97 1.610,44 1.706,85 0,00 0,00 3.317,29 10.836,68 30/11/2022
497 622300 CECILIA APARECIDA PEREIRA ASSUNCAO OFICIAL DO MP TRÊS PONTAS - COMARCA; TRES PONTAS-PJ-SECRETARIA 6.912,65 691,27 0,00 0,00 0,00 0,00 0,00 2.796,30 10.400,22 1.009,84 891,87 0,00 0,00 1.901,71 8.498,51 30/11/2022
498 538000 CECILIA FONTES DE MATOS PIMENTEL ANALISTA DO MP PALMA - COMARCA; PALMA-PJ-UNPJ 11.008,33 1.100,83 0,00 0,00 0,00 0,00 0,00 2.796,30 14.905,46 1.730,68 1.984,72 0,00 0,00 3.715,40 11.190,06 30/11/2022
499 261300 CECILIO ANTONIO CAMPOS DOS REIS ANALISTA DO MP BELO HORIZONTE - COMARCA; AUDITORIA INTERNA 20.574,59 6.172,38 0,00 0,00 0,00 0,00 1.249,15 1.911,00 29.907,12 4.072,73 5.709,57 0,00 0,00 9.782,30 20.124,82 30/11/2022
500 386400 CEFAS AMORELI DE FIGUEIREDO OFICIAL DO MP CABO VERDE - COMARCA; CABO VERDE-PJ-SECRETARIA 6.694,66 1.338,93 0,00 0,00 0,00 0,00 0,00 1.911,00 9.944,59 1.078,59 1.043,27 0,00 0,00 2.121,86 7.822,73 30/11/2022
501 149000 CELIA MAGALHAES CLAROS SOSSI OFICIAL DO MP GOVERNADOR VALADARES - COMARCA; GAECO REGIONAL DE GOVERNADOR VALADARES 19.791,01 13.853,71 0,00 0,00 0,00 5.176,37 0,00 1.911,00 40.732,09 5.176,37 8.382,94 0,00 0,00 13.559,31 27.172,78 30/11/2022
502 421000 CELINA BENEDITA DE SOUZA ALMEIDA OFICIAL DO MP CAMBUÍ - COMARCA; CAMBUI-PJ-01PJ 9.999,62 6.999,73 0,00 0,00 0,00 0,00 0,00 1.911,00 18.910,35 2.513,11 3.062,22 0,00 0,00 5.575,33 13.335,02 30/11/2022
503 252900 CELIO DE MELO CASTOR ANALISTA DO MP BELO HORIZONTE - COMARCA; DIVISAO FROTA 20.574,59 6.172,38 0,00 0,00 0,00 0,00 0,00 1.911,00 28.657,97 4.072,73 5.366,06 0,00 0,00 9.438,79 19.219,18 30/11/2022
504 395700 CELIO FERREIRA LIMA OFICIAL DO MP CONTAGEM - COMARCA; CONTAGEM-PJ-SECRETARIA 10.325,15 2.065,03 0,00 0,00 0,00 0,00 0,00 1.911,00 14.301,18 1.775,64 1.997,50 0,00 0,00 3.773,14 10.528,04 30/11/2022
505 281300 CELMA REGINA PEREIRA SANTOS ANALISTA DO MP BELO HORIZONTE - COMARCA; PROMOT ESTADUAL DE DEF PATRI CULT E TUR DE MG 20.574,59 6.172,38 0,00 0,00 0,00 0,00 0,00 1.911,00 28.657,97 4.072,73 5.366,06 0,00 0,00 9.438,79 19.219,18 30/11/2022
506 535600 CELSO MEDEIROS DE PAIVA OFICIAL DO MP RIO PRETO - COMARCA; RIO PRETO-PJ-SECRETARIA 6.694,66 669,47 0,00 0,00 0,00 0,00 0,00 1.911,00 9.275,13 971,47 836,48 0,00 0,00 1.807,95 7.467,18 30/11/2022
507 367000 CESAR NARVAES DE AVELAR OFICIAL DO MP BELO HORIZONTE - COMARCA; DIRET DE INFORMACAO E CONHECIMENTO-DINC/CEAF 11.008,33 3.302,50 0,00 0,00 0,00 0,00 0,00 1.911,00 16.221,83 2.082,95 2.493,31 0,00 0,00 4.576,26 11.645,57 30/11/2022
508 226500 CESAR SILVEIRA BARROUIN OFICIAL DO MP BELO HORIZONTE - COMARCA; DIRETORIA DE ADMINISTRACAO FINANCEIRA 15.659,55 6.263,82 0,00 0,00 0,00 0,00 0,00 1.911,00 23.834,37 3.300,95 4.251,80 0,00 0,00 7.552,75 16.281,62 30/11/2022
509 121400 CEZAR MORENO CONCEICAO TAVARES OFICIAL DO MP BELO HORIZONTE - COMARCA; COORD DE INCLUSAO E MOBILIZACAO SOCIAIS 19.037,29 15.229,84 0,00 0,00 0,00 12.668,66 0,00 2.796,30 49.732,09 5.275,95 10.401,87 0,00 0,00 15.677,82 34.054,27 30/11/2022
510 243800 CHARLES MARTINS MUNIZ OFICIAL DO MP BELO HORIZONTE - COMARCA; LAB TECNOLOGIA CONTRA LAVAGEM DINHEIRO 15.659,55 6.263,82 0,00 0,00 0,00 0,00 0,00 1.333,00 23.256,37 3.300,95 4.251,80 0,00 0,00 7.552,75 15.703,62 30/11/2022
511 193500 CHARLIN CESAR KOURLY OFICIAL DO MP ARAGUARI - COMARCA; ARAGUARI-PJ-07PJ 18.312,36 7.324,94 0,00 0,00 0,00 0,00 0,00 1.911,00 27.548,30 3.895,18 5.109,72 0,00 0,00 9.004,90 18.543,40 30/11/2022
512 385500 CHILLEN PEIXOTO DE MOURA OFICIAL DO MP BELO HORIZONTE - COMARCA; DIVISAO DE MATERIAIS 10.325,15 2.065,03 0,00 0,00 0,00 0,00 0,00 2.796,30 15.186,48 1.775,64 2.049,64 0,00 0,00 3.825,28 11.361,20 30/11/2022
513 534500 CHRISTIAN DOUGLAS BRITO RUAS OFICIAL DO MP SÃO JOÃO DA PONTE - COMARCA; SAO JOAO DA PONTE-PJ-SECRETARIA 6.694,66 669,47 0,00 0,00 0,00 0,00 0,00 1.911,00 9.275,13 971,47 888,62 0,00 0,00 1.860,09 7.415,04 30/11/2022
514 370600 CHRISTIAN KARINE FELIX PRATES ASSESSOR ADMINISTRATIVO IV BELO HORIZONTE - COMARCA; SUPRIN DE PLANEJAMENTO E COORDENACAO 0,00 0,00 12.920,95 0,00 0,00 0,00 331,64 5.528,87 18.781,46 828,38 2.822,67 0,00 0,00 3.651,05 15.130,41 30/11/2022
515 435800 CHRISTIANA BAHIA ANDRADE PINA ANALISTA DO MP BELO HORIZONTE - COMARCA; LABORATORIO TECNOLOGIA INTELIGENCIA 15.659,55 3.131,91 0,00 0,00 0,00 0,00 0,00 1.911,00 20.702,46 2.799,85 3.528,33 0,00 0,00 6.328,18 14.374,28 30/11/2022
516 516800 CHRISTIANE FERREIRA DO NASCIMENTO ANALISTA DO MP POUSO ALEGRE - COMARCA; POUSO ALEGRE-PJ-08PJ 11.008,33 2.201,67 0,00 0,00 0,00 0,00 0,00 1.911,00 15.121,00 1.906,81 2.239,02 0,00 0,00 4.145,83 10.975,17 30/11/2022
517 176000 CHRISTIANE JUNQUEIRA PULITI ANDRADE DE BARROS ASSESSOR ADM. ESPECIAL BELO HORIZONTE - COMARCA; PROCURADORIA-GERAL ADJUNTA INSTITUCIONAL 0,00 19.986,35 24.982,93 0,00 0,00 5.467,17 0,00 1.911,00 52.347,45 5.467,17 8.882,75 9.507,06 0,00 23.856,98 28.490,47 30/11/2022
518 319200 CHRISTIANE MARIA DE ASSIS RUSSO OFICIAL DO MP BELO HORIZONTE - COMARCA; CAO-ORDEM ECONOMICA E TRIBUTARIA-SECRETARIA 13.341,69 4.002,51 0,00 0,00 0,00 0,00 0,00 2.796,30 20.140,50 2.568,29 3.141,88 0,00 0,00 5.710,17 14.430,33 30/11/2022
519 510300 CHRISTIANE MARY DE CARVALHO FERREIRA ANALISTA DO MP BELO HORIZONTE - COMARCA; DIRETORIA DE SISTEMAS DE INFORMACAO 11.008,33 2.201,67 0,00 0,00 0,00 0,00 0,00 1.911,00 15.121,00 1.906,81 2.186,88 0,00 0,00 4.093,69 11.027,31 30/11/2022
520 424900 CHRISTIANE PEREIRA TURNER DE ARAUJO OFICIAL DO MP BELO HORIZONTE - COMARCA; CAO-PATRIMONIO PUBLICO 9.684,23 1.936,85 0,00 0,00 0,00 0,00 0,00 2.796,30 14.417,38 1.652,59 1.767,70 0,00 0,00 3.420,29 10.997,09 30/11/2022
521 731000 CHRISTIANE TEIXEIRA ANTUNA ASSESSOR ADMINISTRATIVO II BELO HORIZONTE - COMARCA; DIR CONTEUDO JORNALISTICO 0,00 0,00 6.694,66 0,00 0,00 0,00 1.115,78 2.791,95 10.602,39 828,38 1.500,59 0,00 0,00 2.328,97 8.273,42 30/11/2022
522 513700 CHRISTIANE VIEIRA SOARES PEDERSOLI COORDENADOR II BELO HORIZONTE - COMARCA; ASSESSORIA JURIDICA DO PROCON-MG 18.312,36 3.662,47 0,00 0,00 0,00 0,00 0,00 2.796,30 24.771,13 1.906,81 4.649,34 0,00 0,00 6.556,15 18.214,98 30/11/2022
523 412300 CHRYSTIAN MACHADO RIBEIRO ANALISTA DO MP VARGINHA - COMARCA; VARGINHA-PJ-04PJ 16.169,47 3.233,89 0,00 0,00 0,00 0,00 0,00 1.911,00 21.314,36 2.897,75 3.669,68 0,00 0,00 6.567,43 14.746,93 30/11/2022
524 513800 CHRYSTIANE DO NASCIMENTO DE MAGALHAES OFICIAL DO MP UBERLÂNDIA - COMARCA; UBERLANDIA-PJ-10PJ 8.650,50 1.730,10 0,00 0,00 0,00 0,00 0,00 1.911,00 12.291,60 1.454,11 1.481,15 0,00 0,00 2.935,26 9.356,34 30/11/2022
525 497900 CIBELE DE FREITAS SANCHES DIAS ANALISTA DO MP SABARÁ - COMARCA; SABARA-PJ-03PJ 11.008,33 2.201,67 0,00 0,00 4.403,33 0,00 0,00 1.911,00 19.524,33 927,17 3.540,91 0,00 0,00 4.468,08 15.056,25 30/11/2022
526 500900 CIBELLE SILVA PRADO ALVARENGA ANALISTA DO MP ITANHANDU - COMARCA; ITANHANDU-PJ-UNPJ 11.008,33 2.201,67 0,00 0,00 0,00 0,00 0,00 2.796,30 16.006,30 1.906,81 2.239,02 0,00 0,00 4.145,83 11.860,47 30/11/2022
527 296400 CINTIA APARECIDA MOREIRA NAVES E RODRIGUES ANALISTA DO MP CAMPO BELO - COMARCA; CAMPO BELO-PJ-01PJ 20.574,59 6.172,38 0,00 0,00 0,00 0,00 0,00 1.911,00 28.657,97 4.072,73 5.366,06 0,00 0,00 9.438,79 19.219,18 30/11/2022
528 407900 CINTIA NETO COMELLI ANALISTA DO MP BELO HORIZONTE - COMARCA; CENTRAL DE APOIO TECNICO-SETOR CONTABIL 16.169,47 3.233,89 0,00 0,00 0,00 0,00 0,00 1.911,00 21.314,36 2.897,75 3.617,55 0,00 0,00 6.515,30 14.799,06 30/11/2022
529 304700 CINTIA QUEIROZ OFICIAL DO MP BELO HORIZONTE - COMARCA; OUVIDORIA DO MPMG 11.008,33 3.302,50 0,00 0,00 0,00 0,00 0,00 1.911,00 16.221,83 2.082,95 2.493,31 0,00 0,00 4.576,26 11.645,57 30/11/2022
530 286100 CIRO CANGUSSU CORDEIRO OFICIAL DO MP IPATINGA - COMARCA; IPATINGA-PJ-09PJ 8.650,50 2.595,15 0,00 0,00 0,00 0,00 0,00 2.796,30 14.041,95 1.592,52 1.680,98 0,00 0,00 3.273,50 10.768,45 30/11/2022
531 689900 CISSA NOGUEIRA COLEN ASSESSOR PROCURADOR JUSTICA BELO HORIZONTE - COMARCA; GABINETE DE PROCURADOR DE JUSTIÇA - SALA 608 0,00 0,00 7.857,77 0,00 0,00 0,00 0,00 1.911,00 9.768,77 828,38 1.430,30 0,00 0,00 2.258,68 7.510,09 30/11/2022
532 681700 CLARA FERREIRA ALKIMIM ASSESSOR PROMOTOR JUSTICA PEDRA AZUL - COMARCA; PEDRA AZUL-PJ-02PJ 0,00 0,00 7.857,77 0,00 0,00 0,00 0,00 1.911,00 9.768,77 828,38 1.430,30 0,00 0,00 2.258,68 7.510,09 30/11/2022
533 715500 CLARA ISABELLE SOUSA FARIA ASSESSOR PROCURADOR JUSTICA BELO HORIZONTE - COMARCA; GABINETE DE PROCURADOR DE JUSTIÇA - SALA 712 0,00 0,00 7.857,77 0,00 0,00 0,00 0,00 1.911,00 9.768,77 828,38 1.430,30 0,00 0,00 2.258,68 7.510,09 30/11/2022
534 723100 CLARA PRADO CAMPOS ASSESSOR PROCURADOR JUSTICA BELO HORIZONTE - COMARCA; GABINETE DE PROCURADOR DE JUSTIÇA - SALA 1006 0,00 0,00 7.857,77 0,00 0,00 0,00 0,00 1.911,00 9.768,77 828,38 1.430,30 0,00 0,00 2.258,68 7.510,09 30/11/2022
535 695500 CLARA RODRIGUES BLACH ASSESSOR PROCURADOR JUSTICA BELO HORIZONTE - COMARCA; GABINETE DE PROCURADOR DE JUSTIÇA - SALA 1003 0,00 0,00 7.857,77 0,00 0,00 0,00 0,00 1.911,00 9.768,77 828,38 1.430,30 0,00 0,00 2.258,68 7.510,09 30/11/2022
536 412500 CLARICE GOMES MAROTTA ANALISTA DO MP BELO HORIZONTE - COMARCA; COORD ESTADUAL DE DEFESA DOS ANIMAIS 15.659,55 4.697,87 0,00 0,00 0,00 0,00 0,00 1.911,00 22.268,42 3.050,40 3.890,07 0,00 0,00 6.940,47 15.327,95 30/11/2022
537 605300 CLARISSA AZEVEDO ROCHA OFICIAL DO MP BELO HORIZONTE - COMARCA; BH-17PJ PATRIMONIO PUBLICO-SECRETARIA 6.694,66 669,47 0,00 0,00 0,00 0,00 0,00 1.911,00 9.275,13 971,47 888,62 0,00 0,00 1.860,09 7.415,04 30/11/2022
538 308100 CLARISSA DUARTE BELLONI DIRETOR-GERAL BELO HORIZONTE - COMARCA; DIRETORIA-GERAL 30.917,06 9.275,12 0,00 0,00 0,00 0,00 24.982,93 4.566,90 69.742,01 4.072,73 14.528,78 4.729,96 0,00 23.331,47 46.410,54 30/11/2022
539 730500 CLARISSA FERNANDES ABREU ASSESSOR PROMOTOR JUSTICA SANTOS DUMONT - COMARCA; SANTOS DUMONT-PJ-02PJ 0,00 0,00 7.857,77 0,00 0,00 0,00 4.714,66 3.337,27 15.909,70 828,38 2.960,10 0,00 0,00 3.788,48 12.121,22 30/11/2022
540 497100 CLARISSA ROCHA GUIDI ANALISTA DO MP BELO HORIZONTE - COMARCA; BH-02PJ FAMILIA-SECRETARIA 13.341,69 2.668,34 0,00 0,00 0,00 0,00 0,00 3.681,60 19.691,63 2.354,82 2.833,69 0,00 0,00 5.188,51 14.503,12 30/11/2022
541 641800 CLARISSE TAVARES GONCALVES OFICIAL DO MP BELO HORIZONTE - COMARCA; BH-07PJ 01 TRIBUNAL JURI-SECRETARIA 6.483,63 648,36 0,00 0,00 0,00 0,00 0,00 1.911,00 9.042,99 927,17 836,97 0,00 0,00 1.764,14 7.278,85 30/11/2022
542 463700 CLAUDIA ADRIANA FERRAO DIAS ANALISTA DO MP SETE LAGOAS - COMARCA; SETE LAGOAS-PJ-06PJ 11.008,33 2.201,67 0,00 0,00 0,00 0,00 0,00 1.911,00 15.121,00 1.906,81 2.239,02 0,00 0,00 4.145,83 10.975,17 30/11/2022
543 415400 CLAUDIA ALMEIDA DE VASCONCELLOS BARROS OFICIAL DO MP BELO HORIZONTE - COMARCA; DIVISAO DE SERVICOS 9.684,23 1.936,85 3.585,64 0,00 0,00 0,00 0,00 1.911,00 17.117,72 1.652,59 2.858,03 0,00 0,00 4.510,62 12.607,10 30/11/2022
544 207000 CLAUDIA APARECIDA VILELA MACHADO ANALISTA DO MP BELO HORIZONTE - COMARCA; CENTRAL DE APOIO TECNICO-SETOR CONTABIL 20.574,59 8.229,84 0,00 0,00 0,00 0,00 0,00 1.911,00 30.715,43 4.401,92 5.684,92 0,00 0,00 10.086,84 20.628,59 30/11/2022
545 365700 CLAUDIA BREGUEZ CUNHA ANALISTA DO MP VARGINHA - COMARCA; VARGINHA-PJ-07PJ 18.312,36 5.493,71 0,00 0,00 0,00 0,00 0,00 2.796,30 26.602,37 3.602,18 4.686,71 0,00 0,00 8.288,89 18.313,48 30/11/2022
546 430500 CLAUDIA CECILIA SANTANA VENCESLAU OFICIAL DO MP BELO HORIZONTE - COMARCA; LAB TECNOLOGIA CONTRA LAVAGEM DINHEIRO 9.684,23 1.936,85 0,00 0,00 0,00 0,00 0,00 1.911,00 13.532,08 1.652,59 1.819,84 0,00 0,00 3.472,43 10.059,65 30/11/2022
547 213601 CLAUDIA GONCALVES CALIXTO ASSESSOR PROCURADOR JUSTICA BELO HORIZONTE - COMARCA; PROC. JUSTICA DIR. DIFUSOS E COLETIVOS-SEC 0,00 0,00 7.857,77 0,00 0,00 0,00 940,00 1.911,00 10.708,77 828,38 1.430,30 0,00 0,00 2.258,68 8.450,09 30/11/2022
548 480400 CLAUDIA GOULART DE SOUZA OFICIAL DO MP PASSOS - COMARCA; PASSOS-PJ-06PJ 9.378,86 2.813,66 0,00 0,00 0,00 0,00 0,00 1.911,00 14.103,52 1.744,02 2.003,98 0,00 0,00 3.748,00 10.355,52 30/11/2022
549 519800 CLAUDIA HELENA CORREA DE ALMEIDA ANALISTA DO MP BELO HORIZONTE - COMARCA; BH-12PJ JUIZO CRIMINAL-GAB 096PJ 11.008,33 2.201,67 0,00 0,00 0,00 0,00 0,00 1.911,00 15.121,00 1.906,81 2.239,02 0,00 0,00 4.145,83 10.975,17 30/11/2022
550 422100 CLAUDIA IACOMINI CABRAL ANALISTA DO MP BELO HORIZONTE - COMARCA; CENT DE APOIO TEC-SETOR DEF,IDOSO E INFANC 15.659,55 10.961,70 0,00 0,00 0,00 0,00 0,00 1.911,00 28.532,25 4.052,61 5.337,01 0,00 0,00 9.389,62 19.142,63 30/11/2022
551 258200 CLAUDIA LAGE MICHALAROS ANALISTA DO MP BELO HORIZONTE - COMARCA; CENTRAL DE APOIO TECN-SETOR DE MEIO AMBIENTE 20.574,59 14.402,22 0,00 0,00 0,00 5.389,50 0,00 1.911,00 42.277,31 5.389,50 8.749,26 0,00 0,00 14.138,76 28.138,55 30/11/2022
552 284600 CLAUDIA LENI DE FREITAS OFICIAL DO MP CONTAGEM - COMARCA; CONTAGEM-PJ-SECRETARIA 6.694,66 2.677,86 0,00 0,00 0,00 1.292,82 0,00 1.911,00 12.576,34 1.292,82 1.708,08 0,00 0,00 3.000,90 9.575,44 30/11/2022
553 433600 CLAUDIA LUIZA SANTIAGO FELICIO ANALISTA DO MP BELO HORIZONTE - COMARCA; CENT DE APOIO TEC-SETOR DEF,IDOSO E INFANC 15.659,55 3.131,91 0,00 0,00 0,00 0,00 0,00 1.911,00 20.702,46 2.799,85 3.424,06 0,00 0,00 6.223,91 14.478,55 30/11/2022
554 317000 CLAUDIA MACHADO ALVES OFICIAL DO MP BELO HORIZONTE - COMARCA; DIR GOVERNANCA TECNOLOGIA INFORMACAO 10.661,25 3.198,38 3.585,64 0,00 0,00 0,00 0,00 1.911,00 19.356,27 2.010,75 3.375,13 0,00 0,00 5.385,88 13.970,39 30/11/2022
555 155300 CLAUDIA MACIEL MIRANDA OFICIAL DO MP CONGONHAS - COMARCA; CONGONHAS-PJ-02PJ 19.037,29 9.518,65 0,00 0,00 0,00 0,00 0,00 1.911,00 30.466,94 4.362,16 5.679,65 0,00 0,00 10.041,81 20.425,13 30/11/2022
556 242200 CLAUDIA MICHELLE DIAS MUNIZ BALEEIRO OFICIAL DO MP MONTE AZUL - COMARCA; MONTE AZUL-PJ-SECRETARIA 14.224,47 5.689,79 0,00 0,00 0,00 0,00 0,00 1.911,00 21.825,26 2.979,50 3.735,56 0,00 0,00 6.715,06 15.110,20 30/11/2022
557 623000 CLAUDIA PATRICIA SILVA RODRIGUES RAPOSEIRAS OFICIAL DO MP BELO HORIZONTE - COMARCA; DIVISÃO DE EDUCAÇÃO PARA O CONSUMO 6.694,66 669,47 0,00 0,00 0,00 0,00 0,00 2.796,30 10.160,43 971,47 836,48 0,00 0,00 1.807,95 8.352,48 30/11/2022
558 418400 CLAUDIA REGINA MARTINS BONIFACIO OFICIAL DO MP ITUIUTABA - COMARCA; ITUIUTABA-PJ-06PJ 9.999,62 1.999,92 0,00 0,00 0,00 0,00 0,00 1.911,00 13.910,54 1.713,14 1.855,13 0,00 0,00 3.568,27 10.342,27 30/11/2022
559 498300 CLAUDIA SOUTO FARIAS BRAUN OFICIAL DO MP TEÓFILO OTONI - COMARCA; TEOFILO OTONI-PJ-SECRETARIA 6.694,66 1.338,93 0,00 0,00 0,00 0,00 0,00 1.911,00 9.944,59 1.078,59 938,99 0,00 0,00 2.017,58 7.927,01 30/11/2022
560 206500 CLAUDIA VALERIA FONSECA ANDRADE ANALISTA DO MP BELO HORIZONTE - COMARCA; BH-23PJ INF-FISC MED SOC FEC 20.574,59 10.287,30 0,00 0,00 0,00 4.731,12 0,00 1.911,00 37.504,01 4.731,12 7.617,66 0,00 0,00 12.348,78 25.155,23 30/11/2022
561 277500 CLAUDIO ANTONIO BORGES BRUNSWICK ALVARES OFICIAL DO MP BELO HORIZONTE - COMARCA; BH-15PJ M AMB PAT HIST CULT-GAB 116PJ 11.008,33 3.302,50 0,00 0,00 0,00 0,00 0,00 1.911,00 16.221,83 2.082,95 2.493,31 0,00 0,00 4.576,26 11.645,57 30/11/2022
562 444800 CLAUDIO ARESIO DO CARMO ANALISTA DO MP SETE LAGOAS - COMARCA; SETE LAGOAS-PJ-01PJ 12.118,97 4.847,59 0,00 0,00 0,00 0,00 0,00 1.911,00 18.877,56 2.507,86 3.054,64 0,00 0,00 5.562,50 13.315,06 30/11/2022
563 545100 CLAUDIO HENRIQUE MACEDO DE SOUZA FRANSOZO ANALISTA DO MP OURO PRETO - COMARCA; OURO PRETO-PJ-03PJ 11.008,33 1.100,83 0,00 0,00 0,00 0,00 0,00 2.796,30 14.905,46 927,17 2.102,11 0,00 0,00 3.029,28 11.876,18 30/11/2022
564 353500 CLAUDIO HENRIQUE PEDRO DA ROCHA OFICIAL DO MP BELO HORIZONTE - COMARCA; DIVISAO TRANSPORTES 11.008,33 3.302,50 0,00 0,00 0,00 0,00 0,00 1.911,00 16.221,83 2.082,95 2.389,03 0,00 0,00 4.471,98 11.749,85 30/11/2022
565 265800 CLAUDIO KUPIDLOWSKY FERNANDES OFICIAL DO MP BELO HORIZONTE - COMARCA; SECRETARIA DO PROCON-MG 11.008,33 3.302,50 0,00 0,00 0,00 0,00 0,00 1.911,00 16.221,83 2.082,95 1.633,77 0,00 0,00 3.716,72 12.505,11 30/11/2022
566 193600 CLAUDIO LEITE FONTES OFICIAL DO MP ITUIUTABA - COMARCA; ITUIUTABA-PJ-02PJ 11.008,33 4.403,33 0,00 0,00 0,00 0,00 0,00 1.911,00 17.322,66 2.259,08 2.414,30 0,00 0,00 4.673,38 12.649,28 30/11/2022
567 329400 CLAUDIO MARCIO BERNARDES OFICIAL DO MP ITAÚNA - COMARCA; ITAUNA-PJ-03PJ 11.008,33 8.806,66 0,00 0,00 0,00 0,00 0,00 2.796,30 22.611,29 2.963,61 3.712,63 0,00 0,00 6.676,24 15.935,05 30/11/2022
568 270200 CLAUDIO RABELO ALVES OFICIAL DO MP FORMIGA - COMARCA; FORMIGA-PJ-03PJ 13.341,69 4.002,51 0,00 0,00 0,00 0,00 0,00 1.911,00 19.255,20 2.568,29 2.985,47 0,00 0,00 5.553,76 13.701,44 30/11/2022
569 264700 CLAUDIO ROBERTO KFURI DE ARAUJO ANALISTA DO MP BELO HORIZONTE - COMARCA; CENTRAL DE APOIO TECNICO-SETOR DE INFORMATICA 20.574,59 6.172,38 0,00 0,00 0,00 0,00 0,00 1.911,00 28.657,97 4.072,73 5.261,78 0,00 0,00 9.334,51 19.323,46 30/11/2022
570 188600 CLAUDIO SALES OFICIAL DO MP NEPOMUCENO - COMARCA; NEPOMUCENO-PJ-SECRETARIA 16.695,70 13.356,56 0,00 0,00 0,00 0,00 0,00 2.796,30 32.848,56 4.601,58 6.129,58 0,00 0,00 10.731,16 22.117,40 30/11/2022
571 543300 CLAUDIO SILVA DE CARVALHO ANALISTA DO MP CAMPO BELO - COMARCA; CAMPO BELO-PJ-03PJ 10.325,15 1.032,52 0,00 0,00 0,00 0,00 0,00 1.911,00 13.268,67 1.610,44 1.758,99 0,00 0,00 3.369,43 9.899,24 30/11/2022
572 160700 CLAUDIO VICENTE HESS ASSESSOR DE GABINETE I BELO HORIZONTE - COMARCA; CENTRAL DE APOIO TECNICO-SETOR DE INFORMATICA 0,00 8.084,74 16.169,47 0,00 0,00 0,00 0,00 1.911,00 26.165,21 828,38 5.835,04 0,00 0,00 6.663,42 19.501,79 30/11/2022
573 312900 CLAUDIO VIEIRA FIRPE OFICIAL DO MP BELO HORIZONTE - COMARCA; DIR RELACOES INSTITUCIONAIS 11.008,33 3.302,50 0,00 0,00 0,00 0,00 0,00 1.911,00 16.221,83 2.082,95 2.493,31 0,00 0,00 4.576,26 11.645,57 30/11/2022
574 634100 CLEA CRISTINA GUERRA DE FREITAS COSTA OFICIAL DO MP BELO HORIZONTE - COMARCA; BH-18PJ VIOLENCIA DOMESTICA-SECRETARIA 6.483,63 648,36 0,00 0,00 0,00 0,00 0,00 1.911,00 9.042,99 934,33 782,86 0,00 0,00 1.717,19 7.325,80 30/11/2022
575 459200 CLEIA ZILLE PEREIRA ANALISTA DO MP BELO HORIZONTE - COMARCA; BH-07PJ 01 TRIBUNAL DO JURI-GAB 059PJ 11.008,33 2.201,67 0,00 0,00 0,00 0,00 0,00 3.238,95 16.448,95 1.906,81 2.239,02 0,00 0,00 4.145,83 12.303,12 30/11/2022
576 481800 CLEIDE CARDOSO DA SILVA ANALISTA DO MP MANHUAÇU - COMARCA; MANHUACU-PJ-04PJ 11.008,33 2.201,67 0,00 0,00 0,00 0,00 0,00 1.911,00 15.121,00 1.906,81 2.134,74 0,00 0,00 4.041,55 11.079,45 30/11/2022
577 347600 CLEIDIMAR DE OLIVEIRA SILVA OFICIAL DO MP PATOS DE MINAS - COMARCA; PATOS DE MINAS-PJ-03PJ 10.661,25 3.198,38 0,00 0,00 0,00 0,00 0,00 1.911,00 15.770,63 2.010,75 2.180,53 0,00 0,00 4.191,28 11.579,35 30/11/2022
578 396500 CLEIDISON BATISTA DE ANDRADE OFICIAL DO MP RESPLENDOR - COMARCA; RESPLENDOR-PJ-UNPJ 9.684,23 1.936,85 0,00 0,00 0,00 0,00 0,00 1.911,00 13.532,08 1.652,59 1.767,70 0,00 0,00 3.420,29 10.111,79 30/11/2022
579 535100 CLEISON ALVES DA SILVA ANALISTA DO MP BOA ESPERANÇA - COMARCA; BOA ESPERANCA-PJ-01PJ 11.008,33 1.100,83 0,00 0,00 0,00 0,00 0,00 1.911,00 14.020,16 1.730,68 1.880,45 0,00 0,00 3.611,13 10.409,03 30/11/2022
580 298100 CLEONICE AUGUSTA BARROS DE OLIVEIRA ANALISTA DO MP JUIZ DE FORA - COMARCA; JUIZ DE FORA-PJ-08PJ 20.574,59 6.172,38 0,00 0,00 0,00 0,00 0,00 1.911,00 28.657,97 4.072,73 5.366,06 0,00 0,00 9.438,79 19.219,18 30/11/2022
581 264100 CLETO HENRIQUE ANDRADE SILVA ANALISTA DO MP BELO HORIZONTE - COMARCA; DIRETORIA DE SISTEMAS DE INFORMACAO 20.574,59 6.172,38 0,00 0,00 0,00 0,00 0,00 1.911,00 28.657,97 4.072,73 5.261,78 0,00 0,00 9.334,51 19.323,46 30/11/2022
582 334400 CLEUBA DE OLIVEIRA BARCELOS GONCALVES OFICIAL DO MP DIVINÓPOLIS - COMARCA; COORD REG SAUDE MACRORREGIAO SANITARIA OESTE 11.008,33 3.302,50 0,00 0,00 0,00 0,00 3.374,80 1.911,00 19.596,63 2.082,95 3.369,24 0,00 0,00 5.452,19 14.144,44 30/11/2022
583 347500 CLEUSA CORDEIRO DA MATA PIMENTA OFICIAL DO MP CAMPO BELO - COMARCA; CAMPO BELO-PJ-01PJ 11.008,33 8.806,67 0,00 0,00 0,00 2.963,61 0,00 1.911,00 24.689,61 2.963,61 4.527,63 0,00 0,00 7.491,24 17.198,37 30/11/2022
584 510200 CLEZIO SALES SILVA OFICIAL DO MP BRASÓPOLIS - COMARCA; BRASOPOLIS-PJ-UNPJ 6.694,66 1.338,93 0,00 0,00 0,00 0,00 0,00 2.796,30 10.829,89 1.078,59 1.043,27 0,00 0,00 2.121,86 8.708,03 30/11/2022
585 323000 CLOTILDE DE PADUA VIEIRA OFICIAL DO MP BELO HORIZONTE - COMARCA; BH-19PJ SAUDE-SECRETARIA 129PJ 9.999,62 2.999,89 0,00 0,00 0,00 0,00 0,00 1.911,00 14.910,51 1.873,14 2.190,39 0,00 0,00 4.063,53 10.846,98 30/11/2022
586 285200 CLOVIS ANDRE LUDTKE OFICIAL DO MP BELO HORIZONTE - COMARCA; DIVISAO DE MANUTENCAO PREDIAL 11.366,79 3.410,04 0,00 0,00 0,00 0,00 0,00 1.911,00 16.687,83 2.157,51 2.600,95 0,00 0,00 4.758,46 11.929,37 30/11/2022
587 381100 CONCEICAO APARECIDA TEIXEIRA ARANTES ANALISTA DO MP BELO HORIZONTE - COMARCA; BH-23PJ INFRACIONAL-ASS JURIDICA 16.944,07 3.388,81 0,00 0,00 0,00 0,00 4.182,96 2.796,30 27.312,14 3.715,75 4.798,53 0,00 0,00 8.514,28 18.797,86 30/11/2022
588 249900 CONSTANTINO CEZAR GOMES MOTA OFICIAL DO MP MONTES CLAROS - COMARCA; COORD REG BACIA RIOS VERDE GRANDE E PARDO 11.008,33 3.302,50 0,00 0,00 0,00 0,00 0,00 3.681,60 17.992,43 2.082,95 2.389,03 0,00 0,00 4.471,98 13.520,45 30/11/2022
589 481000 CRISHMA ANALIA LOMBELLO ANALISTA DO MP JUIZ DE FORA - COMARCA; JUIZ DE FORA-PJ-13PJ 11.008,33 2.201,67 0,00 0,00 0,00 0,00 0,00 1.911,00 15.121,00 1.906,81 2.186,88 0,00 0,00 4.093,69 11.027,31 30/11/2022
590 523900 CRISTHYANE BAZOLI COSTA GUEDES COUTO OFICIAL DO MP BELO HORIZONTE - COMARCA; BH-04PJ JUIZO REG PÚBLICOS-SECRETARIA 8.377,76 1.675,55 0,00 0,00 0,00 0,00 0,00 1.911,00 11.964,31 1.401,74 1.509,82 0,00 0,00 2.911,56 9.052,75 30/11/2022
591 187000 CRISTIAN DAYVSON EVANGELISTA OFICIAL DO MP JUIZ DE FORA - COMARCA; JUIZ DE FORA-PJ-13PJ 16.695,70 6.678,28 0,00 0,00 0,00 0,00 1.580,00 1.911,00 26.864,98 3.533,05 4.969,26 0,00 0,00 8.502,31 18.362,67 30/11/2022
592 682100 CRISTIAN TRISTAO DE ANDRADE ASSESSOR PROMOTOR JUSTICA TRÊS CORACOES - COMARCA; TRES CORACOES-PJ-04PJ 0,00 0,00 7.857,77 0,00 0,00 0,00 0,00 1.911,00 9.768,77 828,38 1.430,30 0,00 0,00 2.258,68 7.510,09 30/11/2022
593 319800 CRISTIANA GONCALVES DOS SANTOS GUSMAO OFICIAL DO MP PARAOPEBA - COMARCA; PARAOPEBA-PJ-UNPJ 11.008,33 3.302,50 0,00 0,00 0,00 0,00 0,00 1.911,00 16.221,83 2.082,95 2.493,31 0,00 0,00 4.576,26 11.645,57 30/11/2022
594 520600 CRISTIANA JANAINA BARBOZA JUVENCIO DOS SANTOS ANALISTA DO MP BELO HORIZONTE - COMARCA; BH-02PJ FAMILIA-SECRETARIA 11.008,33 2.201,67 0,00 0,00 0,00 0,00 0,00 1.911,00 15.121,00 1.906,81 2.239,02 0,00 0,00 4.145,83 10.975,17 30/11/2022
595 195600 CRISTIANA SOARES HALABI OFICIAL DO MP UBERABA - COMARCA; UBERABA-PJ-01PJ 17.614,89 7.045,96 0,00 0,00 0,00 0,00 0,00 1.911,00 26.571,85 3.738,95 4.884,16 0,00 0,00 8.623,11 17.948,74 30/11/2022
596 218900 CRISTIANE ALVES BELLES OFICIAL DO MP JUIZ DE FORA - COMARCA; JUIZ DE FORA-PJ-10PJ 6.694,66 2.677,86 0,00 0,00 0,00 0,00 0,00 3.238,95 12.611,47 1.292,82 1.248,28 0,00 0,00 2.541,10 10.070,37 30/11/2022
597 263600 CRISTIANE CARVALHO COUTINHO OFICIAL DO MP BELO HORIZONTE - COMARCA; BH-23PJ INFRACIONAL-SEC EXP 11.736,91 3.521,07 0,00 0,00 0,00 0,00 0,00 1.911,00 17.168,98 2.234,49 2.659,96 0,00 0,00 4.894,45 12.274,53 30/11/2022
598 541000 CRISTIANE COELHO ALVES OFICIAL DO MP ITABIRA - COMARCA; ITABIRA-PJ-03PJ 6.694,66 669,47 0,00 0,00 0,00 0,00 0,00 1.911,00 9.275,13 971,47 836,48 0,00 0,00 1.807,95 7.467,18 30/11/2022
599 441700 CRISTIANE CORRADO DE ANDRADE ANALISTA DO MP BELO HORIZONTE - COMARCA; DIRETORIA DE SISTEMAS DE INFORMACAO 15.659,55 3.131,91 3.585,64 0,00 0,00 0,00 0,00 1.911,00 24.288,10 2.799,85 4.514,38 0,00 0,00 7.314,23 16.973,87 30/11/2022
600 375100 CRISTIANE DAS DORES ERCIO DE LIMA OFICIAL DO MP GOVERNADOR VALADARES - COMARCA; GOVERNADOR VALADARES-PJ-12PJ 10.325,15 2.065,03 0,00 0,00 0,00 0,00 0,00 1.911,00 14.301,18 1.775,64 2.049,64 0,00 0,00 3.825,28 10.475,90 30/11/2022
601 178800 CRISTIANE DE LIMA HOSKEN OFICIAL DO MP BELO HORIZONTE - COMARCA; BH-14PJ DEFESA CONSUMIDOR-GAB 110PJ 18.312,36 7.324,94 0,00 0,00 0,00 0,00 0,00 1.911,00 27.548,30 3.895,18 5.057,59 0,00 0,00 8.952,77 18.595,53 30/11/2022
602 494000 CRISTIANE DE MELO MARQUEZ OLIVEIRA ANALISTA DO MP UBERLÂNDIA - COMARCA; UBERLANDIA-PJ-06PJ 13.341,69 2.668,34 0,00 0,00 0,00 0,00 0,00 2.796,30 18.806,33 2.354,82 2.885,82 0,00 0,00 5.240,64 13.565,69 30/11/2022
603 266100 CRISTIANE DE OLIVEIRA CASTRO OFICIAL DO MP BELO HORIZONTE - COMARCA; BH-14PJ DEFESA CONSUMIDOR-SECRETARIA 14.224,47 5.689,79 0,00 0,00 0,00 0,00 1.580,00 1.911,00 23.405,26 2.979,50 4.117,93 0,00 0,00 7.097,43 16.307,83 30/11/2022
604 329500 CRISTIANE DOS REIS SILVA OFICIAL DO MP ARAXÁ - COMARCA; ARAXA-PJ-04PJ 11.008,33 3.302,50 0,00 0,00 0,00 0,00 0,00 1.911,00 16.221,83 2.082,95 2.389,03 0,00 0,00 4.471,98 11.749,85 30/11/2022
605 301600 CRISTIANE GODINHO PIRES ANALISTA DO MP BETIM - COMARCA; BETIM-PJ-06PJ 20.574,59 6.172,38 0,00 0,00 0,00 0,00 0,00 1.911,00 28.657,97 4.072,73 5.366,06 0,00 0,00 9.438,79 19.219,18 30/11/2022
606 406100 CRISTIANE GONCALVES CHAVES ANALISTA DO MP BELO HORIZONTE - COMARCA; BH-14PJ DEFESA CONSUMIDOR-GAB 112PJ 16.169,47 4.850,84 0,00 0,00 0,00 0,00 0,00 1.911,00 22.931,31 3.156,46 4.043,20 0,00 0,00 7.199,66 15.731,65 30/11/2022
607 487600 CRISTIANE LOPES DE OLIVEIRA OFICIAL DO MP DIVINÓPOLIS - COMARCA; DIVINOPOLIS-PJ-03PJ 7.857,77 1.571,55 0,00 0,00 0,00 0,00 0,00 1.911,00 11.340,32 1.301,90 1.365,68 0,00 0,00 2.667,58 8.672,74 30/11/2022
608 502500 CRISTIANE MACIEL DE OLIVEIRA GOMES ANALISTA DO MP JUIZ DE FORA - COMARCA; JUIZ DE FORA-PJ-02PJ 11.008,33 2.201,67 0,00 0,00 0,00 0,00 0,00 2.796,30 16.006,30 1.906,81 2.239,02 0,00 0,00 4.145,83 11.860,47 30/11/2022
609 285500 CRISTIANE MAGALHAES LOURENCO ANALISTA DO MP BELO HORIZONTE - COMARCA; CENTRAL DE APOIO TECNICO-SETOR CONTABIL 20.574,59 6.172,38 0,00 0,00 0,00 0,00 0,00 1.911,00 28.657,97 4.072,73 5.313,92 0,00 0,00 9.386,65 19.271,32 30/11/2022
610 536500 CRISTIANE MICHELE DE SOUZA ANALISTA DO MP BARÃO DE COCAIS - COMARCA; BARAO DE COCAIS-PJ-UNPJ 11.008,33 1.100,83 0,00 0,00 0,00 0,00 0,00 1.911,00 14.020,16 1.730,68 1.880,45 0,00 0,00 3.611,13 10.409,03 30/11/2022
611 346600 CRISTIANE NOGUEIRA ANDRADE ANALISTA DO MP BELO HORIZONTE - COMARCA; CENTRAL DE APOIO TECNICO-SETOR CONTABIL 19.037,29 5.711,19 0,00 0,00 0,00 0,00 0,00 1.911,00 26.659,48 3.752,97 4.904,41 0,00 0,00 8.657,38 18.002,10 30/11/2022
612 234000 CRISTIANE OLIVEIRA TOSTES OFICIAL DO MP JUIZ DE FORA - COMARCA; JUIZ DE FORA-PJ-08PJ 16.169,47 4.850,84 0,00 0,00 0,00 0,00 0,00 2.796,30 23.816,61 3.156,46 4.043,20 0,00 0,00 7.199,66 16.616,95 30/11/2022
613 445800 CRISTIANE ORZIL COSTA OFICIAL DO MP SANTA LUZIA - COMARCA; SANTA LUZIA-PJ-05PJ 7.857,77 1.571,55 0,00 0,00 0,00 0,00 0,00 2.796,30 12.225,62 1.301,90 1.365,68 0,00 0,00 2.667,58 9.558,04 30/11/2022
614 616100 CRISTIANE PAES RODRIGUES MARCICANO ANALISTA DO MP CATAGUASES - COMARCA; CATAGUASES-PJ-05PJ 9.378,86 937,89 0,00 0,00 0,00 0,00 0,00 2.796,30 13.113,05 1.443,89 1.570,68 0,00 0,00 3.014,57 10.098,48 30/11/2022
615 612300 CRISTIANE RIBEIRO DOS REIS ARCANJO OFICIAL DO MP BELO HORIZONTE - COMARCA; DIRETORIA DE PAGAMENTO DE PESSOAL-DPAG 6.694,66 669,47 0,00 0,00 2.454,71 0,00 0,00 0,00 9.818,84 1.557,13 1.298,34 0,00 0,00 2.855,47 6.963,37 30/11/2022
616 257700 CRISTIANE RODRIGUES PAES NUNES ANALISTA DO MP BELO HORIZONTE - COMARCA; BH-22PJ PES COM DEF E IDOSOS-ORIENTACAO PSIC 20.574,59 6.172,38 0,00 0,00 0,00 0,00 0,00 2.796,30 29.543,27 4.072,73 5.313,92 0,00 0,00 9.386,65 20.156,62 30/11/2022
617 510800 CRISTIANE SANTOS FERNANDES ORNELES ANALISTA DO MP BELO HORIZONTE - COMARCA; BH-03PJ EMPRESARIAL-SECRETARIA 11.008,33 2.201,67 0,00 0,00 0,00 0,00 0,00 1.911,00 15.121,00 1.906,81 2.239,02 0,00 0,00 4.145,83 10.975,17 30/11/2022
618 535701 CRISTIANE SANTOS MIRANDA ANALISTA DO MP CONTAGEM - COMARCA; CONTAGEM-PJ-03PJ 8.932,15 893,22 0,00 0,00 0,00 0,00 0,00 1.911,00 11.736,37 1.365,27 1.457,17 0,00 0,00 2.822,44 8.913,93 30/11/2022
619 536200 CRISTIANO DE OLIVEIRA ANALISTA DO MP CONCEIÇÃO DO MATO DENTRO - COMARCA; CONCEICAO DO MATO DENTRO-PJ-UNPJ 11.008,33 1.100,83 0,00 0,00 0,00 0,00 0,00 3.475,03 15.584,19 1.730,68 1.932,58 0,00 0,00 3.663,26 11.920,93 30/11/2022
620 477400 CRISTIANO SOARES ELEUTERIO ANALISTA DO MP BELO HORIZONTE - COMARCA; GABINETE DE PROCURADOR DE JUSTIÇA - SALA 812 13.776,02 2.755,20 0,00 0,00 0,00 0,00 0,00 1.911,00 18.442,22 2.438,21 3.006,22 0,00 0,00 5.444,43 12.997,79 30/11/2022
621 449400 CRISTIANO TEIXEIRA RODRIGUES LANA ANALISTA DO MP BELO HORIZONTE - COMARCA; BH-18PJ VIOLENCIA DOMESTICA-SECRETARIA 12.118,97 2.423,79 0,00 0,00 0,00 0,00 0,00 1.911,00 16.453,76 2.120,06 2.546,88 0,00 0,00 4.666,94 11.786,82 30/11/2022
622 239400 CRISTINA DE FATIMA CRUZ E SILVA OFICIAL DO MP MONTE SANTO DE MINAS - COMARCA; MONTE SANTO DE MINAS-PJ-SECRETARIA 14.224,47 4.267,34 0,00 0,00 0,00 0,00 0,00 1.911,00 20.402,81 2.751,90 3.459,11 0,00 0,00 6.211,01 14.191,80 30/11/2022
623 544000 CRISTINA DE OLIVEIRA TERRA ANALISTA DO MP BELO HORIZONTE - COMARCA; BH-18PJ VIOLENCIA DOMESTICA-SECRETARIA 11.008,33 1.100,83 0,00 0,00 0,00 0,00 0,00 1.911,00 14.020,16 1.730,68 1.984,72 0,00 0,00 3.715,40 10.304,76 30/11/2022
624 356800 CRISTINA DE PINHO BARROSO OFICIAL DO MP SABINÓPOLIS - COMARCA; SABINOPOLIS-PJ-UNPJ 9.223,00 2.766,90 0,00 0,00 0,00 0,00 0,00 2.796,30 14.786,20 1.711,60 1.852,90 0,00 0,00 3.564,50 11.221,70 30/11/2022
625 649500 CRISTINA DO DIVINO ESPIRITO SANTOS OFICIAL DO MP DIVINÓPOLIS - COMARCA; DIVINOPOLIS-PJ-12PJ 5.889,39 588,94 0,00 0,00 0,00 0,00 0,00 1.911,00 8.389,33 832,79 683,16 0,00 0,00 1.515,95 6.873,38 30/11/2022
626 727100 CRISTINA DORNELLES CLARET ASSESSOR ADMINISTRATIVO III BELO HORIZONTE - COMARCA; CAO-MEIO AMBIENTE 0,00 0,00 9.684,23 0,00 0,00 0,00 0,00 1.911,00 11.595,23 828,38 1.932,57 0,00 0,00 2.760,95 8.834,28 30/11/2022
627 348201 CRISTINA MARIA DA SILVA ANALISTA DO MP ARAXÁ - COMARCA; ARAXA-PJ-06PJ 11.008,33 2.201,67 0,00 0,00 0,00 0,00 0,00 2.796,30 16.006,30 1.906,81 2.239,02 0,00 0,00 4.145,83 11.860,47 30/11/2022
628 434900 CRISTINA MELO DE MADUREIRA ANALISTA DO MP BELO HORIZONTE - COMARCA; BH-07PJ 01 TRIBUNAL JURI-SECRETARIA 15.659,55 3.131,91 0,00 0,00 0,00 0,00 0,00 1.911,00 20.702,46 2.799,85 3.528,33 0,00 0,00 6.328,18 14.374,28 30/11/2022
629 307700 CRISTINA TEIXEIRA MARQUES OFICIAL DO MP BELO HORIZONTE - COMARCA; CENTRAL DE APOIO TECNICO-SETOR CONTABIL 11.008,33 3.302,50 0,00 0,00 0,00 0,00 0,00 1.911,00 16.221,83 2.082,95 2.493,31 0,00 0,00 4.576,26 11.645,57 30/11/2022
630 265300 CRISTOVAO SANCHES DE MEDEIROS ANALISTA DO MP BELO HORIZONTE - COMARCA; DIRETORIA DE CONTABILIDADE 19.791,01 5.937,30 0,00 0,00 0,00 0,00 0,00 1.911,00 27.639,31 3.909,74 5.130,75 0,00 0,00 9.040,49 18.598,82 30/11/2022
631 349800 CROZEIR LUIZ DA SILVA OFICIAL DO MP UNAÍ - COMARCA; UNAI-PJ-SECRETARIA 10.661,25 3.198,38 0,00 0,00 0,00 0,00 0,00 2.447,76 16.307,39 2.010,75 2.336,94 0,00 0,00 4.347,69 11.959,70 30/11/2022
632 490500 CYNTHIA CRISTINA DE SOUZA OLIVEIRA VALENTE ANALISTA DO MP BELO HORIZONTE - COMARCA; BH-09PJ AUDITORIA MILITAR-SECRETARIA 11.008,33 2.201,67 0,00 0,00 0,00 0,00 0,00 1.911,00 15.121,00 1.906,81 2.239,02 0,00 0,00 4.145,83 10.975,17 30/11/2022
633 389800 CYNTHIA GARIGLIO DOS SANTOS OFICIAL DO MP PERDIZES - COMARCA; PERDIZES-PJ-SECRETARIA 9.684,23 1.936,85 0,00 0,00 0,00 0,00 0,00 1.911,00 13.532,08 1.652,59 1.715,56 0,00 0,00 3.368,15 10.163,93 30/11/2022
634 335101 CYNTHIA GONTIJO D ASSUNCAO ANALISTA DO MP BELO HORIZONTE - COMARCA; FEPDC-SECRETARIA EXECUTIVA 11.008,33 2.201,67 3.585,64 0,00 0,00 0,00 0,00 1.911,00 18.706,64 1.906,81 3.225,07 0,00 0,00 5.131,88 13.574,76 30/11/2022
635 269700 CYNTIA ROCHA CAVALCANTI OFICIAL DO MP UBERLÂNDIA - COMARCA; UBERLANDIA-PJ-06PJ 14.224,47 4.267,34 0,00 0,00 0,00 0,00 0,00 2.796,30 21.288,11 2.751,90 3.459,11 0,00 0,00 6.211,01 15.077,10 30/11/2022
636 278000 DAIRTON LOPES MARTINS FILHO COORDENADOR II BELO HORIZONTE - COMARCA; DIRETORIA DE SISTEMAS DE INFORMACAO 18.312,36 5.493,71 0,00 0,00 0,00 0,00 0,00 1.911,00 25.717,07 2.082,95 5.104,50 0,00 0,00 7.187,45 18.529,62 30/11/2022
637 392700 DALIANA CHAVES IBRAIM MARINHO OFICIAL DO MP ITAÚNA - COMARCA; ITAUNA-PJ-04PJ 8.113,66 1.622,73 0,00 0,00 0,00 0,00 0,00 1.911,00 11.647,39 1.351,04 1.436,61 0,00 0,00 2.787,65 8.859,74 30/11/2022
638 558101 DALLEY TASSIA SILVA ANALISTA DO MP MORADA NOVA DE MINAS - COMARCA; MORADA NOVA DE MINAS-PJ-UNPJ 10.325,15 1.032,52 0,00 0,00 0,00 0,00 0,00 2.796,30 14.153,97 1.610,44 1.706,85 0,00 0,00 3.317,29 10.836,68 30/11/2022
639 476700 DALTON DAUD ANALISTA DO MP ARAGUARI - COMARCA; ARAGUARI-PJ-05PJ 11.008,33 2.201,67 0,00 0,00 0,00 0,00 0,00 1.911,00 15.121,00 1.906,81 2.134,74 0,00 0,00 4.041,55 11.079,45 30/11/2022
640 426900 DANIEL ALVES DA SILVA OFICIAL DO MP BELO HORIZONTE - COMARCA; DIVISAO TRANSPORTES 6.694,66 1.338,93 0,00 0,00 0,00 0,00 0,00 1.911,00 9.944,59 1.078,59 938,99 0,00 0,00 2.017,58 7.927,01 30/11/2022
641 122000 DANIEL ANTONIO VIEIRA OFICIAL DO MP ENTRE-RIOS DE MINAS - COMARCA; ENTRE RIOS DE MINAS-PJ-SECRETARIA 11.008,33 8.806,67 0,00 0,00 6.605,00 0,00 0,00 1.911,00 28.331,00 2.963,61 5.372,60 0,00 0,00 8.336,21 19.994,79 30/11/2022
642 714000 DANIEL FERREIRA CAMARA ASSESSOR PROMOTOR JUSTICA RIBEIRÃO DAS NEVES - COMARCA; RIBEIRAO DAS NEVES-PJ-12PJ 0,00 0,00 7.857,77 0,00 0,00 0,00 0,00 1.911,00 9.768,77 828,38 1.430,30 0,00 0,00 2.258,68 7.510,09 30/11/2022
643 411000 DANIEL FERREIRA DA SILVA ANALISTA DO MP GOVERNADOR VALADARES - COMARCA; GOVERNADOR VALADARES-PJ-15PJ 15.659,55 4.697,87 0,00 0,00 0,00 0,00 522,51 9.824,33 30.704,26 3.050,40 3.681,52 0,00 0,00 6.731,92 23.972,34 30/11/2022
644 703500 DANIEL FILIPE DE DEUS SOARES ASSESSOR PROMOTOR JUSTICA ITABIRITO - COMARCA; ITABIRITO-PJ-02PJ 0,00 0,00 7.857,77 0,00 0,00 0,00 0,00 1.911,00 9.768,77 828,38 1.430,30 0,00 0,00 2.258,68 7.510,09 30/11/2022
645 309000 DANIEL GOMES DOS SANTOS ANALISTA DO MP POÇOS DE CALDAS - COMARCA; POCOS DE CALDAS-PJ-05PJ 19.791,01 5.937,30 0,00 0,00 0,00 0,00 0,00 1.911,00 27.639,31 3.909,74 5.130,75 0,00 0,00 9.040,49 18.598,82 30/11/2022
646 554500 DANIEL GOMES PEREIRA OFICIAL DO MP NANUQUE - COMARCA; NANUQUE-PJ-02PJ 6.694,66 669,47 0,00 0,00 0,00 0,00 0,00 1.911,00 9.275,13 971,47 888,62 0,00 0,00 1.860,09 7.415,04 30/11/2022
647 453000 DANIEL GONCALVES PEREIRA ANALISTA DO MP UNAÍ - COMARCA; UNAI-PJ-02PJ 11.008,33 2.201,67 0,00 0,00 0,00 0,00 0,00 4.124,25 17.334,25 1.906,81 2.239,02 0,00 0,00 4.145,83 13.188,42 30/11/2022
648 495500 DANIEL GUIMARAES CABRAL OFICIAL DO MP BELO HORIZONTE - COMARCA; BH-17PJ PATRIMONIO PUBLICO-SECRETARIA 8.113,66 1.622,73 0,00 0,00 0,00 0,00 0,00 2.796,30 12.532,69 1.351,04 1.436,61 0,00 0,00 2.787,65 9.745,04 30/11/2022
649 442900 DANIEL GUIMARAES GONCALVES ANALISTA DO MP UBERLÂNDIA - COMARCA; UBERLANDIA-PJ-03PJ 15.659,55 3.131,91 0,00 0,00 0,00 0,00 0,00 1.911,00 20.702,46 927,17 3.801,92 0,00 0,00 4.729,09 15.973,37 30/11/2022
650 655900 DANIEL LUIZ DA SILVA ASSESSOR ADMINISTRATIVO II BELO HORIZONTE - COMARCA; DIV FISCAL ADM CONT TERCEIRIZACAO 0,00 0,00 6.694,66 0,00 0,00 0,00 0,00 1.911,00 8.605,66 828,38 1.110,44 0,00 0,00 1.938,82 6.666,84 30/11/2022
651 464600 DANIEL PIACENTINI STIVANIN ANALISTA DO MP ANDRADAS - COMARCA; ANDRADAS-PJ-02PJ 11.008,33 2.201,67 0,00 0,00 0,00 0,00 0,00 1.911,00 15.121,00 1.906,81 2.239,02 0,00 0,00 4.145,83 10.975,17 30/11/2022
652 417000 DANIEL QUEIROZ FERREIRA ANALISTA DO MP PASSOS - COMARCA; PASSOS-PJ-06PJ 14.224,47 2.844,89 0,00 0,00 0,00 0,00 0,00 2.796,30 19.865,66 927,17 3.363,86 0,00 0,00 4.291,03 15.574,63 30/11/2022
653 396700 DANIEL SILVA CARNEVALLI SUPERINTENDENTE BELO HORIZONTE - COMARCA; SUPERINTENDENCIA DE TECNOLOGIA DA INFORMACAO 24.982,93 4.996,59 0,00 0,00 0,00 0,00 0,00 2.796,30 32.775,82 2.897,75 6.578,13 0,00 0,00 9.475,88 23.299,94 30/11/2022
654 489300 DANIEL TABOZA ROCHA ANALISTA DO MP IPATINGA - COMARCA; IPATINGA-PJ-08PJ 11.008,33 2.201,67 0,00 0,00 0,00 0,00 0,00 2.796,30 16.006,30 927,17 2.382,14 0,00 0,00 3.309,31 12.696,99 30/11/2022
655 414100 DANIEL TARDELI VALADAO ANALISTA DO MP TRÊS CORACOES - COMARCA; TRES CORACOES-PJ-02PJ 15.659,55 3.131,91 0,00 0,00 0,00 0,00 0,00 3.681,60 22.473,06 927,17 3.593,37 0,00 0,00 4.520,54 17.952,52 30/11/2022
656 446601 DANIEL VIEIRA BUENO ANALISTA DO MP SÃO DOMINGOS DO PRATA - COMARCA; SAO DOMINGOS DO PRATA-PJ-UNPJ 11.008,33 1.100,83 0,00 0,00 0,00 0,00 0,00 2.796,30 14.905,46 1.730,68 1.932,58 0,00 0,00 3.663,26 11.242,20 30/11/2022
657 253200 DANIELA BATISTA LIMA BARBOSA ASSESSOR ADMINISTRATIVO II BELO HORIZONTE - COMARCA; CENTRAL DE APOIO TECN-SETOR DE MEIO AMBIENTE 0,00 2.008,40 6.694,66 0,00 0,00 0,00 0,00 1.911,00 10.614,06 828,38 1.662,75 0,00 0,00 2.491,13 8.122,93 30/11/2022
658 505800 DANIELA BORGES DE MATTOS RESENDE ANALISTA DO MP JUIZ DE FORA - COMARCA; JUIZ DE FORA-PJ-20PJ 11.008,33 2.201,67 0,00 0,00 0,00 0,00 0,00 1.911,00 15.121,00 1.906,81 2.239,02 0,00 0,00 4.145,83 10.975,17 30/11/2022
659 478000 DANIELA CARVALHO SOARES ANALISTA DO MP SÃO JOÃO DEL REI - COMARCA; SAO JOAO DEL REI-PJ-01PJ 11.008,33 2.201,67 0,00 0,00 0,00 0,00 0,00 1.911,00 15.121,00 1.906,81 2.239,02 0,00 0,00 4.145,83 10.975,17 30/11/2022
660 275900 DANIELA CHAGAS SODRE ANALISTA DO MP BELO HORIZONTE - COMARCA; CENTRAL DE APOIO TECNICO-SETOR CONTABIL 20.574,59 6.172,38 0,00 0,00 0,00 0,00 0,00 1.911,00 28.657,97 4.072,73 5.313,92 0,00 0,00 9.386,65 19.271,32 30/11/2022
661 234301 DANIELA CRUZ SOARES ANALISTA DO MP BELO HORIZONTE - COMARCA; LABORATORIO TECNOLOGIA INTELIGENCIA 20.574,59 6.172,38 0,00 0,00 0,00 0,00 0,00 1.911,00 28.657,97 4.072,73 5.366,06 0,00 0,00 9.438,79 19.219,18 30/11/2022
662 638000 DANIELA DE ALMEIDA BATISTA ANALISTA DO MP ANDRELÂNDIA - COMARCA; ANDRELANDIA-PJ-UNPJ 9.999,62 999,96 0,00 0,00 0,00 0,00 0,00 2.796,30 13.795,88 927,17 1.900,55 0,00 0,00 2.827,72 10.968,16 30/11/2022
663 301000 DANIELA DE ALMEIDA E OLIVEIRA ANALISTA DO MP BELO HORIZONTE - COMARCA; DIRETORIA DE SISTEMAS DE INFORMACAO 20.574,59 6.172,38 0,00 0,00 0,00 0,00 0,00 1.911,00 28.657,97 4.072,73 5.366,06 0,00 0,00 9.438,79 19.219,18 30/11/2022
664 296000 DANIELA DE AZEVEDO SILVA ANALISTA DO MP BRASÓPOLIS - COMARCA; BRASOPOLIS-PJ-UNPJ 20.574,59 8.229,84 0,00 0,00 0,00 0,00 0,00 1.911,00 30.715,43 4.401,92 5.841,33 0,00 0,00 10.243,25 20.472,18 30/11/2022
665 453500 DANIELA DE CASTRO SOUSA BARBOSA ANALISTA DO MP BELO HORIZONTE - COMARCA; BH-08PJ JUIZADO ESPECIAL-SECRETARIA 11.736,91 2.347,38 0,00 0,00 0,00 0,00 0,00 1.911,00 15.995,29 2.046,70 2.440,98 0,00 0,00 4.487,68 11.507,61 30/11/2022
666 506000 DANIELA DE OLIVEIRA CAVALIERI ANALISTA DO MP BELO HORIZONTE - COMARCA; BH-14PJ DEFESA CONSUMIDOR-GAB 005PJ 11.008,33 2.201,67 0,00 0,00 0,00 0,00 0,00 1.911,00 15.121,00 1.906,81 2.239,02 0,00 0,00 4.145,83 10.975,17 30/11/2022
667 546200 DANIELA DE VILHENA LEMES GONCALVES OFICIAL DO MP TRÊS CORACOES - COMARCA; TRES CORACOES-PJ-05PJ 6.694,66 669,47 0,00 0,00 0,00 0,00 0,00 1.911,00 9.275,13 971,47 784,35 0,00 0,00 1.755,82 7.519,31 30/11/2022
668 356400 DANIELA LEAL FERRAZ ANALISTA DO MP MONTES CLAROS - COMARCA; COORD REG PJ DEF EDUC DIR CRIANCA ADOL NORTE 16.695,70 5.008,71 0,00 0,00 0,00 0,00 0,00 1.911,00 23.615,41 3.265,92 4.201,22 0,00 0,00 7.467,14 16.148,27 30/11/2022
669 501000 DANIELA LOURENCO SANTOS DA SILVA GUIMARAES ANALISTA DO MP BELO HORIZONTE - COMARCA; BH-12PJ JUIZO CRIMINAL-GAB 095PJ 11.008,33 2.201,67 0,00 0,00 0,00 0,00 0,00 1.911,00 15.121,00 1.906,81 2.186,88 0,00 0,00 4.093,69 11.027,31 30/11/2022
670 195801 DANIELA MARIA DE OLIVEIRA QUEIROZ ANALISTA DO MP ARAGUARI - COMARCA; ARAGUARI-PJ-06PJ 15.659,55 6.263,82 0,00 0,00 0,00 0,00 0,00 1.911,00 23.834,37 3.300,95 4.251,80 0,00 0,00 7.552,75 16.281,62 30/11/2022
671 511400 DANIELA MARIA LARA DE OLIVEIRA ANALISTA DO MP BOA ESPERANÇA - COMARCA; BOA ESPERANCA-PJ-02PJ 11.008,33 2.201,67 0,00 0,00 0,00 0,00 0,00 2.796,30 16.006,30 1.906,81 2.186,88 0,00 0,00 4.093,69 11.912,61 30/11/2022
672 252101 DANIELA PAULA ALVES PENA ANALISTA DO MP CONTAGEM - COMARCA; CONTAGEM-PJ-APO TECNICO 16.695,70 6.678,28 0,00 0,00 0,00 0,00 0,00 1.911,00 25.284,98 3.533,05 4.586,90 0,00 0,00 8.119,95 17.165,03 30/11/2022
673 604700 DANIELA PEIXOTO NOGUEIRA COORDENADOR II BELO HORIZONTE - COMARCA; DIRET DE FORMACAO, APERFEIC. E POS-GRADUACAO 18.312,36 1.831,24 0,00 0,00 0,00 0,00 0,00 2.796,30 22.939,90 971,47 4.402,97 0,00 0,00 5.374,44 17.565,46 30/11/2022
674 662000 DANIELA RIBAS DE AVILA ASSESSOR ADMINISTRATIVO III BELO HORIZONTE - COMARCA; CENTRO AUTOCOMPOSICAO DE CONFLITOS 0,00 0,00 9.684,23 0,00 0,00 0,00 0,00 1.911,00 11.595,23 828,38 1.932,57 0,00 0,00 2.760,95 8.834,28 30/11/2022
675 462000 DANIELA SOUSA GOMES DO AMARAL ANALISTA DO MP BETIM - COMARCA; BETIM-PJ-04PJ 12.118,97 2.423,79 0,00 0,00 0,00 0,00 0,00 1.911,00 16.453,76 2.120,06 2.546,88 0,00 0,00 4.666,94 11.786,82 30/11/2022
676 427000 DANIELA TEIXEIRA DINIZ ANDRADE ANALISTA DO MP BELO HORIZONTE - COMARCA; DIRETORIA DE PROJETOS DE EDIFICACOES 11.366,79 2.273,36 3.585,64 0,00 0,00 0,00 3.482,63 1.911,00 22.619,42 1.975,64 4.230,02 0,00 0,00 6.205,66 16.413,76 30/11/2022
677 337200 DANIELA TOLEDO SENIUK ANALISTA DO MP BELO HORIZONTE - COMARCA; GABINETE DE PROCURADOR DE JUSTIÇA - SALA 412 20.574,59 6.172,38 0,00 0,00 0,00 0,00 0,00 1.911,00 28.657,97 4.072,73 5.366,06 0,00 0,00 9.438,79 19.219,18 30/11/2022
678 605600 DANIELE ALZIRA SILVA CABRAL MOREIRA OFICIAL DO MP BELO HORIZONTE - COMARCA; BH-10PJ EXECUÇÃO PENAL-SECRETARIA 6.694,66 669,47 0,00 0,00 0,00 0,00 0,00 1.911,00 9.275,13 971,47 888,62 0,00 0,00 1.860,09 7.415,04 30/11/2022
679 195500 DANIELE CHAVES FONSECA OFICIAL DO MP BELO HORIZONTE - COMARCA; EXTINTA-CGMP-DIV APOIO FISC ORIENT FUNCIONAL 18.312,36 7.324,94 0,00 0,00 0,00 0,00 0,00 1.911,00 27.548,30 3.895,18 5.109,72 0,00 0,00 9.004,90 18.543,40 30/11/2022
680 323400 DANIELE MEGALE SANTINI OFICIAL DO MP BELO HORIZONTE - COMARCA; EXTINTA-CGMP-DIV APOIO FISC ORIENT FUNCIONAL 12.118,97 3.635,69 0,00 0,00 0,00 0,00 0,00 1.911,00 17.665,66 2.313,96 2.774,70 0,00 0,00 5.088,66 12.577,00 30/11/2022
681 357900 DANIELE REJANE PINTO VERSIEUX OFICIAL DO MP PEDRO LEOPOLDO - COMARCA; PEDRO LEOPOLDO-PJ-03PJ 11.008,33 3.302,50 0,00 0,00 0,00 0,00 0,00 1.911,00 16.221,83 2.082,95 2.493,31 0,00 0,00 4.576,26 11.645,57 30/11/2022
682 389500 DANIELE VASCONCELOS AMORIM OFICIAL DO MP SÃO SEBASTIÃO DO PARAÍSO - COMARCA; SAO SEBASTIAO DO PARAISO-PJ-04PJ 9.999,62 1.999,92 0,00 0,00 0,00 0,00 0,00 1.911,00 13.910,54 1.713,14 1.959,40 0,00 0,00 3.672,54 10.238,00 30/11/2022
683 629700 DANIELLA BASTOS MARTINS BICALHO OFICIAL DO MP GOVERNADOR VALADARES - COMARCA; GOVERNADOR VALADARES-PJ-16PJ 6.483,63 648,36 0,00 0,00 0,00 0,00 0,00 1.911,00 9.042,99 934,33 835,00 0,00 0,00 1.769,33 7.273,66 30/11/2022
684 725500 DANIELLE CAMILE OLIVEIRA FONSECA ASSESSOR PROCURADOR JUSTICA BELO HORIZONTE - COMARCA; GABINETE DE PROCURADOR DE JUSTIÇA - SALA 501 0,00 0,00 7.857,77 0,00 0,00 0,00 0,00 1.911,00 9.768,77 828,38 1.430,30 0,00 0,00 2.258,68 7.510,09 30/11/2022
685 265000 DANIELLE CASTANHEIRA SCALABRINI OFICIAL DO MP BELO HORIZONTE - COMARCA; JUNTA RECURSAL DO PROCON ESTADUAL 11.008,33 3.302,50 0,00 0,00 0,00 0,00 0,00 1.911,00 16.221,83 2.082,95 2.441,17 0,00 0,00 4.524,12 11.697,71 30/11/2022
686 490100 DANIELLE DE AVILA SILVA LOPES ANALISTA DO MP BELO HORIZONTE - COMARCA; PROC. JUSTICA DIR. DIFUSOS E COLETIVOS-SEC 11.008,33 3.302,50 0,00 0,00 4.770,28 0,00 0,00 2.796,30 21.877,41 2.082,95 3.805,13 0,00 0,00 5.888,08 15.989,33 30/11/2022
687 711100 DANIELLE DOMINGOS LOPES DE MELO ASSESSOR PROCURADOR JUSTICA BELO HORIZONTE - COMARCA; GABINETE DE PROCURADOR DE JUSTIÇA - SALA 703 0,00 0,00 7.857,77 0,00 0,00 0,00 0,00 1.911,00 9.768,77 828,38 1.430,30 0,00 0,00 2.258,68 7.510,09 30/11/2022
688 549600 DANIELLE GOMES LOPES RODRIGUES OFICIAL DO MP VESPASIANO - COMARCA; VESPASIANO-PJ-02PJ 6.694,66 669,47 0,00 0,00 0,00 0,00 0,00 1.911,00 9.275,13 971,47 888,62 0,00 0,00 1.860,09 7.415,04 30/11/2022
689 613000 DANIELLE SILVA OLIVEIRA FRANKLIN ASSESSOR ADMINISTRATIVO IV BELO HORIZONTE - COMARCA; DIRETORIA DE ORCAMENTO-DIOR/SPC 12.920,95 1.292,10 0,00 0,00 0,00 0,00 2.372,22 2.796,30 19.381,57 1.009,84 3.413,88 0,00 0,00 4.423,72 14.957,85 30/11/2022
690 722800 DANIELLE VALENTIM SOUZA ASSESSOR PROCURADOR JUSTICA BELO HORIZONTE - COMARCA; GABINETE DE PROCURADOR DE JUSTIÇA - SALA 606 0,00 0,00 7.857,77 0,00 0,00 0,00 0,00 1.911,00 9.768,77 828,38 1.430,30 0,00 0,00 2.258,68 7.510,09 30/11/2022
691 380800 DANILLO RIBEIRO ANTUNES ANALISTA DO MP MONTES CLAROS - COMARCA; MONTES CLAROS-PJ-SECRETARIA 16.169,47 3.233,89 0,00 0,00 0,00 0,00 1.580,00 1.911,00 22.894,36 2.897,75 4.052,05 0,00 0,00 6.949,80 15.944,56 30/11/2022
692 453700 DANILO BOTELHO DE CARVALHO SUPERINTENDENTE BELO HORIZONTE - COMARCA; SUPERINTENDENCIA DE FINANCAS 24.982,93 4.996,59 0,00 0,00 0,00 0,00 0,00 1.911,00 31.890,52 2.524,31 6.680,82 0,00 0,00 9.205,13 22.685,39 30/11/2022
693 391200 DANILO D'AVILA MENDES ANALISTA DO MP MONTES CLAROS - COMARCA; GAECO REGIONAL DE MONTES CLAROS 16.169,47 3.233,89 0,00 0,00 0,00 0,00 0,00 2.796,30 22.199,66 2.897,75 3.669,68 0,00 0,00 6.567,43 15.632,23 30/11/2022
694 710900 DANILO DE SOUZA RODRIGUES ASSESSOR PROMOTOR JUSTICA IPANEMA - COMARCA; IPANEMA-PJ-01PJ 0,00 0,00 7.857,77 0,00 0,00 0,00 0,00 1.911,00 9.768,77 828,38 1.430,30 0,00 0,00 2.258,68 7.510,09 30/11/2022
695 494900 DANILO GAVIAO AVELINO DE MELLO ANALISTA DO MP POUSO ALEGRE - COMARCA; GAECO REGIONAL DE POUSO ALEGRE 11.008,33 2.201,67 0,00 0,00 0,00 0,00 0,00 1.911,00 15.121,00 1.906,81 2.239,02 0,00 0,00 4.145,83 10.975,17 30/11/2022
696 604300 DANILO NASCIMENTO SALGADO ANALISTA DO MP JANAÚBA - COMARCA; JANAUBA-PJ-01PJ 10.325,15 1.032,52 0,00 0,00 0,00 0,00 0,00 1.911,00 13.268,67 1.610,44 1.811,13 0,00 0,00 3.421,57 9.847,10 30/11/2022
697 298300 DANUZA MONICA DE SOUZA DINIZ ANALISTA DO MP BELO HORIZONTE - COMARCA; CAO-FUNDACOES-ASSESSORIA JURIDICA 19.791,01 5.937,30 0,00 0,00 0,00 0,00 0,00 1.911,00 27.639,31 3.909,74 5.078,61 0,00 0,00 8.988,35 18.650,96 30/11/2022
698 398700 DARCY LUIZ MILEO GREGATTI OFICIAL DO MP LAMBARI - COMARCA; LAMBARI-PJ-SECRETARIA 10.325,15 2.065,03 0,00 0,00 0,00 0,00 0,00 1.911,00 14.301,18 1.775,64 2.049,64 0,00 0,00 3.825,28 10.475,90 30/11/2022
699 406200 DARIANA AUGUSTA DE TOLEDO PATROCINIO RUIZ COORDENADOR II BELO HORIZONTE - COMARCA; DIRETORIA GESTAO COMPRAS LICITACOES 18.312,36 3.662,47 0,00 0,00 0,00 0,00 0,00 2.796,30 24.771,13 1.713,14 4.702,60 0,00 0,00 6.415,74 18.355,39 30/11/2022
700 586901 DARIO VITORINO DE CARVALHO SILVA ASSESSOR ADM. ESPECIAL BELO HORIZONTE - COMARCA; DIRETORIA DE SEGURANCA 0,00 0,00 24.982,93 0,00 0,00 0,00 670,00 1.911,00 27.563,93 828,38 6.087,58 0,00 0,00 6.915,96 20.647,97 30/11/2022
701 305000 DARLI LEITE DE OLIVEIRA OFICIAL DO MP ARAÇUAÍ - COMARCA; ARACUAI-PJ-01PJ 6.694,66 2.008,40 0,00 0,00 0,00 0,00 0,00 1.911,00 10.614,06 1.185,70 1.041,50 0,00 0,00 2.227,20 8.386,86 30/11/2022
702 729400 DAVI PIMENTA ASSESSOR PROMOTOR JUSTICA CANDEIAS - COMARCA; CANDEIAS-PJ-UNPJ 0,00 0,00 7.857,77 0,00 0,00 0,00 0,00 1.911,00 9.768,77 828,38 1.430,30 0,00 0,00 2.258,68 7.510,09 30/11/2022
703 122200 DAVID RIBEIRO DOS SANTOS ANALISTA DO MP BORDA DA MATA - COMARCA; BORDA DA MATA-PJ-UNPJ 20.574,59 18.517,14 0,00 0,00 0,00 5.467,17 0,00 1.911,00 46.469,90 5.467,17 8.882,75 3.629,51 0,00 17.979,43 28.490,47 30/11/2022
704 389400 DAWSON CANEDO MARQUES OFICIAL DO MP TRÊS CORACOES - COMARCA; TRES CORACOES-PJ-01PJ 11.008,33 2.201,67 0,00 0,00 0,00 0,00 0,00 2.796,30 16.006,30 1.906,81 1.439,10 0,00 0,00 3.345,91 12.660,39 30/11/2022
705 537200 DAYANE TEIXEIRA DE OLIVEIRA CASELLI ANALISTA DO MP BELO HORIZONTE - COMARCA; ASSESS TECNICO-JUR JUNTO AS PROC. DE JUST 9.223,00 922,30 0,00 0,00 0,00 0,00 0,00 1.911,00 12.056,30 1.416,46 1.531,07 0,00 0,00 2.947,53 9.108,77 30/11/2022
706 256100 DAYSE ROSALY PEREIRA BATISTA OFICIAL DO MP BELO HORIZONTE - COMARCA; BH-08PJ JUIZADO ESPECIAL-SECRETARIA 11.008,33 3.302,50 0,00 0,00 0,00 0,00 0,00 1.911,00 16.221,83 2.082,95 2.493,31 0,00 0,00 4.576,26 11.645,57 30/11/2022
707 311901 DEBORA APARECIDA DA SILVA ASSESSOR ADMINISTRATIVO I BELO HORIZONTE - COMARCA; BH-23PJ CIVEL-SETOR ATEND PUB 0,00 0,00 4.345,58 0,00 0,00 0,00 0,00 1.911,00 6.256,58 631,17 518,68 0,00 0,00 1.149,85 5.106,73 30/11/2022
708 194301 DEBORA APARECIDA DOS SANTOS ANALISTA DO MP UBERLÂNDIA - COMARCA; UBERLANDIA-PJ-SEC FAMILIA 20.574,59 8.229,84 0,00 0,00 0,00 0,00 0,00 1.911,00 30.715,43 4.401,92 5.841,33 0,00 0,00 10.243,25 20.472,18 30/11/2022
709 518800 DEBORA CARVALHO FIORATTO COORDENADOR II BELO HORIZONTE - COMARCA; DIRETORIA MATERIAIS E SERVICOS 18.312,36 3.662,47 0,00 0,00 0,00 0,00 0,00 1.911,00 23.885,83 1.454,11 4.773,84 0,00 0,00 6.227,95 17.657,88 30/11/2022
710 444900 DEBORA CLAUDIA PEREIRA ALVES ANALISTA DO MP BELO HORIZONTE - COMARCA; BH-08PJ JUIZADO ESPECIAL-SECRETARIA 11.736,91 2.347,38 0,00 0,00 0,00 0,00 0,00 1.911,00 15.995,29 2.046,70 2.440,98 0,00 0,00 4.487,68 11.507,61 30/11/2022
711 617700 DEBORA COMANDUCI SCHREIDER ANALISTA DO MP BICAS - COMARCA; BICAS-PJ-UNPJ 10.325,15 1.032,52 0,00 0,00 0,00 0,00 0,00 1.911,00 13.268,67 1.610,44 1.758,99 0,00 0,00 3.369,43 9.899,24 30/11/2022
712 555700 DEBORA CRISTINA BUITRAGO PEREIRA ANALISTA DO MP BELO HORIZONTE - COMARCA; DIRETORIA GESTAO CONTRATOS CONVENIOS 11.008,33 1.100,83 3.585,64 0,00 0,00 0,00 0,00 2.796,30 18.491,10 1.730,68 2.970,77 0,00 0,00 4.701,45 13.789,65 30/11/2022
713 513100 DEBORA CRISTINA PEREIRA DE OLIVEIRA ANALISTA DO MP BELO HORIZONTE - COMARCA; BH-23PJ CIVEL-SETOR JURIDICO 12.118,97 2.423,79 0,00 0,00 0,00 0,00 0,00 3.238,95 17.781,71 2.120,06 2.546,88 0,00 0,00 4.666,94 13.114,77 30/11/2022
714 612100 DEBORA DUARTE SILVA DE SOUZA OFICIAL DO MP RIBEIRÃO DAS NEVES - COMARCA; RIBEIRAO DAS NEVES-PJ-06PJ 6.694,66 2.008,40 0,00 0,00 0,00 0,00 0,00 1.911,00 10.614,06 1.185,70 1.093,64 0,00 0,00 2.279,34 8.334,72 30/11/2022
715 717500 DEBORA ENDREFFY ORSI PARENZI ASSESSOR PROMOTOR JUSTICA MATEUS LEME - COMARCA; MATEUS LEME-PJ-01PJ 0,00 0,00 7.857,77 0,00 0,00 0,00 0,00 1.911,00 9.768,77 828,38 1.430,30 0,00 0,00 2.258,68 7.510,09 30/11/2022
716 539700 DEBORA SALES CARVALHO ANALISTA DO MP PATOS DE MINAS - COMARCA; COORD REG PJ DEF EDU DIR CRI ADO AL PAR NOROE 11.008,33 1.100,83 0,00 0,00 0,00 0,00 0,00 1.911,00 14.020,16 927,17 2.102,11 0,00 0,00 3.029,28 10.990,88 30/11/2022
717 424100 DEBORA SANTOS E ALVES ANALISTA DO MP JANUÁRIA - COMARCA; JANUARIA-PJ-01PJ 16.169,47 3.233,89 0,00 0,00 0,00 0,00 0,00 3.120,91 22.524,27 2.897,75 3.669,68 0,00 0,00 6.567,43 15.956,84 30/11/2022
718 426301 DEBORA SCUCATO MACHADO SOARES OFICIAL DO MP ITABIRA - COMARCA; ITABIRA-PJ-SECRETARIA 6.694,66 1.338,93 0,00 0,00 0,00 0,00 0,00 2.796,30 10.829,89 1.078,59 1.043,27 0,00 0,00 2.121,86 8.708,03 30/11/2022
719 678100 DEBORA SOUZA COSTA ASSESSOR PROMOTOR JUSTICA BOTELHOS - COMARCA; BOTELHOS-PJ-UNPJ 0,00 0,00 7.857,77 0,00 0,00 0,00 0,00 1.911,00 9.768,77 828,38 1.378,16 0,00 0,00 2.206,54 7.562,23 30/11/2022
720 550200 DEBORA TRINDADE LEITE ANALISTA DO MP MANHUAÇU - COMARCA; MANHUACU-PJ-05PJ 11.008,33 1.100,83 0,00 0,00 0,00 0,00 0,00 1.911,00 14.020,16 1.730,68 1.880,45 0,00 0,00 3.611,13 10.409,03 30/11/2022
721 438000 DEBORAH COSTA LAGE ANALISTA DO MP BELO HORIZONTE - COMARCA; PROC JUST ATUACAO TRIBUNAIS SUPERIORES-GAB006 15.659,55 3.131,91 0,00 0,00 0,00 0,00 0,00 1.911,00 20.702,46 2.799,85 3.528,33 0,00 0,00 6.328,18 14.374,28 30/11/2022
722 613700 DEISER MARIA FERREIRA ROSCOE OFICIAL DO MP BELO HORIZONTE - COMARCA; DIVISÃO DE EDUCAÇÃO PARA O CONSUMO 6.694,66 669,47 0,00 0,00 0,00 0,00 0,00 1.911,00 9.275,13 971,47 888,62 0,00 0,00 1.860,09 7.415,04 30/11/2022
723 551900 DEISY ROCHA DA SILVA ANALISTA DO MP CARMO DO PARANAÍBA - COMARCA; CARMO DO PARANAIBA-PJ-01PJ 11.008,33 1.100,83 0,00 0,00 0,00 0,00 0,00 1.911,00 14.020,16 1.730,68 1.932,58 0,00 0,00 3.663,26 10.356,90 30/11/2022
724 501900 DELI RAQUEL RODRIGUES ANALISTA DO MP ITUIUTABA - COMARCA; ITUIUTABA-PJ-04PJ 11.008,33 2.201,67 0,00 0,00 0,00 0,00 0,00 1.911,00 15.121,00 1.906,81 2.239,02 0,00 0,00 4.145,83 10.975,17 30/11/2022
725 378600 DELIANE LOPES VIEIRA BREIJAO ANALISTA DO MP JUIZ DE FORA - COMARCA; JUIZ DE FORA-PJ-14PJ 16.169,47 3.233,89 0,00 0,00 0,00 0,00 0,00 1.911,00 21.314,36 2.897,75 3.617,55 0,00 0,00 6.515,30 14.799,06 30/11/2022
726 730100 DELIENE FRACETE GUTIERREZ ASSESSOR ADMINISTRATIVO I TEÓFILO OTONI - COMARCA; COORD REG APOIO COM INC MOB SOC VALE MUCURI 0,00 0,00 4.345,58 0,00 0,00 0,00 0,00 1.911,00 6.256,58 631,17 518,68 0,00 0,00 1.149,85 5.106,73 30/11/2022
727 487700 DENIA FERREIRA MAIA SILVA OFICIAL DO MP TRÊS CORACOES - COMARCA; TRES CORACOES-PJ-04PJ 7.137,75 1.427,55 0,00 0,00 0,00 0,00 0,00 2.096,50 10.661,80 1.163,66 1.061,82 0,00 0,00 2.225,48 8.436,32 30/11/2022
728 726300 DENILZA RODRIGUES MORAES ASSESSOR ADMINISTRATIVO I BELO HORIZONTE - COMARCA; CENT DE ATENDIMENTO AS PROMOTORIAS DE JUSTICA 0,00 0,00 4.345,58 0,00 0,00 0,00 670,00 1.911,00 6.926,58 631,17 518,68 0,00 0,00 1.149,85 5.776,73 30/11/2022
729 424800 DENIS APARECIDO CAMPOS DELFINO ANALISTA DO MP LUZ - COMARCA; LUZ-PJ-UNPJ 14.224,47 2.844,89 0,00 0,00 0,00 0,00 0,00 1.911,00 18.980,36 2.524,31 2.921,98 0,00 0,00 5.446,29 13.534,07 30/11/2022
730 381400 DENISE ANGELICA MELLO DE PAULA OFICIAL DO MP BELO HORIZONTE - COMARCA; BH-18PJ DIREITOS HUMANOS-SECRETARIA 11.008,33 2.201,67 3.876,29 0,00 0,00 0,00 0,00 2.796,30 19.882,59 1.906,81 3.305,00 0,00 0,00 5.211,81 14.670,78 30/11/2022
731 702100 DENISE CANDIDO LIMA MACEDO KATOPODIS ASSESSOR PROCURADOR JUSTICA BELO HORIZONTE - COMARCA; GABINETE DE PROCURADOR DE JUSTIÇA - SALA 305 0,00 0,00 7.857,77 0,00 0,00 0,00 0,00 1.911,00 9.768,77 828,38 1.430,30 0,00 0,00 2.258,68 7.510,09 30/11/2022
732 196300 DENISE DE ALMEIDA VILELA FURTADO OFICIAL DO MP BELO HORIZONTE - COMARCA; CENTRAL DE APOIO TECNICO-SECRETARIA 16.695,70 6.678,28 0,00 0,00 0,00 0,00 0,00 3.238,95 26.612,93 3.533,05 4.586,90 0,00 0,00 8.119,95 18.492,98 30/11/2022
733 271100 DENISE ELOY PEIXOTO OFICIAL DO MP BELO HORIZONTE - COMARCA; DIRETORIA DE INTELIGENCIA 14.224,47 4.267,34 0,00 0,00 0,00 0,00 0,00 1.911,00 20.402,81 2.751,90 3.459,11 0,00 0,00 6.211,01 14.191,80 30/11/2022
734 385400 DENISE FREITAS DE ASSIS OFICIAL DO MP CARATINGA - COMARCA; CARATINGA-PJ-SECRETARIA 9.684,23 1.936,85 2.679,65 0,00 0,00 0,00 524,36 7.631,29 22.456,38 1.652,59 2.608,88 0,00 0,00 4.261,47 18.194,91 30/11/2022
735 437100 DENISE NOGUEIRA MAGRI MENDES ANALISTA DO MP BELO HORIZONTE - COMARCA; LAB TECNOLOGIA CONTRA LAVAGEM DINHEIRO 15.659,55 6.263,82 0,00 0,00 0,00 0,00 670,00 1.911,00 24.504,37 3.300,95 4.147,53 0,00 0,00 7.448,48 17.055,89 30/11/2022
736 524700 DENISE RAMOS GUIMARAES OFICIAL DO MP BELO HORIZONTE - COMARCA; BH-07PJ 01 TRIBUNAL JURI-SECRETARIA 6.694,66 1.338,93 0,00 0,00 0,00 0,00 0,00 1.911,00 9.944,59 1.078,59 1.043,27 0,00 0,00 2.121,86 7.822,73 30/11/2022
737 239100 DENISE RIBEIRO DOS SANTOS CAETANO OFICIAL DO MP ITANHANDU - COMARCA; ITANHANDU-PJ-SECRETARIA 14.224,47 4.267,34 0,00 0,00 0,00 0,00 0,00 1.911,00 20.402,81 2.751,90 3.406,98 0,00 0,00 6.158,88 14.243,93 30/11/2022
738 325500 DENISE ROSA TORRES OFICIAL DO MP BELO HORIZONTE - COMARCA; DIRETORIA DE PESSOAL ADMINISTRATIVO - DPAD 12.118,97 3.635,69 0,00 0,00 0,00 0,00 0,00 1.911,00 17.665,66 2.313,96 2.826,83 0,00 0,00 5.140,79 12.524,87 30/11/2022
739 437200 DENISE VIVIANE DOS SANTOS ANALISTA DO MP BELO HORIZONTE - COMARCA; CGMP-ASSESSORIA JURIDICA 13.341,69 2.668,34 0,00 0,00 0,00 0,00 0,00 3.238,95 19.248,98 2.354,82 2.833,69 0,00 0,00 5.188,51 14.060,47 30/11/2022
740 267900 DENISIA ALMEIDA SALES OFICIAL DO MP BELO HORIZONTE - COMARCA; BH-18PJ DIREITOS HUMANOS-SECRETARIA 11.008,33 3.302,50 0,00 0,00 0,00 0,00 0,00 1.911,00 16.221,83 2.082,95 2.441,17 0,00 0,00 4.524,12 11.697,71 30/11/2022
741 480300 DESIREE ARANTES FERREIRA GOUVEA OFICIAL DO MP PRATÁPOLIS - COMARCA; PRATAPOLIS-PJ-UNPJ 6.694,66 1.338,93 0,00 0,00 0,00 1.078,59 0,00 1.911,00 11.023,18 1.078,59 1.339,88 0,00 0,00 2.418,47 8.604,71 30/11/2022
742 355300 DEYSE CRISTINA MORAIS OFICIAL DO MP PASSOS - COMARCA; PASSOS-PJ-02PJ 11.008,33 3.302,50 0,00 0,00 0,00 0,00 0,00 1.911,00 16.221,83 2.082,95 2.493,31 0,00 0,00 4.576,26 11.645,57 30/11/2022
743 523700 DIANA CAMPOS RESENDE OFICIAL DO MP SÃO JOÃO DEL REI - COMARCA; SAO JOAO DEL REI-PJ-04PJ 8.377,76 4.188,88 0,00 0,00 0,00 0,00 0,00 1.911,00 14.477,64 1.803,88 2.038,26 0,00 0,00 3.842,14 10.635,50 30/11/2022
744 241900 DIANA CARDOSO MARTINS OFICIAL DO MP BELO HORIZONTE - COMARCA; CAO-CRIMINAL 11.008,33 4.403,33 0,00 0,00 0,00 0,00 0,00 1.911,00 17.322,66 2.259,08 2.747,60 0,00 0,00 5.006,68 12.315,98 30/11/2022
745 410100 DIANA GORDILHO SILVEIRA SENA ANALISTA DO MP BELO HORIZONTE - COMARCA; BH-06PJ JUIZO CIVEL-SECRETARIA 16.169,47 3.233,89 0,00 0,00 0,00 0,00 0,00 1.911,00 21.314,36 2.897,75 3.669,68 0,00 0,00 6.567,43 14.746,93 30/11/2022
746 553000 DIANA MARIA MARQUES ANALISTA DO MP BETIM - COMARCA; BETIM-PJ-07PJ 11.008,33 1.100,83 0,00 0,00 0,00 0,00 0,00 1.911,00 14.020,16 1.730,68 1.932,58 0,00 0,00 3.663,26 10.356,90 30/11/2022
747 520000 DIARLE TOSTE DOS SANTOS ANALISTA DO MP RIO POMBA - COMARCA; RIO POMBA-PJ-UNPJ 11.008,33 2.201,67 0,00 0,00 0,00 0,00 0,00 1.911,00 15.121,00 1.906,81 1.572,42 0,00 0,00 3.479,23 11.641,77 30/11/2022
748 539800 DIEGO CAMARGOS RODRIGUES OFICIAL DO MP CONTAGEM - COMARCA; CONTAGEM-PJ-05PJ 6.694,66 669,47 0,00 0,00 0,00 0,00 0,00 1.911,00 9.275,13 971,47 888,62 0,00 0,00 1.860,09 7.415,04 30/11/2022
749 607300 DIEGO CERVEIRA DE SOUZA ANALISTA DO MP PATOS DE MINAS - COMARCA; COORD REG BACIAS PARACATU,URUCUIA E ABAETE 11.008,33 1.100,83 0,00 0,00 0,00 0,00 0,00 1.911,00 14.020,16 927,17 2.102,11 0,00 0,00 3.029,28 10.990,88 30/11/2022
750 446900 DIEGO DE FREITAS OFICIAL DO MP UBERABA - COMARCA; UBERABA-PJ-06PJ 9.223,00 1.844,60 0,00 0,00 0,00 0,00 0,00 1.911,00 12.978,60 1.564,03 1.744,12 0,00 0,00 3.308,15 9.670,45 30/11/2022
751 288800 DILENE NEPOMUCENO ALVES OFICIAL DO MP BELO HORIZONTE - COMARCA; DIRETORIA DE PESSOAL ADMINISTRATIVO - DPAD 11.008,33 3.302,50 0,00 0,00 0,00 0,00 0,00 1.911,00 16.221,83 2.082,95 2.493,31 0,00 0,00 4.576,26 11.645,57 30/11/2022
752 681200 DILLIANY PAULA LOPES SERRANO ASSESSOR PROMOTOR JUSTICA RESPLENDOR - COMARCA; RESPLENDOR-PJ-UNPJ 0,00 0,00 7.857,77 0,00 2.619,26 0,00 0,00 2.796,30 13.273,33 828,38 2.150,59 0,00 0,00 2.978,97 10.294,36 30/11/2022
753 270101 DILSON DO AMARAL ANALISTA DO MP RIO CASCA - COMARCA; RIO CASCA-PJ-UNPJ 11.008,33 1.100,83 0,00 0,00 0,00 0,00 0,00 1.911,00 14.020,16 1.730,68 1.984,72 0,00 0,00 3.715,40 10.304,76 30/11/2022
754 466000 DIMITRI GUDE MARCIAL ANALISTA DO MP NANUQUE - COMARCA; NANUQUE-PJ-02PJ 11.008,33 2.201,67 0,00 0,00 0,00 0,00 0,00 3.681,60 16.891,60 1.906,81 2.082,60 0,00 0,00 3.989,41 12.902,19 30/11/2022
755 516300 DINORA APARECIDA MACEDO BRANDAO ANALISTA DO MP BELO HORIZONTE - COMARCA; BH-19PJ SAUDE-SECRETARIA 150PJ 10.661,25 2.132,25 0,00 0,00 0,00 0,00 0,00 1.911,00 14.704,50 1.840,17 2.142,80 0,00 0,00 3.982,97 10.721,53 30/11/2022
756 511700 DIOGENES HENRIQUES PEREIRA LOURENCO ANALISTA DO MP BELO HORIZONTE - COMARCA; BH-03PJ EMPRESARIAL-SECRETARIA 11.008,33 2.201,67 0,00 0,00 0,00 0,00 0,00 2.796,30 16.006,30 927,17 2.382,14 0,00 0,00 3.309,31 12.696,99 30/11/2022
757 604100 DIOGO CESAR DE OLIVEIRA HONORIO ASSESSOR ADMINISTRATIVO III PIUMHI - COMARCA; PIUMHI-PJ-02PJ 0,00 0,00 9.684,23 0,00 3.228,08 0,00 0,00 1.911,00 14.823,31 828,38 2.820,30 0,00 0,00 3.648,68 11.174,63 30/11/2022
758 259600 DIOGO MESQUITA MAIA ANALISTA DO MP BELO HORIZONTE - COMARCA; DIRET DE APOIO AS PROCURADORIAS DE JUSTICA 19.791,01 17.811,91 0,00 0,00 0,00 5.467,17 0,00 1.911,00 44.981,09 5.467,17 8.830,61 2.140,70 0,00 16.438,48 28.542,61 30/11/2022
759 386700 DIRCIMAR FERNANDES CARNEIRO OFICIAL DO MP VISCONDE DO RIO BRANCO - COMARCA; VISCONDE DO RIO BRANCO-PJ-03PJ 9.999,62 6.999,73 0,00 0,00 0,00 0,00 0,00 1.911,00 18.910,35 2.513,11 3.114,36 0,00 0,00 5.627,47 13.282,88 30/11/2022
760 113800 DIRSON APARECIDO GUIMARAES ASSESSOR ADMINISTRATIVO II BELO HORIZONTE - COMARCA; DIVISAO DE MANUTENCAO PREDIAL 0,00 6.025,19 6.694,66 0,00 0,00 0,00 0,00 1.911,00 14.630,85 828,38 2.767,37 0,00 0,00 3.595,75 11.035,10 30/11/2022
761 216700 DOMICIO VALDETE PEREIRA OFICIAL DO MP TEÓFILO OTONI - COMARCA; COORD REG PJ DEF EDU DIR CRIAN ADOL JEQUI MUC 16.695,70 6.678,28 0,00 0,00 0,00 0,00 0,00 1.911,00 25.284,98 3.533,05 4.482,62 0,00 0,00 8.015,67 17.269,31 30/11/2022
762 192701 DONIZETTI APARECIDO AMORIM ANALISTA DO MP PRATÁPOLIS - COMARCA; PRATAPOLIS-PJ-UNPJ 11.008,33 4.403,33 0,00 0,00 0,00 0,00 0,00 1.911,00 17.322,66 2.259,08 2.695,46 0,00 0,00 4.954,54 12.368,12 30/11/2022
763 558700 DORCILIA FATIMA DE OLIVEIRA OFICIAL DO MP DIVINÓPOLIS - COMARCA; DIVINOPOLIS-PJ-02PJ 6.694,66 669,47 0,00 0,00 0,00 971,47 0,00 1.911,00 10.246,60 971,47 1.103,64 0,00 0,00 2.075,11 8.171,49 30/11/2022
764 555300 DOUGLAS CUNHA DE SOUZA ANALISTA DO MP VARZEA DA PALMA - COMARCA; VARZEA DA PALMA-PJ-01PJ 11.008,33 1.100,83 0,00 0,00 0,00 0,00 0,00 2.796,30 14.905,46 927,17 2.102,11 0,00 0,00 3.029,28 11.876,18 30/11/2022
765 265900 DOUGLAS GOMES MOREIRA ANALISTA DO MP BELO HORIZONTE - COMARCA; CENTRAL DE APOIO TECNICO-SETOR DE ENGENHARIA 20.574,59 6.172,38 0,00 0,00 0,00 0,00 0,00 1.911,00 28.657,97 4.072,73 5.366,06 0,00 0,00 9.438,79 19.219,18 30/11/2022
766 241000 DOUGLAS MEIRELLES DE CASTRO OFICIAL DO MP CONCEIÇÃO DO RIO VERDE - COMARCA; CONCEICAO DO RIO VERDE-PJ-UNPJ 15.659,55 6.263,82 0,00 0,00 0,00 0,00 0,00 1.911,00 23.834,37 3.300,95 4.199,67 0,00 0,00 7.500,62 16.333,75 30/11/2022
767 534900 DOUGLAS SILVA E SOUZA ANALISTA DO MP CAMPOS GERAIS - COMARCA; CAMPOS GERAIS-PJ-01PJ 11.008,33 1.100,83 0,00 0,00 0,00 0,00 0,00 1.911,00 14.020,16 927,17 2.049,97 0,00 0,00 2.977,14 11.043,02 30/11/2022
768 638900 DOUGLAS WALLAS CONCEICAO NEVES OFICIAL DO MP RIBEIRÃO DAS NEVES - COMARCA; RIBEIRAO DAS NEVES-PJ-SEC CIVEL 5.889,39 588,94 0,00 0,00 0,00 0,00 0,00 1.911,00 8.389,33 832,79 683,16 0,00 0,00 1.515,95 6.873,38 30/11/2022
769 146800 DUCINALVA AMARAL LOPES REIS OFICIAL DO MP PARAISÓPOLIS - COMARCA; PARAISOPOLIS-PJ-UNPJ 20.574,59 14.402,22 0,00 0,00 0,00 5.389,50 0,00 1.911,00 42.277,31 5.389,50 8.644,99 0,00 0,00 14.034,49 28.242,82 30/11/2022
770 122500 DUILIO CARLOS FERREIRA UTSCH OFICIAL DO MP CONCEIÇÃO DO MATO DENTRO - COMARCA; CONCEICAO DO MATO DENTRO-PJ-UNPJ 16.695,70 15.026,13 0,00 0,00 0,00 5.135,84 1.669,57 1.911,00 40.438,24 5.135,84 8.313,28 0,00 0,00 13.449,12 26.989,12 30/11/2022
771 201800 DULCINEIA ANDRE DE SOUZA OFICIAL DO MP JEQUITINHONHA - COMARCA; JEQUITINHONHA-PJ-SECRETARIA 16.695,70 6.678,28 0,00 0,00 0,00 0,00 0,00 1.911,00 25.284,98 3.533,05 4.430,48 0,00 0,00 7.963,53 17.321,45 30/11/2022
772 395800 DUVIDIER MEDIRCIO JUNIOR ANALISTA DO MP BELO HORIZONTE - COMARCA; CENTRAL DE APOIO TECNICO-SETOR DE ENGENHARIA 17.614,89 3.522,98 0,00 0,00 0,00 0,00 0,00 1.911,00 23.048,87 3.175,27 4.070,35 0,00 0,00 7.245,62 15.803,25 30/11/2022
773 604800 ECIA RAMILIS ISSA DE ABREU ANALISTA DO MP BRASÍLIA DE MINAS - COMARCA; BRASILIA DE MINAS-PJ-01PJ 10.325,15 1.032,52 0,00 0,00 0,00 0,00 0,00 2.796,30 14.153,97 1.610,44 1.811,13 0,00 0,00 3.421,57 10.732,40 30/11/2022
774 273000 EDELFINA APARECIDA GUIMARAES OFICIAL DO MP CACHOEIRA DE MINAS - COMARCA; CACHOEIRA DE MINAS-PJ-UNPJ 12.118,97 8.483,29 0,00 0,00 0,00 0,00 0,00 1.911,00 22.513,26 3.089,58 3.894,49 0,00 0,00 6.984,07 15.529,19 30/11/2022
775 523300 EDER DOS SANTOS PATRICIO ANALISTA DO MP NOVA SERRANA - COMARCA; NOVA SERRANA-PJ-03PJ 11.008,33 2.201,67 0,00 0,00 0,00 0,00 0,00 2.796,30 16.006,30 927,17 2.330,00 0,00 0,00 3.257,17 12.749,13 30/11/2022
776 356700 EDER JOSE PACHECO OFICIAL DO MP CAMPO BELO - COMARCA; CAMPO BELO-PJ-04PJ 11.008,33 3.302,50 0,00 0,00 0,00 0,00 1.580,00 1.911,00 17.801,83 2.082,95 2.823,53 0,00 0,00 4.906,48 12.895,35 30/11/2022
777 507900 EDERSON SILVA LOPES OFICIAL DO MP BELO HORIZONTE - COMARCA; LABORATORIO TECNOLOGIA INTELIGENCIA 8.113,66 1.622,73 0,00 0,00 0,00 0,00 0,00 1.911,00 11.647,39 1.351,04 1.332,34 0,00 0,00 2.683,38 8.964,01 30/11/2022
778 296200 EDGARD GOULART MATOSINHO DE LAET JR ANALISTA DO MP GOVERNADOR VALADARES - COMARCA; GOVERNADOR VALADARES-PJ-12PJ 19.791,01 5.937,30 0,00 0,00 0,00 0,00 0,00 1.911,00 27.639,31 3.909,74 5.026,47 0,00 0,00 8.936,21 18.703,10 30/11/2022
779 295000 EDILA MARIA DA SILVEIRA OFICIAL DO MP FORMIGA - COMARCA; FORMIGA-PJ-01PJ 9.999,62 2.999,89 0,00 0,00 0,00 0,00 0,00 1.911,00 14.910,51 1.873,14 2.190,39 0,00 0,00 4.063,53 10.846,98 30/11/2022
780 332300 EDILA MARILAC MIRANDA PRADO OFICIAL DO MP DIAMANTINA - COMARCA; DIAMANTINA-PJ-01PJ 11.008,33 5.504,17 0,00 0,00 0,00 0,00 0,00 1.911,00 18.423,50 2.435,21 2.897,62 0,00 0,00 5.332,83 13.090,67 30/11/2022
781 376600 EDILANE CONSOLACAO ROSA NAZARETH ANALISTA DO MP BETIM - COMARCA; BETIM-PJ-10PJ 16.169,47 3.233,89 0,00 0,00 0,00 0,00 0,00 1.911,00 21.314,36 927,17 3.957,57 0,00 0,00 4.884,74 16.429,62 30/11/2022
782 309800 EDILZA DOS REIS OFICIAL DO MP UBERLÂNDIA - COMARCA; UBERLANDIA-PJ-03PJ 11.008,33 3.302,50 0,00 0,00 0,00 0,00 0,00 1.911,00 16.221,83 2.082,95 2.441,17 0,00 0,00 4.524,12 11.697,71 30/11/2022
783 200500 EDINEIA MARIA DE OLIVEIRA ANTUNES OFICIAL DO MP MONTES CLAROS - COMARCA; MONTES CLAROS-PJ-10PJ 18.312,36 9.156,18 0,00 0,00 0,00 0,00 0,00 1.911,00 29.379,54 4.188,18 5.532,74 0,00 0,00 9.720,92 19.658,62 30/11/2022
784 427700 EDISANGELA SOARES LOPES OFICIAL DO MP PIRAPORA - COMARCA; PIRAPORA-PJ-02PJ 6.694,66 1.338,93 0,00 0,00 2.677,86 0,00 0,00 1.911,00 12.622,45 1.078,59 1.779,68 0,00 0,00 2.858,27 9.764,18 30/11/2022
785 555400 EDISON MONTEIRO SAMPAIO NETO ANALISTA DO MP BELO HORIZONTE - COMARCA; BH-12PJ JUIZO CRIMINAL-GAB 094PJ 11.008,33 1.100,83 0,00 0,00 0,00 0,00 0,00 1.911,00 14.020,16 1.730,68 1.984,72 0,00 0,00 3.715,40 10.304,76 30/11/2022
786 517700 EDMILSON TADEU FERNANDES OFICIAL DO MP POUSO ALEGRE - COMARCA; GAECO REGIONAL DE POUSO ALEGRE 8.377,76 1.675,55 0,00 0,00 0,00 0,00 0,00 1.911,00 11.964,31 1.401,74 1.509,82 0,00 0,00 2.911,56 9.052,75 30/11/2022
787 358400 EDNA APARECIDA SILVA FERREIRA OFICIAL DO MP CORONEL FABRICIANO - COMARCA; CORONEL FABRICIANO-PJ-02PJ 11.736,91 3.521,07 0,00 0,00 0,00 0,00 0,00 1.911,00 17.168,98 2.234,49 2.607,83 0,00 0,00 4.842,32 12.326,66 30/11/2022
788 331800 EDNA MARCIA CAMILO DA SILVA OFICIAL DO MP SETE LAGOAS - COMARCA; SETE LAGOAS-PJ-SEC CRIMINAIS 11.008,33 3.302,50 0,00 0,00 0,00 0,00 0,00 1.911,00 16.221,83 2.082,95 2.441,17 0,00 0,00 4.524,12 11.697,71 30/11/2022
789 327900 EDRIEL SANTANA PEREIRA OFICIAL DO MP TUPACIGUARA - COMARCA; TUPACIGUARA-PJ-01PJ 11.008,33 3.302,50 0,00 0,00 0,00 0,00 0,00 2.910,73 17.221,56 2.082,95 2.493,31 0,00 0,00 4.576,26 12.645,30 30/11/2022
790 482400 EDSON GARCIA OFICIAL DO MP MACHADO - COMARCA; MACHADO-PJ-02PJ 6.694,66 1.338,93 0,00 0,00 0,00 0,00 0,00 1.911,00 9.944,59 1.078,59 938,99 0,00 0,00 2.017,58 7.927,01 30/11/2022
791 225601 EDSON LABRE FILHO ANALISTA DO MP VARGINHA - COMARCA; VARGINHA-PJ-01PJ 19.791,01 5.937,30 0,00 0,00 0,00 0,00 0,00 1.911,00 27.639,31 3.909,74 5.078,61 0,00 0,00 8.988,35 18.650,96 30/11/2022
792 602700 EDSON NOGUEIRA BUENO OFICIAL DO MP PITANGUI - COMARCA; PITANGUI-PJ-02PJ 6.081,20 608,12 0,00 0,00 0,00 0,00 0,00 1.911,00 8.600,32 865,50 732,19 0,00 0,00 1.597,69 7.002,63 30/11/2022
793 716500 EDUARDA CORREA MOREIRA ASSESSOR ADMINISTRATIVO I BELO HORIZONTE - COMARCA; DIRET DE FORMACAO, APERFEIC. E POS-GRADUACAO 0,00 0,00 4.345,58 0,00 0,00 0,00 0,00 2.796,30 7.141,88 631,17 518,68 0,00 0,00 1.149,85 5.992,03 30/11/2022
794 414400 EDUARDO ABRANTES CAMPOS ANALISTA DO MP SÃO JOÃO DEL REI - COMARCA; SAO JOAO DEL REI-PJ-02PJ 16.169,47 3.233,89 0,00 0,00 0,00 0,00 0,00 1.911,00 21.314,36 2.897,75 3.669,68 0,00 0,00 6.567,43 14.746,93 30/11/2022
795 476800 EDUARDO ALVES DE MOURA ANALISTA DO MP UBERLÂNDIA - COMARCA; UBERLANDIA-PJ-02PJ 11.008,33 2.201,67 0,00 0,00 0,00 0,00 0,00 2.796,30 16.006,30 927,17 2.225,72 0,00 0,00 3.152,89 12.853,41 30/11/2022
796 390800 EDUARDO AMORIM PETTERSEN OFICIAL DO MP CARANGOLA - COMARCA; CARANGOLA-PJ-SECRETARIA 9.684,23 1.936,85 0,00 0,00 0,00 0,00 0,00 2.360,43 13.981,51 1.652,59 1.871,98 0,00 0,00 3.524,57 10.456,94 30/11/2022
797 461600 EDUARDO ANTONIO DE ASSIS FARIA ASSESSOR ADMINISTRATIVO III BELO HORIZONTE - COMARCA; ASSESS EXECUTIVA DO CONSELHO SUPERIOR DO MP 0,00 0,00 9.684,23 0,00 0,00 0,00 670,00 1.911,00 12.265,23 828,38 1.880,44 0,00 0,00 2.708,82 9.556,41 30/11/2022
798 248800 EDUARDO DE CASTRO AMORIM ANALISTA DO MP BELO HORIZONTE - COMARCA; SUPER DE GESTAO DE PESSOAS-LOTACAO TEMPORARIA 20.574,59 6.172,38 0,00 0,00 0,00 0,00 0,00 1.911,00 28.657,97 4.072,73 5.366,06 0,00 0,00 9.438,79 19.219,18 30/11/2022
799 209100 EDUARDO DE SOUZA MAIA ANALISTA DO MP BELO HORIZONTE - COMARCA; SUPER DE GESTAO DE PESSOAS-LOTACAO TEMPORARIA 20.574,59 8.229,84 0,00 0,00 0,00 0,00 0,00 1.911,00 30.715,43 4.401,92 5.737,06 0,00 0,00 10.138,98 20.576,45 30/11/2022
800 633900 EDUARDO GONCALVES PIRES OFICIAL DO MP BELO HORIZONTE - COMARCA; DIRETORIA DE PAGAMENTO DE PESSOAL-DPAG 7.370,10 2.211,03 0,00 0,00 0,00 0,00 0,00 1.911,00 11.492,13 1.326,19 1.400,75 0,00 0,00 2.726,94 8.765,19 30/11/2022
801 350500 EDUARDO GONCALVES RIBEIRO OFICIAL DO MP VESPASIANO - COMARCA; VESPASIANO-PJ-04PJ 10.325,15 3.097,55 0,00 0,00 0,00 0,00 0,00 1.911,00 15.333,70 1.940,85 2.288,15 0,00 0,00 4.229,00 11.104,70 30/11/2022
802 115800 EDUARDO HENRIQUE DE CAMPOS MAIA OFICIAL DO MP BELO HORIZONTE - COMARCA; DIV FISCAL ADM CONT TERCEIRIZACAO 19.037,29 9.518,65 0,00 0,00 0,00 0,00 0,00 1.911,00 30.466,94 4.362,16 5.627,52 0,00 0,00 9.989,68 20.477,26 30/11/2022
803 392600 EDUARDO HENRIQUE DOS SANTOS COSTA ELIAZAR OFICIAL DO MP MATOZINHOS - COMARCA; MATOZINHOS-PJ-01PJ 9.684,23 1.936,85 0,00 0,00 0,00 0,00 0,00 1.911,00 13.532,08 1.652,59 1.767,70 0,00 0,00 3.420,29 10.111,79 30/11/2022
804 99101 EDUARDO JOSE DE FREITAS NUNES ASSESSOR ADMINISTRATIVO II BELO HORIZONTE - COMARCA; PROC JUST ATUACAO TRIBUNAIS SUPERIORES-GAB007 0,00 2.677,86 6.694,66 0,00 0,00 0,00 0,00 1.911,00 11.283,52 828,38 1.846,85 0,00 0,00 2.675,23 8.608,29 30/11/2022
805 407500 EDUARDO MASCARENHAS CURI AZEVEDO COORDENADOR II BELO HORIZONTE - COMARCA; DIR CONTEUDO JORNALISTICO 18.312,36 3.662,47 0,00 0,00 0,00 0,00 0,00 2.796,30 24.771,13 1.906,81 4.649,34 0,00 0,00 6.556,15 18.214,98 30/11/2022
806 601300 EDUARDO TRAD VIEIRA OFICIAL DO MP IGARAPÉ - COMARCA; IGARAPE-PJ-SECRETARIA 6.694,66 669,47 0,00 0,00 0,00 0,00 0,00 1.911,00 9.275,13 971,47 888,62 0,00 0,00 1.860,09 7.415,04 30/11/2022
807 257600 EDUARDO VALADARES CABRAL ANALISTA DO MP BELO HORIZONTE - COMARCA; COORD DE INCLUSAO E MOBILIZACAO SOCIAIS 20.574,59 6.172,38 0,00 0,00 8.915,66 0,00 0,00 1.911,00 37.573,63 4.072,73 7.817,86 0,00 0,00 11.890,59 25.683,04 30/11/2022
808 545700 EDVAIR FERREIRA DE CARVALHO OFICIAL DO MP ARAGUARI - COMARCA; ARAGUARI-PJ-06PJ 6.694,66 669,47 0,00 0,00 0,00 0,00 0,00 1.911,00 9.275,13 971,47 836,48 0,00 0,00 1.807,95 7.467,18 30/11/2022
809 401700 EDWANIA AMORIM DO CARMO OFICIAL DO MP RIBEIRÃO DAS NEVES - COMARCA; RIBEIRAO DAS NEVES-PJ-03PJ 9.999,62 1.999,92 0,00 0,00 0,00 0,00 527,98 7.670,78 20.198,30 1.713,14 1.959,40 0,00 0,00 3.672,54 16.525,76 30/11/2022
810 303600 EFIGENIO SARAIVA LOPES ANALISTA DO MP BELO HORIZONTE - COMARCA; DIRETORIA DE PAGAMENTO DE PESSOAL-DPAG 20.574,59 6.172,38 4.939,72 0,00 0,00 0,00 0,00 1.911,00 33.597,69 4.072,73 6.672,34 0,00 0,00 10.745,07 22.852,62 30/11/2022
811 286000 ELAINE APARECIDA SILVA BERZOINI OFICIAL DO MP JUIZ DE FORA - COMARCA; JUIZ DE FORA-PJ-07PJ 11.008,33 3.302,50 0,00 0,00 0,00 0,00 0,00 1.911,00 16.221,83 2.082,95 2.493,31 0,00 0,00 4.576,26 11.645,57 30/11/2022
812 509000 ELAINE CANDIDA PONTES OFICIAL DO MP BELO HORIZONTE - COMARCA; BH-02PJ FAMILIA-SECRETARIA 8.932,15 1.786,43 0,00 0,00 0,00 0,00 0,00 1.911,00 12.629,58 1.508,19 1.663,50 0,00 0,00 3.171,69 9.457,89 30/11/2022
813 283601 ELAINE CRISTINA MEQUELINO DUARTE ANALISTA DO MP ALFENAS - COMARCA; ALFENAS-PJ-02PJ 16.169,47 3.233,89 0,00 0,00 0,00 0,00 0,00 1.911,00 21.314,36 2.897,75 3.565,41 0,00 0,00 6.463,16 14.851,20 30/11/2022
814 535500 ELAINE DE OLIVEIRA CAMPOS REIS OFICIAL DO MP RIBEIRÃO DAS NEVES - COMARCA; RIBEIRAO NEVES-SEC PJ EXECUCAO PENAL 6.694,66 669,47 0,00 0,00 0,00 0,00 0,00 1.911,00 9.275,13 971,47 888,62 0,00 0,00 1.860,09 7.415,04 30/11/2022
815 455700 ELAINE DE OLIVEIRA CASTRO ANALISTA DO MP POMPÉU - COMARCA; POMPEU-PJ-UNPJ 11.008,33 2.201,67 0,00 0,00 0,00 0,00 0,00 1.911,00 15.121,00 1.906,81 2.134,74 0,00 0,00 4.041,55 11.079,45 30/11/2022
816 367200 ELAINE MUNIZ BARBOSA ANALISTA DO MP BELO HORIZONTE - COMARCA; DIRETORIA DE SISTEMAS DE INFORMACAO 18.312,36 5.493,71 0,00 0,00 0,00 0,00 0,00 2.796,30 26.602,37 3.602,18 4.634,57 0,00 0,00 8.236,75 18.365,62 30/11/2022
817 679200 ELAINE RIBEIRO CHAVES ASSESSOR PROCURADOR JUSTICA BELO HORIZONTE - COMARCA; GABINETE DE PROCURADOR DE JUSTIÇA - SALA 614 0,00 0,00 7.857,77 0,00 0,00 0,00 0,00 1.911,00 9.768,77 828,38 1.378,16 0,00 0,00 2.206,54 7.562,23 30/11/2022
818 176900 ELAINE RIBEIRO TAVEIRA OFICIAL DO MP BELO HORIZONTE - COMARCA; DIVISAO FROTA 15.165,83 6.066,33 0,00 0,00 0,00 0,00 0,00 1.911,00 23.143,16 3.190,36 4.092,14 0,00 0,00 7.282,50 15.860,66 30/11/2022
819 496200 ELAINE SABRINA MOREIRA SCHUWARTEN ANALISTA DO MP IPATINGA - COMARCA; GAECO REGIONAL DE IPATINGA 12.118,97 2.423,79 0,00 0,00 0,00 0,00 0,00 1.911,00 16.453,76 2.120,06 2.546,88 0,00 0,00 4.666,94 11.786,82 30/11/2022
820 489200 ELAINE VICENTINO GARCIA ANALISTA DO MP BELO HORIZONTE - COMARCA; CENTRAL DE APOIO TECNICO-SETOR CONTABIL 11.008,33 3.302,50 0,00 0,00 0,00 0,00 0,00 1.911,00 16.221,83 2.082,95 2.389,03 0,00 0,00 4.471,98 11.749,85 30/11/2022
821 731400 ELBERT MENDES PINHEIRO ASSESSOR PROMOTOR JUSTICA BELO HORIZONTE - COMARCA; COORD ESTADUAL DAS PJS DE HAB. E URBANISMO 0,00 0,00 6.024,29 0,00 0,00 0,00 0,00 1.608,05 7.632,34 823,78 844,04 0,00 0,00 1.667,82 5.964,52 30/11/2022
822 244500 ELCI ALVES DE SOUZA ASSESSOR ADMINISTRATIVO II BELO HORIZONTE - COMARCA; CAO-CONFLITOS AGRARIOS-SECRETARIA 0,00 2.008,40 6.694,66 0,00 0,00 0,00 0,00 1.911,00 10.614,06 828,38 1.610,61 0,00 0,00 2.438,99 8.175,07 30/11/2022
823 472500 ELCI VAZ DE OLIVEIRA FILHO ANALISTA DO MP PIUMHI - COMARCA; PIUMHI-PJ-02PJ 11.008,33 5.504,17 0,00 0,00 0,00 0,00 0,00 1.911,00 18.423,50 2.435,21 3.001,89 0,00 0,00 5.437,10 12.986,40 30/11/2022
824 385200 ELCI VIANA REIS OFICIAL DO MP RIO PARDO DE MINAS - COMARCA; RIO PARDO DE MINAS-PJ-SECRETARIA 11.008,33 5.504,17 0,00 0,00 0,00 0,00 0,00 1.911,00 18.423,50 2.435,21 3.001,89 0,00 0,00 5.437,10 12.986,40 30/11/2022
825 289801 ELCIO JOSE DOS SANTOS ANALISTA DO MP BELO HORIZONTE - COMARCA; DIVISAO DE SERVICOS 11.008,33 2.201,67 4.939,72 0,00 0,00 0,00 0,00 1.911,00 20.060,72 1.906,81 3.597,44 0,00 0,00 5.504,25 14.556,47 30/11/2022
826 319600 ELEN TULER DE ALBERGARIA ANALISTA DO MP BELO HORIZONTE - COMARCA; BH-19PJ SAUDE-SECRETARIA 130PJ 20.574,59 8.229,84 0,00 0,00 0,00 0,00 0,00 1.911,00 30.715,43 4.401,92 5.841,33 0,00 0,00 10.243,25 20.472,18 30/11/2022
827 205500 ELIANA ALVES DE SOUSA OFICIAL DO MP GOVERNADOR VALADARES - COMARCA; GOVERNADOR VALADARES-PJ-07PJ 11.008,33 4.403,33 0,00 0,00 0,00 0,00 0,00 1.911,00 17.322,66 2.259,08 2.747,60 0,00 0,00 5.006,68 12.315,98 30/11/2022
828 628800 ELIANA APARECIDA PEREIRA ANALISTA DO MP CAMBUÍ - COMARCA; CAMBUI-PJ-02PJ 9.223,00 922,30 0,00 0,00 0,00 0,00 0,00 1.911,00 12.056,30 1.416,46 1.478,93 0,00 0,00 2.895,39 9.160,91 30/11/2022
829 301700 ELIANA DA SILVEIRA ANALISTA DO MP BELO HORIZONTE - COMARCA; BH-11PJ COMB CRIME ORGANIZ-GAB 081PJ 18.312,36 5.493,71 0,00 0,00 0,00 0,00 0,00 1.911,00 25.717,07 3.602,18 4.686,71 0,00 0,00 8.288,89 17.428,18 30/11/2022
830 251500 ELIANA DE LIMA MILAGRES FONSECA ANALISTA DO MP CONTAGEM - COMARCA; CONTAGEM-PJ-16PJ 20.574,59 6.172,38 0,00 0,00 0,00 0,00 0,00 1.911,00 28.657,97 4.072,73 5.313,92 0,00 0,00 9.386,65 19.271,32 30/11/2022
831 503900 ELIANA DIAS DUTRA FERREIRA OFICIAL DO MP BELO HORIZONTE - COMARCA; DIRETORIA GESTAO COMPRAS LICITACOES 8.650,50 1.730,10 0,00 0,00 0,00 0,00 0,00 1.911,00 12.291,60 1.454,11 1.533,29 0,00 0,00 2.987,40 9.304,20 30/11/2022
832 413900 ELIANA PINTO DE OLIVEIRA NEVES ANALISTA DO MP CAMPO BELO - COMARCA; CAMPO BELO-PJ-04PJ 14.224,47 2.844,89 0,00 0,00 0,00 0,00 0,00 1.911,00 18.980,36 2.524,31 3.130,53 0,00 0,00 5.654,84 13.325,52 30/11/2022
833 228200 ELIANA RODRIGUES DA CUNHA PINHEIRO OFICIAL DO MP BELO HORIZONTE - COMARCA; DIRETORIA DE PROJETOS DE EDIFICACOES 14.224,47 4.267,34 0,00 0,00 0,00 2.751,90 0,00 1.911,00 23.154,71 2.751,90 4.215,89 0,00 0,00 6.967,79 16.186,92 30/11/2022
834 386600 ELIANA SABINO CHAVES PESSOA ANALISTA DO MP CARATINGA - COMARCA; CARATINGA-PJ-06PJ 16.169,47 11.318,64 0,00 0,00 0,00 4.191,31 0,00 1.911,00 33.590,42 4.191,31 6.637,73 0,00 0,00 10.829,04 22.761,38 30/11/2022
835 677500 ELIANA SILVA ANDRADE ASSESSOR PROMOTOR JUSTICA TRÊS CORACOES - COMARCA; TRES CORACOES-PJ-06PJ 0,00 0,00 7.857,77 0,00 0,00 0,00 0,00 1.911,00 9.768,77 828,38 1.430,30 0,00 0,00 2.258,68 7.510,09 30/11/2022
836 297400 ELIANE AUGUSTA RIBEIRO COSTA ANALISTA DO MP CONSELHEIRO LAFAIETE - COMARCA; CONSELHEIRO LAFAIETE-PJ-05PJ 20.574,59 6.172,38 0,00 0,00 0,00 0,00 0,00 1.911,00 28.657,97 4.072,73 5.261,78 0,00 0,00 9.334,51 19.323,46 30/11/2022
837 510600 ELIANE CAROLINA MAIA ANALISTA DO MP IGARAPÉ - COMARCA; IGARAPE-PJ-03PJ 11.008,33 2.201,67 0,00 0,00 0,00 0,00 1.100,83 1.911,00 16.221,83 2.082,95 2.336,90 0,00 0,00 4.419,85 11.801,98 30/11/2022
838 262600 ELIANE FERREIRA SOARES ASSESSOR ADMINISTRATIVO II BELO HORIZONTE - COMARCA; BH-18PJ DIREITOS HUMANOS-SECRETARIA 0,00 2.677,86 6.694,66 0,00 0,00 0,00 0,00 1.911,00 11.283,52 828,38 1.846,85 0,00 0,00 2.675,23 8.608,29 30/11/2022
839 204400 ELIANE GLAUCE DE QUEIROS MAIA OFICIAL DO MP GUANHÃES - COMARCA; GUANHAES-PJ-02PJ 16.695,70 6.678,28 0,00 0,00 0,00 0,00 0,00 1.911,00 25.284,98 3.533,05 4.586,90 0,00 0,00 8.119,95 17.165,03 30/11/2022
840 91800 ELIANE KAPLER ALVES OFICIAL DO MP BELO HORIZONTE - COMARCA; DIVISAO DE CONTROLE IMOBILIARIO 20.574,59 14.402,22 0,00 0,00 0,00 0,00 0,00 1.911,00 36.887,81 5.389,50 7.162,87 0,00 0,00 12.552,37 24.335,44 30/11/2022
841 334200 ELIANE MARCIA DE OLIVEIRA BRITO OFICIAL DO MP BELO HORIZONTE - COMARCA; BH-08PJ JUIZADO ESPECIAL-SECRETARIA 6.694,66 2.008,40 0,00 0,00 0,00 0,00 0,00 1.911,00 10.614,06 1.185,70 1.197,91 0,00 0,00 2.383,61 8.230,45 30/11/2022
842 365900 ELIANE MARIA DE OLIVEIRA FERREIRA OFICIAL DO MP SETE LAGOAS - COMARCA; SETE LAGOAS-PJ-SEC CRIMINAIS 11.008,33 5.504,17 0,00 0,00 0,00 0,00 0,00 1.911,00 18.423,50 2.435,21 3.001,89 0,00 0,00 5.437,10 12.986,40 30/11/2022
843 320600 ELIANE STADLER DE SOUZA OFICIAL DO MP FRANCISCO SÁ - COMARCA; FRANCISCO SA-PJ-SECRETARIA 10.325,15 3.097,55 0,00 0,00 4.474,23 0,00 0,00 1.911,00 19.807,93 1.940,85 3.466,43 0,00 0,00 5.407,28 14.400,65 30/11/2022
844 448900 ELIAS PEREIRA OTONI ASSESSOR ADMINISTRATIVO II BELO HORIZONTE - COMARCA; BH-18PJ DIREITOS HUMANOS-SECRETARIA 0,00 0,00 6.694,66 0,00 0,00 0,00 0,00 1.911,00 8.605,66 828,38 1.006,17 0,00 0,00 1.834,55 6.771,11 30/11/2022
845 495400 ELICA SOUZA GASPARONI MATTOS OFICIAL DO MP UBÁ - COMARCA; UBA-PJ-06PJ 8.650,50 1.730,10 0,00 0,00 0,00 0,00 0,00 1.911,00 12.291,60 1.454,11 1.585,42 0,00 0,00 3.039,53 9.252,07 30/11/2022
846 86600 ELIENE FERREIRA DA SILVA OFICIAL DO MP BELO HORIZONTE - COMARCA; BH-22PJ PES COM DEF E IDOSOS-SECRETARIA 23.116,32 16.181,42 0,00 0,00 0,00 5.467,17 130,03 3.329,49 48.224,43 5.467,17 8.726,34 3.835,52 0,00 18.029,03 30.195,40 30/11/2022
847 183800 ELIENE MARIA CUNHA OFICIAL DO MP BELO HORIZONTE - COMARCA; DIRETORIA DE PESSOAL ADMINISTRATIVO - DPAD 18.312,36 7.324,94 0,00 0,00 0,00 0,00 0,00 1.911,00 27.548,30 3.895,18 5.057,59 0,00 0,00 8.952,77 18.595,53 30/11/2022
848 172300 ELINA APARECIDA SILVA ASSESSOR ADMINISTRATIVO I BELO HORIZONTE - COMARCA; BH-19PJ SAUDE-SECRETARIA 130PJ 0,00 1.738,23 4.345,58 0,00 0,00 0,00 0,00 1.911,00 7.994,81 828,38 890,32 0,00 0,00 1.718,70 6.276,11 30/11/2022
849 492501 ELINE CAMPOS DA FONSECA CUNHA ANALISTA DO MP PONTE NOVA - COMARCA; PONTE NOVA-PJ-05PJ 11.008,33 2.201,67 0,00 0,00 0,00 0,00 0,00 1.911,00 15.121,00 1.906,81 2.239,02 0,00 0,00 4.145,83 10.975,17 30/11/2022
850 618900 ELISA MOURA VIEIRA MARCATTI OFICIAL DO MP BELO HORIZONTE - COMARCA; GRUPO ESP PROM JUST DEF PROB ADM PAT PUB 6.694,66 669,47 0,00 0,00 0,00 0,00 0,00 2.796,30 10.160,43 971,47 888,62 0,00 0,00 1.860,09 8.300,34 30/11/2022
851 256500 ELISABETE NOGUEIRA ANALISTA DO MP RIBEIRÃO DAS NEVES - COMARCA; RIBEIRAO NEVES-SEC PJ EXECUCAO PENAL 16.695,70 8.347,85 0,00 0,00 0,00 0,00 0,00 1.911,00 26.954,55 3.800,18 4.764,02 0,00 0,00 8.564,20 18.390,35 30/11/2022
852 355000 ELISANGELA DARLANTONI RIBEIRO OFICIAL DO MP ARAXÁ - COMARCA; ARAXA-PJ-05PJ 10.325,15 3.097,55 0,00 0,00 0,00 0,00 0,00 1.911,00 15.333,70 1.940,85 2.236,01 0,00 0,00 4.176,86 11.156,84 30/11/2022
853 604400 ELISANGELA DEMASI FERREIRA MOREIRA ANALISTA DO MP CABO VERDE - COMARCA; CABO VERDE-PJ-UNPJ 10.325,15 1.032,52 0,00 0,00 0,00 0,00 0,00 1.911,00 13.268,67 927,17 1.910,95 0,00 0,00 2.838,12 10.430,55 30/11/2022
854 323800 ELISANGELA GONCALVES DE JESUS OFICIAL DO MP BELO HORIZONTE - COMARCA; DIVISAO FROTA 11.008,33 3.302,50 0,00 0,00 0,00 0,00 0,00 1.911,00 16.221,83 2.082,95 2.441,17 0,00 0,00 4.524,12 11.697,71 30/11/2022
855 507400 ELISANGELA MIGUEL DA ROCHA SILVA ASSESSOR ADMINISTRATIVO II BELO HORIZONTE - COMARCA; EXTINTA-CGMP-DIV APOIO FISC ORIENT FUNCIONAL 0,00 0,00 6.694,66 0,00 0,00 0,00 670,00 1.911,00 9.275,66 828,38 1.058,30 0,00 0,00 1.886,68 7.388,98 30/11/2022
856 261400 ELISANGELA REZENDE MENDES OFICIAL DO MP POUSO ALEGRE - COMARCA; POUSO ALEGRE-PJ-05PJ 11.008,33 3.302,50 0,00 0,00 0,00 0,00 0,00 1.911,00 16.221,83 2.082,95 2.493,31 0,00 0,00 4.576,26 11.645,57 30/11/2022
857 534100 ELISANGELA ROSINE SILVA OFICIAL DO MP UBERABA - COMARCA; UBERABA-PJ-06PJ 6.694,66 669,47 0,00 0,00 0,00 0,00 0,00 1.911,00 9.275,13 971,47 888,62 0,00 0,00 1.860,09 7.415,04 30/11/2022
858 634300 ELIUDE GRACA DAMASIO ROSARIO FRANCELINO OFICIAL DO MP BELO HORIZONTE - COMARCA; BH-18PJ VIOLENCIA DOMESTICA-SECRETARIA 5.889,39 588,94 0,00 0,00 0,00 0,00 0,00 3.681,60 10.159,93 832,79 683,16 0,00 0,00 1.515,95 8.643,98 30/11/2022
859 461700 ELIZABETH ALEIXO DA PAZ ANALISTA DO MP JUIZ DE FORA - COMARCA; JUIZ DE FORA-PJ-18PJ 11.008,33 2.201,67 0,00 0,00 0,00 0,00 0,00 1.911,00 15.121,00 1.906,81 2.239,02 0,00 0,00 4.145,83 10.975,17 30/11/2022
860 227300 ELIZABETH COIMBRA FELIX OFICIAL DO MP BELO HORIZONTE - COMARCA; DIRETORIA DE PAGAMENTO DE PESSOAL-DPAG 16.169,47 6.467,79 0,00 0,00 0,00 0,00 0,00 1.911,00 24.548,26 3.415,18 4.312,44 0,00 0,00 7.727,62 16.820,64 30/11/2022
861 354800 ELIZABETH DOS REIS OFICIAL DO MP BELO HORIZONTE - COMARCA; DIVISAO DE MATERIAIS 11.008,33 3.302,50 0,00 0,00 0,00 0,00 0,00 1.911,00 16.221,83 2.082,95 2.441,17 0,00 0,00 4.524,12 11.697,71 30/11/2022
862 612000 ELIZABETH MARIA DE QUEIROZ TANIGUCHI OFICIAL DO MP BELO HORIZONTE - COMARCA; SUPERINTENDENCIA GESTÃO DE PESSOAS 6.081,20 608,12 0,00 0,00 0,00 0,00 0,00 1.911,00 8.600,32 865,50 732,19 0,00 0,00 1.597,69 7.002,63 30/11/2022
863 452800 ELIZANGELA MARIA DAVI OFICIAL DO MP ARCOS - COMARCA; ARCOS-PJ-01PJ 6.694,66 1.338,93 0,00 0,00 0,00 0,00 0,00 1.911,00 9.944,59 1.078,59 991,13 0,00 0,00 2.069,72 7.874,87 30/11/2022
864 496300 ELIZANGELA MARQUES PINTO COELHO OFICIAL DO MP BELO HORIZONTE - COMARCA; DIRETORIA DE PESSOAL ADMINISTRATIVO - DPAD 8.650,50 1.730,10 0,00 0,00 0,00 0,00 0,00 1.911,00 12.291,60 1.454,11 1.585,42 0,00 0,00 3.039,53 9.252,07 30/11/2022
865 422500 ELIZETE FORTES DA CUNHA ANALISTA DO MP RIBEIRÃO DAS NEVES - COMARCA; RIBEIRAO DAS NEVES-PJ-07PJ 15.659,55 3.131,91 0,00 0,00 0,00 0,00 0,00 1.911,00 20.702,46 2.799,85 3.476,20 0,00 0,00 6.276,05 14.426,41 30/11/2022
866 506100 ELLEM CRISTINA ROCHA FONSECA BOWEN ANALISTA DO MP GOVERNADOR VALADARES - COMARCA; COORD REG PJ DEF EDU DIR CRIANCA ADOL RIODOCE 11.008,33 2.201,67 0,00 0,00 0,00 0,00 0,00 1.911,00 15.121,00 1.906,81 2.239,02 0,00 0,00 4.145,83 10.975,17 30/11/2022
867 468200 ELLEN CRISTINA BERNARDES DARE ANALISTA DO MP TRÊS PONTAS - COMARCA; TRES PONTAS-PJ-02PJ 11.008,33 2.201,67 0,00 0,00 0,00 0,00 0,00 2.796,30 16.006,30 1.906,81 2.186,88 0,00 0,00 4.093,69 11.912,61 30/11/2022
868 418800 ELLEN CRISTINA DE QUEIROZ FERREIRA ANALISTA DO MP BELO HORIZONTE - COMARCA; CENTRAL DE APOIO TECNICO-SETOR CONTABIL 15.659,55 3.131,91 0,00 0,00 0,00 0,00 0,00 3.238,95 22.030,41 927,17 3.801,92 0,00 0,00 4.729,09 17.301,32 30/11/2022
869 328401 ELLEN CRISTINA FERREIRA MORAIS MONTEIRO ANALISTA DO MP CAMANDUCAIA - COMARCA; CAMANDUCAIA-PJ-UNPJ 15.659,55 3.131,91 0,00 0,00 0,00 0,00 0,00 1.911,00 20.702,46 2.799,85 3.424,06 0,00 0,00 6.223,91 14.478,55 30/11/2022
870 556100 ELLEN CRISTINE BIANCHIN DA SILVA OFICIAL DO MP SÃO GONÇALO DO SAPUCAÍ - COMARCA; SAO GONCALO DO SAPUCAI-PJ-02PJ 6.694,66 669,47 0,00 0,00 0,00 0,00 0,00 1.911,00 9.275,13 971,47 836,48 0,00 0,00 1.807,95 7.467,18 30/11/2022
871 714500 ELLEN PROENCA CARVALHO DE ARAUJO ASSESSOR PROMOTOR JUSTICA MARIANA - COMARCA; MARIANA-PJ-02PJ 0,00 0,00 7.857,77 0,00 0,00 0,00 0,00 1.911,00 9.768,77 828,38 1.430,30 0,00 0,00 2.258,68 7.510,09 30/11/2022
872 447100 ELLEN ROSANA DE MACEDO BORGES OFICIAL DO MP UBERLÂNDIA - COMARCA; UBERLANDIA-PJ-17PJ 9.684,23 1.936,85 0,00 0,00 0,00 0,00 0,00 1.911,00 13.532,08 1.652,59 1.871,98 0,00 0,00 3.524,57 10.007,51 30/11/2022
873 477700 ELMA JACOB OFICIAL DO MP BELO HORIZONTE - COMARCA; COORD DE GABINETE DO PGJ 9.378,86 7.503,09 0,00 0,00 0,00 2.494,33 0,00 1.911,00 21.287,28 2.494,33 3.773,18 0,00 0,00 6.267,51 15.019,77 30/11/2022
874 123300 ELMA PAULA DOS SANTOS COELHO OFICIAL DO MP BELO HORIZONTE - COMARCA; BH-19PJ SAUDE-SECRETARIA 130PJ 20.574,59 18.517,14 0,00 0,00 0,00 5.467,17 0,00 1.911,00 46.469,90 5.467,17 8.882,75 3.629,51 0,00 17.979,43 28.490,47 30/11/2022
875 728200 ELMITA XISTO DO VALLE ASSESSOR ADMINISTRATIVO I BELO HORIZONTE - COMARCA; DIRET DE FORMACAO, APERFEIC. E POS-GRADUACAO 0,00 0,00 4.345,58 0,00 0,00 0,00 0,00 1.911,00 6.256,58 631,17 518,68 0,00 0,00 1.149,85 5.106,73 30/11/2022
876 356500 ELOISA CARDOSO SILVA FRANCA OFICIAL DO MP PEÇANHA - COMARCA; PECANHA-PJ-SECRETARIA 6.694,66 2.008,40 0,00 0,00 0,00 0,00 0,00 1.911,00 10.614,06 1.185,70 1.145,78 0,00 0,00 2.331,48 8.282,58 30/11/2022
877 251901 ELOISA COSTA E SILVA ANALISTA DO MP BELO HORIZONTE - COMARCA; SUPERINTENDENCIA GESTÃO DE PESSOAS 11.008,33 3.302,50 0,00 0,00 0,00 0,00 0,00 1.911,00 16.221,83 2.082,95 2.441,17 0,00 0,00 4.524,12 11.697,71 30/11/2022
878 400400 ELOIZA MARIA FERRI PIRES DA SILVA OFICIAL DO MP BELO HORIZONTE - COMARCA; ASSESSORIA DE COMUNICACAO INTEGRADA 9.378,86 1.875,77 0,00 0,00 0,00 0,00 0,00 1.911,00 13.165,63 1.593,95 1.787,33 0,00 0,00 3.381,28 9.784,35 30/11/2022
879 258000 ELSO CECIANO PALMEIRA OFICIAL DO MP BELO HORIZONTE - COMARCA; DIRET DE PESSOAL DO MINISTERIO PUBLICO - DPMP 14.224,47 9.957,13 5.287,54 0,00 0,00 0,00 0,00 1.911,00 31.380,14 3.662,27 6.227,53 0,00 0,00 9.889,80 21.490,34 30/11/2022
880 206900 ELVIRA RITA DOS SANTOS ANALISTA DO MP BELO HORIZONTE - COMARCA; CENTRAL DE APOIO TECNICO-SETOR CONTABIL 20.574,59 8.229,84 0,00 0,00 0,00 4.401,92 316,85 5.367,53 38.890,73 4.401,92 7.051,86 0,00 0,00 11.453,78 27.436,95 30/11/2022
881 506800 ELVIS FERREIRA DA SILVA ANALISTA DO MP BELO HORIZONTE - COMARCA; DIRETORIA DE SISTEMAS DE INFORMACAO 11.008,33 2.201,67 0,00 0,00 0,00 0,00 0,00 2.796,30 16.006,30 1.906,81 2.082,60 0,00 0,00 3.989,41 12.016,89 30/11/2022
882 602400 ELZA MARIA MOREIRA MUNIZ ANALISTA DO MP RIO PARANAÍBA - COMARCA; RIO PARANAIBA-PJ-UNPJ 11.008,33 1.100,83 0,00 0,00 0,00 0,00 0,00 1.911,00 14.020,16 1.730,68 1.880,45 0,00 0,00 3.611,13 10.409,03 30/11/2022
883 368401 ELZIRA SIMOES DOS SANTOS ASSESSOR DE GABINETE I BELO HORIZONTE - COMARCA; ASSESSORIA DE COMUNICACAO INTEGRADA 0,00 4.850,84 16.169,47 0,00 0,00 0,00 0,00 1.911,00 22.931,31 828,38 5.050,00 0,00 0,00 5.878,38 17.052,93 30/11/2022
884 437400 EMANOELLE DA SILVA RODRIGUES OFICIAL DO MP UNAÍ - COMARCA; UNAI-PJ-03PJ 8.932,15 1.786,43 0,00 0,00 0,00 0,00 0,00 2.796,30 13.514,88 1.508,19 1.611,36 0,00 0,00 3.119,55 10.395,33 30/11/2022
885 458900 EMANUELLE CONRAD SILVA FREDERICO NAVES ANALISTA DO MP ALFENAS - COMARCA; ALFENAS-PJ-05PJ 14.224,47 2.844,89 0,00 0,00 0,00 0,00 0,00 2.796,30 19.865,66 2.524,31 3.078,39 0,00 0,00 5.602,70 14.262,96 30/11/2022
886 284100 EMERSON MAGNO ALMEIDA PEDROSA DA FONSECA ANALISTA DO MP BELO HORIZONTE - COMARCA; CENTRAL DE APOIO TECNICO-SETOR CONTABIL 20.574,59 6.172,38 0,00 0,00 0,00 0,00 0,00 1.911,00 28.657,97 4.072,73 3.938,13 0,00 0,00 8.010,86 20.647,11 30/11/2022
887 179900 EMERSON MORAIS DIAS OFICIAL DO MP BELO HORIZONTE - COMARCA; SUPERINTENDÊNCIA DE ENGENHARIA E ARQUITETURA 19.037,29 7.614,92 0,00 0,00 0,00 0,00 0,00 1.911,00 28.563,21 4.057,57 5.344,17 0,00 0,00 9.401,74 19.161,47 30/11/2022
888 488700 EMERSON SIQUEIRA DE SOUSA TEIXEIRA ANALISTA DO MP ITANHOMI - COMARCA; ITANHOMI-PJ-UNPJ 11.008,33 2.201,67 0,00 0,00 0,00 0,00 0,00 1.911,00 15.121,00 1.906,81 2.082,60 0,00 0,00 3.989,41 11.131,59 30/11/2022
889 194200 EMILIA ALVES FERREIRA RAMOS OFICIAL DO MP UBERLÂNDIA - COMARCA; UBERLANDIA-PJ-SEC CIVEIS CRIMINAIS 12.118,97 4.847,59 0,00 0,00 0,00 0,00 0,00 1.911,00 18.877,56 2.507,86 3.106,78 0,00 0,00 5.614,64 13.262,92 30/11/2022
890 679500 EMILY DIAS LEMOS E SILVA ASSESSOR PROCURADOR JUSTICA BELO HORIZONTE - COMARCA; GABINETE DE PROCURADOR DE JUSTIÇA - SALA 515 0,00 0,00 7.857,77 0,00 0,00 0,00 0,00 2.796,30 10.654,07 828,38 1.326,02 0,00 0,00 2.154,40 8.499,67 30/11/2022
891 620700 EMILY FONTANA DE SIQUEIRA ANALISTA DO MP BELO HORIZONTE - COMARCA; BH-18PJ VIOLENCIA DOMESTICA-SECRETARIA 10.325,15 1.032,52 0,00 0,00 0,00 0,00 0,00 2.796,30 14.153,97 1.610,44 1.758,99 0,00 0,00 3.369,43 10.784,54 30/11/2022
892 297000 ENEIDA SOARES COSTA MELO ANALISTA DO MP PIUMHI - COMARCA; PIUMHI-PJ-01PJ 20.574,59 6.172,38 0,00 0,00 0,00 0,00 0,00 1.911,00 28.657,97 4.072,73 5.366,06 0,00 0,00 9.438,79 19.219,18 30/11/2022
893 276000 ENEZIO RODRIGUES DE SOUZA FILHO OFICIAL DO MP UBERLÂNDIA - COMARCA; UBERLANDIA-PJ-10PJ 11.008,33 3.302,50 0,00 0,00 0,00 0,00 0,00 1.911,00 16.221,83 2.082,95 2.493,31 0,00 0,00 4.576,26 11.645,57 30/11/2022
894 387700 ENI MARIA DOS REIS OFICIAL DO MP POUSO ALEGRE - COMARCA; POUSO ALEGRE-PJ-07PJ 9.999,62 1.999,92 0,00 0,00 0,00 0,00 0,00 1.911,00 13.910,54 1.713,14 1.959,40 0,00 0,00 3.672,54 10.238,00 30/11/2022
895 605100 ENIA MAIA ASSESSOR ADMINISTRATIVO IV BELO HORIZONTE - COMARCA; DIRETORIA DE ORCAMENTO-DIOR/SPC 12.920,95 1.292,10 0,00 0,00 0,00 0,00 0,00 1.911,00 16.124,05 971,47 2.772,07 0,00 0,00 3.743,54 12.380,51 30/11/2022
896 612200 ENILDO GOMES MEIRA FILHO ANALISTA DO MP BELO HORIZONTE - COMARCA; BH-23PJ INFRACIONAL-ASS JURIDICA 10.325,15 1.032,52 0,00 0,00 0,00 0,00 2.920,50 2.796,30 17.074,47 2.077,72 2.329,35 0,00 0,00 4.407,07 12.667,40 30/11/2022
897 553700 ENIVALDO NOVATO PUBLIO ANALISTA DO MP DIVINÓPOLIS - COMARCA; DIVINOPOLIS-PJ-09PJ 11.008,33 1.100,83 0,00 0,00 0,00 0,00 0,00 1.911,00 14.020,16 1.730,68 1.932,58 0,00 0,00 3.663,26 10.356,90 30/11/2022
898 680600 ENZO JOSE FERES SOUZA JABER ASSESSOR PROMOTOR JUSTICA NOVO CRUZEIRO - COMARCA; NOVO CRUZEIRO-PJ-SECRETARIA 0,00 0,00 7.857,77 0,00 0,00 0,00 0,00 1.911,00 9.768,77 828,38 1.430,30 0,00 0,00 2.258,68 7.510,09 30/11/2022
899 417300 ERIC BARATTI DA SILVA ANALISTA DO MP FRUTAL - COMARCA; FRUTAL-PJ-05PJ 11.736,91 2.347,38 0,00 0,00 0,00 0,00 0,00 1.911,00 15.995,29 2.046,70 2.440,98 0,00 0,00 4.487,68 11.507,61 30/11/2022
900 637600 ERIC DA ROCHA CHEHUEN ANALISTA DO MP LIMA DUARTE - COMARCA; LIMA DUARTE-PJ-UNPJ 9.999,62 999,96 0,00 0,00 0,00 0,00 0,00 1.911,00 12.910,58 927,17 1.900,55 0,00 0,00 2.827,72 10.082,86 30/11/2022
901 398900 ERIC TEIXEIRA SILVA OFICIAL DO MP UBERLÂNDIA - COMARCA; UBERLANDIA-PJ-SEC CIVEIS CRIMINAIS 10.325,15 2.065,03 0,00 0,00 0,00 0,00 0,00 1.911,00 14.301,18 1.775,64 2.049,64 0,00 0,00 3.825,28 10.475,90 30/11/2022
902 703600 ERICA CORDEIRO SANTOS ASSESSOR PROMOTOR JUSTICA MINAS NOVAS - COMARCA; MINAS NOVAS-PJ-UNPJ 0,00 0,00 7.857,77 0,00 0,00 0,00 0,00 1.911,00 9.768,77 828,38 1.430,30 0,00 0,00 2.258,68 7.510,09 30/11/2022
903 274200 ERICA DE SOUZA ANDRADE OFICIAL DO MP CURVELO - COMARCA; CURVELO-PJ-03PJ 12.118,97 3.635,69 0,00 0,00 0,00 0,00 0,00 1.911,00 17.665,66 2.313,96 2.774,70 0,00 0,00 5.088,66 12.577,00 30/11/2022
904 225700 ERICA GOMES DO COUTO OFICIAL DO MP BELO HORIZONTE - COMARCA; BH-21PJ TUTELA FUNDACOES-SECRETARIA 16.169,47 6.467,79 0,00 0,00 0,00 0,00 1.616,95 2.796,30 27.050,51 3.673,89 4.790,23 0,00 0,00 8.464,12 18.586,39 30/11/2022
905 632600 ERICA LEONOR MARTINS OFICIAL DO MP RESENDE COSTA - COMARCA; RESENDE COSTA-PJ-UNPJ 6.483,63 648,36 0,00 0,00 0,00 0,00 0,00 1.911,00 9.042,99 934,33 835,00 0,00 0,00 1.769,33 7.273,66 30/11/2022
906 524800 ERICA MACHADO DA COSTA E SOUZA ANALISTA DO MP BELO HORIZONTE - COMARCA; ASSESS TECNICO-JUR JUNTO AS PROC. DE JUST 12.118,97 2.423,79 0,00 0,00 0,00 0,00 2.232,10 1.911,00 18.685,86 2.120,06 2.902,21 0,00 0,00 5.022,27 13.663,59 30/11/2022
907 249500 ERICA RODRIGUES ANDRADE OFICIAL DO MP SÃO FRANCISCO - COMARCA; SAO FRANCISCO-PJ-02PJ 11.008,33 3.302,50 0,00 0,00 0,00 0,00 0,00 1.911,00 16.221,83 2.082,95 2.441,17 0,00 0,00 4.524,12 11.697,71 30/11/2022
908 260800 ERICA VIANA GIARDINI DE OLIVEIRA OFICIAL DO MP BELO HORIZONTE - COMARCA; DIRETORIA GESTAO COMPRAS LICITACOES 11.366,79 3.410,04 0,00 0,00 0,00 0,00 0,00 1.911,00 16.687,83 2.157,51 2.600,95 0,00 0,00 4.758,46 11.929,37 30/11/2022
909 299800 ERICH DOUGLAS RIBEIRO GARCIA ANALISTA DO MP BELO HORIZONTE - COMARCA; CENTRAL DE APOIO TECNICO-SETOR CONTABIL 19.791,01 5.937,30 0,00 0,00 0,00 0,00 0,00 1.911,00 27.639,31 3.909,74 5.130,75 0,00 0,00 9.040,49 18.598,82 30/11/2022
910 365000 ERICK EDUARDO JOSE DA SILVA OFICIAL DO MP JUIZ DE FORA - COMARCA; JUIZ DE FORA-PJ-12PJ 6.694,66 2.008,40 0,00 0,00 0,00 0,00 0,00 1.911,00 10.614,06 1.185,70 1.197,91 0,00 0,00 2.383,61 8.230,45 30/11/2022
911 688900 ERICK FERDINANN SANTOS GOMES ASSESSOR PROMOTOR JUSTICA OURO PRETO - COMARCA; OURO PRETO-PJ-04PJ 0,00 0,00 7.857,77 0,00 0,00 0,00 0,00 1.911,00 9.768,77 828,38 1.430,30 0,00 0,00 2.258,68 7.510,09 30/11/2022
912 227400 ERIKA DE LAET GOULART BOECHAT OFICIAL DO MP BELO HORIZONTE - COMARCA; BH-17PJ PATRIMONIO PUBLICO-SECRETARIA 16.169,47 4.850,84 0,00 0,00 0,00 0,00 0,00 1.911,00 22.931,31 3.156,46 3.991,06 0,00 0,00 7.147,52 15.783,79 30/11/2022
913 681301 ERIKA FERNANDA ELISEU FERREIRA ASSESSOR PROCURADOR JUSTICA BELO HORIZONTE - COMARCA; GABINETE DE PROCURADOR DE JUSTIÇA - SALA 411 0,00 0,00 7.857,77 0,00 0,00 0,00 940,00 1.911,00 10.708,77 828,38 1.430,30 0,00 0,00 2.258,68 8.450,09 30/11/2022
914 285100 ERIKA FERREIRA DA SILVA OFICIAL DO MP JUIZ DE FORA - COMARCA; JUIZ DE FORA-PJ-11PJ 11.008,33 3.302,50 0,00 0,00 0,00 0,00 0,00 1.911,00 16.221,83 2.082,95 2.493,31 0,00 0,00 4.576,26 11.645,57 30/11/2022
915 420100 ERIKA JEANINE VERSIANI DE CASTRO ANALISTA DO MP BELO HORIZONTE - COMARCA; CAO-EDUCACAO 16.169,47 3.233,89 0,00 0,00 0,00 0,00 0,00 1.911,00 21.314,36 2.897,75 3.669,68 0,00 0,00 6.567,43 14.746,93 30/11/2022
916 677100 ERIKA LAYS CARDOSO FERNANDES ASSESSOR PROMOTOR JUSTICA GRAO MOGOL - COMARCA; GRAO MOGOL-PJ-UNPJ 0,00 0,00 7.857,77 0,00 0,00 0,00 0,00 1.911,00 9.768,77 828,38 1.430,30 0,00 0,00 2.258,68 7.510,09 30/11/2022
917 606900 ERIKA MARIA BARBOSA ANALISTA DO MP BELO HORIZONTE - COMARCA; CAO-SAUDE 9.378,86 937,89 0,00 0,00 0,00 0,00 0,00 1.911,00 12.227,75 1.443,89 1.518,54 0,00 0,00 2.962,43 9.265,32 30/11/2022
918 491000 ERIKA ROCHA PEREIRA E SILVA COORDENADOR II BELO HORIZONTE - COMARCA; DIR GOVERNANCA TECNOLOGIA INFORMACAO 18.312,36 3.662,47 0,00 0,00 0,00 0,00 0,00 1.911,00 23.885,83 2.046,70 4.610,88 0,00 0,00 6.657,58 17.228,25 30/11/2022
919 283201 ERIKA STEHLING COORDENADOR I BELO HORIZONTE - COMARCA; CENTRAL DE APOIO TECNICO-SETOR DE ENGENHARIA 14.687,60 2.937,52 0,00 0,00 0,00 0,00 0,00 1.911,00 19.536,12 1.906,81 3.453,17 0,00 0,00 5.359,98 14.176,14 30/11/2022
920 254000 ERLANDIA DA SILVA MENDES OFICIAL DO MP IPATINGA - COMARCA; IPATINGA-PJ-03PJ 14.224,47 5.689,79 0,00 0,00 0,00 0,00 0,00 1.911,00 21.825,26 2.979,50 3.631,29 0,00 0,00 6.610,79 15.214,47 30/11/2022
921 348500 ERNILANDIA DE OLIVEIRA DIAS OFICIAL DO MP MONTES CLAROS - COMARCA; MONTES CLAROS-PJ-16PJ 9.999,62 2.999,89 0,00 0,00 0,00 0,00 0,00 1.911,00 14.910,51 1.873,14 2.190,39 0,00 0,00 4.063,53 10.846,98 30/11/2022
922 199300 ERTON PORTINARI DE ANDRADE OFICIAL DO MP SETE LAGOAS - COMARCA; SETE LAGOAS-PJ-05PJ 16.695,70 6.678,28 0,00 0,00 0,00 0,00 0,00 1.911,00 25.284,98 3.533,05 4.482,62 0,00 0,00 8.015,67 17.269,31 30/11/2022
923 618800 ESLY DE CARLA AYALLA BARBOSA MENDES OFICIAL DO MP NOVA LIMA - COMARCA; NOVA LIMA-PJ-SECRETARIA 6.081,20 608,12 0,00 0,00 0,00 0,00 0,00 1.911,00 8.600,32 865,50 732,19 0,00 0,00 1.597,69 7.002,63 30/11/2022
924 537000 ESTANISLAU CORREIA ALMEIDA JUNIOR OFICIAL DO MP UBERLÂNDIA - COMARCA; UBERLANDIA-PJ-25PJ 6.694,66 669,47 0,00 0,00 2.454,71 0,00 0,00 1.911,00 11.729,84 971,47 1.563,67 0,00 0,00 2.535,14 9.194,70 30/11/2022
925 692100 ESTEFANIA FARIA FERREIRA ASSESSOR PROCURADOR JUSTICA BELO HORIZONTE - COMARCA; GABINETE DE PROCURADOR DE JUSTIÇA - SALA 814 0,00 0,00 7.857,77 0,00 0,00 0,00 0,00 1.911,00 9.768,77 828,38 1.430,30 0,00 0,00 2.258,68 7.510,09 30/11/2022
926 326900 ESTER ALICE PIMENTA OFICIAL DO MP BELO HORIZONTE - COMARCA; COORD DE INCLUSAO E MOBILIZACAO SOCIAIS 11.008,33 3.302,50 0,00 0,00 0,00 0,00 0,00 1.911,00 16.221,83 2.082,95 2.493,31 0,00 0,00 4.576,26 11.645,57 30/11/2022
927 503700 ESTHER GONCALVES FONSECA ANALISTA DO MP BELO HORIZONTE - COMARCA; DIR CRIACAO E MIDIAS 11.008,33 2.201,67 0,00 0,00 0,00 0,00 0,00 1.911,00 15.121,00 1.906,81 2.239,02 0,00 0,00 4.145,83 10.975,17 30/11/2022
928 475600 ETIENE DE FATIMA OLIVEIRA PEREIRA ANALISTA DO MP PATROCÍNIO - COMARCA; PATROCINIO-PJ-04PJ 11.008,33 2.201,67 0,00 0,00 0,00 0,00 0,00 1.911,00 15.121,00 927,17 2.311,54 0,00 0,00 3.238,71 11.882,29 30/11/2022
929 428800 EUGENIA RODRIGUES TRAJANO BORGES ANALISTA DO MP UBERABA - COMARCA; UBERABA-PJ-10PJ 15.659,55 3.131,91 0,00 0,00 0,00 0,00 482,31 8.057,91 27.331,68 2.799,85 3.528,33 0,00 0,00 6.328,18 21.003,50 30/11/2022
930 272700 EUGENIO DE BARCELOS FILHO OFICIAL DO MP FRUTAL - COMARCA; FRUTAL-PJ-03PJ 9.999,62 2.999,89 0,00 0,00 0,00 0,00 0,00 1.911,00 14.910,51 1.873,14 2.190,39 0,00 0,00 4.063,53 10.846,98 30/11/2022
931 254100 EULALIA ALVES MIRANDA LUCAS OFICIAL DO MP ALMENARA - COMARCA; ALMENARA-PJ-02PJ 14.224,47 5.689,79 0,00 0,00 0,00 0,00 0,00 1.911,00 21.825,26 2.979,50 3.683,43 0,00 0,00 6.662,93 15.162,33 30/11/2022
932 641200 EUNICE ELVIRA DA SILVA MATOS OFICIAL DO MP BELO HORIZONTE - COMARCA; BH-14PJ DEFESA CONSUMIDOR-SECRETARIA 5.889,39 588,94 0,00 0,00 0,00 0,00 0,00 1.911,00 8.389,33 832,79 683,16 0,00 0,00 1.515,95 6.873,38 30/11/2022
933 557900 EURIPEDES JOSUE PERES OFICIAL DO MP IBIÁ - COMARCA; IBIA-PJ-UNPJ 6.694,66 669,47 0,00 0,00 0,00 0,00 0,00 1.911,00 9.275,13 971,47 888,62 0,00 0,00 1.860,09 7.415,04 30/11/2022
934 225800 EURO CESAR VIEIRA BARBOSA ANALISTA DO MP BELO HORIZONTE - COMARCA; BH-17PJ PATRIMONIO PUBLICO-SECRETARIA 20.574,59 8.229,84 0,00 0,00 0,00 0,00 0,00 1.911,00 30.715,43 4.401,92 5.737,06 0,00 0,00 10.138,98 20.576,45 30/11/2022
935 199400 EUSTAQUIO ADAILTON LIMA E SILVA OFICIAL DO MP MANGA - COMARCA; MANGA-PJ-01PJ 18.312,36 12.818,66 0,00 0,00 0,00 0,00 0,00 1.911,00 33.042,02 4.774,18 6.222,36 0,00 0,00 10.996,54 22.045,48 30/11/2022
936 548000 EVA VILMA LEAO REIS JULIO OFICIAL DO MP BELO HORIZONTE - COMARCA; BH-07PJ 01 TRIBUNAL JURI-SECRETARIA 6.694,66 2.677,86 0,00 0,00 0,00 0,00 0,00 1.911,00 11.283,52 1.292,82 1.352,56 0,00 0,00 2.645,38 8.638,14 30/11/2022
937 517000 EVALDO SENA COSTA FILHO ANALISTA DO MP CONTAGEM - COMARCA; CONTAGEM-PJ-20PJ 11.008,33 4.403,33 0,00 0,00 0,00 0,00 0,00 1.911,00 17.322,66 2.259,08 2.643,33 0,00 0,00 4.902,41 12.420,25 30/11/2022
938 217500 EVELANGE LEAO RABELO ASSESSOR ADMINISTRATIVO II BELO HORIZONTE - COMARCA; CAO-PESSOAS IDOSAS E PESSOAS COM DEFICIENCIA 0,00 2.677,86 6.694,66 0,00 0,00 0,00 0,00 1.911,00 11.283,52 828,38 1.846,85 0,00 0,00 2.675,23 8.608,29 30/11/2022
939 679600 EVERTON BARBOSA DA SILVA ASSESSOR PROCURADOR JUSTICA BELO HORIZONTE - COMARCA; GABINETE DE PROCURADOR DE JUSTIÇA - SALA 510 0,00 0,00 7.857,77 0,00 0,00 0,00 0,00 1.911,00 9.768,77 828,38 1.430,30 0,00 0,00 2.258,68 7.510,09 30/11/2022
940 540400 EVIE SARAMELLA DE RESENDE OFICIAL DO MP BARBACENA - COMARCA; BARBACENA-PJ-05PJ 6.694,66 669,47 0,00 0,00 0,00 0,00 0,00 1.911,00 9.275,13 971,47 888,62 0,00 0,00 1.860,09 7.415,04 30/11/2022
941 469000 EWERTON CARDOSO DE SA RODRIGUES ANALISTA DO MP CAMPO BELO - COMARCA; CAMPO BELO-PJ-02PJ 11.008,33 2.201,67 0,00 0,00 0,00 0,00 0,00 1.911,00 15.121,00 1.906,81 2.134,74 0,00 0,00 4.041,55 11.079,45 30/11/2022
942 368900 FABIANA BARBOSA SIQUEIRA OFICIAL DO MP BELO HORIZONTE - COMARCA; CAO-ORDEM ECONOMICA E TRIBUTARIA-SECRETARIA 11.736,91 3.521,07 0,00 0,00 0,00 0,00 0,00 1.911,00 17.168,98 2.234,49 2.659,96 0,00 0,00 4.894,45 12.274,53 30/11/2022
943 273800 FABIANA CARNEIRO AMORIM OFICIAL DO MP BELO HORIZONTE - COMARCA; BH-23PJ CIVEL-COORD ADM CIVEL 13.341,69 4.002,51 3.876,29 0,00 0,00 0,00 0,00 1.911,00 23.131,49 2.568,29 4.207,86 0,00 0,00 6.776,15 16.355,34 30/11/2022
944 519300 FABIANA DE OLIVEIRA LOUREIRO ANALISTA DO MP BELO HORIZONTE - COMARCA; BH-09PJ AUDITORIA MILITAR-SECRETARIA 11.008,33 2.201,67 0,00 0,00 0,00 0,00 0,00 1.911,00 15.121,00 1.906,81 2.239,02 0,00 0,00 4.145,83 10.975,17 30/11/2022
945 363400 FABIANA DOURADO DUPIN VIEGAS ANALISTA DO MP BELO HORIZONTE - COMARCA; GABINETE DE PROCURADOR DE JUSTIÇA - SALA 705 18.312,36 5.493,71 0,00 0,00 0,00 0,00 0,00 1.911,00 25.717,07 3.602,18 4.634,57 0,00 0,00 8.236,75 17.480,32 30/11/2022
946 410800 FABIANA DUARTE QUITITE ANALISTA DO MP BELO HORIZONTE - COMARCA; BH-15PJ M AMB PAT HIST CULT-GAB 116PJ 16.169,47 3.233,89 0,00 0,00 0,00 0,00 0,00 1.911,00 21.314,36 2.897,75 3.669,68 0,00 0,00 6.567,43 14.746,93 30/11/2022
947 419500 FABIANA EULALIA DOS SANTOS ANALISTA DO MP SÃO JOÃO DEL REI - COMARCA; SAO JOAO DEL REI-PJ-01PJ 15.659,55 3.131,91 0,00 0,00 0,00 0,00 0,00 1.911,00 20.702,46 2.799,85 3.528,33 0,00 0,00 6.328,18 14.374,28 30/11/2022
948 725200 FABIANA LOPES DE JESUS ASSESSOR PROMOTOR JUSTICA CONTAGEM - COMARCA; CONTAGEM-PJ-01PJ 0,00 0,00 7.857,77 0,00 0,00 0,00 0,00 1.911,00 9.768,77 828,38 1.430,30 0,00 0,00 2.258,68 7.510,09 30/11/2022
949 700300 FABIANA MARCIA DE SOUZA ASSESSOR ADMINISTRATIVO II BELO HORIZONTE - COMARCA; DIRET DE CONTROLE E DE MANUTENCAO DE IMOVEIS 0,00 0,00 6.694,66 0,00 0,00 0,00 0,00 1.911,00 8.605,66 828,38 1.110,44 0,00 0,00 1.938,82 6.666,84 30/11/2022
950 331500 FABIANA PACHECO OFICIAL DO MP GUAXUPÉ - COMARCA; GUAXUPE-PJ-01PJ 11.008,33 3.302,50 0,00 0,00 0,00 0,00 0,00 2.796,30 17.107,13 2.082,95 2.389,03 0,00 0,00 4.471,98 12.635,15 30/11/2022
951 510700 FABIANA PEREIRA SANTOS BORGES ANALISTA DO MP BELO HORIZONTE - COMARCA; DIRETORIA DE SISTEMAS DE INFORMACAO 11.008,33 2.201,67 4.939,72 0,00 0,00 0,00 0,00 1.911,00 20.060,72 1.906,81 3.545,30 0,00 0,00 5.452,11 14.608,61 30/11/2022
952 181700 FABIANA SOUZA FERREIRA OFICIAL DO MP BELO HORIZONTE - COMARCA; BH-19PJ SAUDE-SECRETARIA 150PJ 6.694,66 2.677,86 0,00 0,00 0,00 0,00 0,00 1.911,00 11.283,52 1.292,82 1.248,28 0,00 0,00 2.541,10 8.742,42 30/11/2022
953 272900 FABIANA STOCKLER LEITE OFICIAL DO MP LAJINHA - COMARCA; LAJINHA-PJ-SECRETARIA 11.008,33 5.504,17 0,00 0,00 0,00 0,00 0,00 1.911,00 18.423,50 2.435,21 2.949,76 0,00 0,00 5.384,97 13.038,53 30/11/2022
954 225500 FABIANE DE FATIMA PORTELLA ANALISTA DO MP BELO HORIZONTE - COMARCA; BH-18PJ DIREITOS HUMANOS-SECRETARIA 20.574,59 8.229,84 0,00 0,00 0,00 0,00 2.057,46 1.911,00 32.772,89 4.731,12 6.316,60 0,00 0,00 11.047,72 21.725,17 30/11/2022
955 433800 FABIANE DINIZ MATTOS ANALISTA DO MP BELO HORIZONTE - COMARCA; BH-23PJ INFRACIONAL-ASS JURIDICA 15.659,55 3.131,91 0,00 0,00 0,00 0,00 3.865,68 3.681,60 26.338,74 3.418,36 4.421,31 0,00 0,00 7.839,67 18.499,07 30/11/2022
956 455000 FABIANO CARVALHO DA SILVA ANALISTA DO MP LAVRAS - COMARCA; LAVRAS-PJ-05PJ 11.008,33 2.201,67 0,00 0,00 0,00 0,00 0,00 1.911,00 15.121,00 1.906,81 2.239,02 0,00 0,00 4.145,83 10.975,17 30/11/2022
957 498800 FABIANO FURTADO PESSOA COELHO ANALISTA DO MP BELO HORIZONTE - COMARCA; DIRETORIA DE REDES E BANCOS DE DADOS 11.008,33 2.201,67 3.585,64 0,00 0,00 0,00 0,00 1.911,00 18.706,64 1.906,81 3.120,79 0,00 0,00 5.027,60 13.679,04 30/11/2022
958 663000 FABIANO MARQUES CORREA ASSESSOR ADMINISTRATIVO II BELO HORIZONTE - COMARCA; DIRETORIA DE SUPORTE E MANUTENCAO 0,00 0,00 6.694,66 0,00 0,00 0,00 0,00 1.911,00 8.605,66 828,38 1.110,44 0,00 0,00 1.938,82 6.666,84 30/11/2022
959 394600 FABIANO PALHARES SILVA ANALISTA DO MP BELO HORIZONTE - COMARCA; CENTRAL DE APOIO TECN-SETOR DE MEIO AMBIENTE 16.169,47 3.233,89 4.406,28 0,00 0,00 0,00 0,00 1.911,00 25.720,64 2.897,75 4.829,27 0,00 0,00 7.727,02 17.993,62 30/11/2022
960 676600 FABIANO RESENDE VELOSO ASSESSOR PROCURADOR JUSTICA BELO HORIZONTE - COMARCA; GABINETE DE PROCURADOR DE JUSTIÇA - SALA 1002 0,00 0,00 7.857,77 0,00 0,00 0,00 0,00 1.911,00 9.768,77 828,38 1.430,30 0,00 0,00 2.258,68 7.510,09 30/11/2022
961 444400 FABIANO SARAIVA MEDEIROS ANALISTA DO MP BETIM - COMARCA; BETIM-PJ-11PJ 14.224,47 2.844,89 0,00 0,00 0,00 0,00 0,00 1.911,00 18.980,36 2.524,31 3.026,25 0,00 0,00 5.550,56 13.429,80 30/11/2022
962 408700 FABIANO SOARES PORTILHO ANALISTA DO MP JUIZ DE FORA - COMARCA; GAECO REGIONAL DA ZONA DA MATA-JUIZ DE FORA 15.659,55 3.131,91 0,00 0,00 0,00 0,00 0,00 1.911,00 20.702,46 2.799,85 3.528,33 0,00 0,00 6.328,18 14.374,28 30/11/2022
963 442600 FABIO CARVALHO VIEIRA ANALISTA DO MP MONTES CLAROS - COMARCA; MONTES CLAROS-PJ-06PJ 11.008,33 2.201,67 0,00 0,00 0,00 0,00 0,00 1.911,00 15.121,00 1.906,81 2.239,02 0,00 0,00 4.145,83 10.975,17 30/11/2022
964 716600 FABIO DAMASCENA MONTEIRO DE CARVALHO ASSESSOR PROMOTOR JUSTICA JACINTO - COMARCA; JACINTO-PJ-UNPJ 0,00 0,00 7.857,77 0,00 0,00 0,00 0,00 1.911,00 9.768,77 828,38 1.430,30 0,00 0,00 2.258,68 7.510,09 30/11/2022
965 702700 FABIO JUNIOR COSTA BARREIROS ASSESSOR ADMINISTRATIVO I BELO HORIZONTE - COMARCA; DIVISAO DE MANUTENCAO PREDIAL 0,00 0,00 4.345,58 0,00 0,00 0,00 0,00 2.796,30 7.141,88 631,17 248,80 0,00 0,00 879,97 6.261,91 30/11/2022
966 240101 FABIO JUNQUEIRA DE ASSIS FONSECA OFICIAL DO MP BELO HORIZONTE - COMARCA; BH-17PJ PATRIMONIO PUBLICO-SECRETARIA 9.223,00 2.766,90 0,00 0,00 0,00 0,00 0,00 1.911,00 13.900,90 1.711,60 1.957,17 0,00 0,00 3.668,77 10.232,13 30/11/2022
967 271500 FABIO LUIZ VIEIRA OFICIAL DO MP SANTA VITÓRIA - COMARCA; SANTA VITORIA-PJ-UNPJ 11.008,33 3.302,50 0,00 0,00 0,00 0,00 0,00 1.966,05 16.276,88 2.082,95 2.441,17 0,00 0,00 4.524,12 11.752,76 30/11/2022
968 213100 FABIO PRATES GONCALVES ASSESSOR ADMINISTRATIVO IV BELO HORIZONTE - COMARCA; DIR RELACOES INSTITUCIONAIS 0,00 5.168,38 12.920,95 0,00 0,00 0,00 0,00 1.911,00 20.000,33 828,38 4.087,56 0,00 0,00 4.915,94 15.084,39 30/11/2022
969 436700 FABIO SANTIAGO DE CARVALHO OFICIAL DO MP POÇO FUNDO - COMARCA; POCO FUNDO-PJ-UNPJ 9.684,23 1.936,85 0,00 0,00 0,00 0,00 0,00 1.911,00 13.532,08 1.652,59 1.871,98 0,00 0,00 3.524,57 10.007,51 30/11/2022
970 208400 FABIOLA DE SOUSA CARDOSO ANALISTA DO MP BELO HORIZONTE - COMARCA; CGMP-ASSESSORIA JURIDICA 20.574,59 8.229,84 5.493,71 0,00 0,00 0,00 0,00 1.911,00 36.209,14 4.401,92 7.352,10 0,00 0,00 11.754,02 24.455,12 30/11/2022
971 392200 FABIOLA LEROY COSTA ANALISTA DO MP ESMERALDAS - COMARCA; ESMERALDAS-PJ-01PJ 11.008,33 2.201,67 0,00 0,00 0,00 0,00 0,00 3.681,60 16.891,60 1.906,81 2.239,02 0,00 0,00 4.145,83 12.745,77 30/11/2022
972 409000 FABIOLA MONTEIRO DE CARVALHO CASTRO ANALISTA DO MP BOM SUCESSO - COMARCA; BOM SUCESSO-PJ-UNPJ 13.776,02 2.755,20 0,00 0,00 0,00 0,00 0,00 1.911,00 18.442,22 2.438,21 3.006,22 0,00 0,00 5.444,43 12.997,79 30/11/2022
973 525800 FABRICIA ALVES DANTAS OFICIAL DO MP MONTES CLAROS - COMARCA; MONTES CLAROS-PJ-01PJ 8.377,76 1.675,55 0,00 0,00 0,00 0,00 0,00 1.911,00 11.964,31 1.401,74 1.457,68 0,00 0,00 2.859,42 9.104,89 30/11/2022
974 263400 FABRICIA PINTO TEIXEIRA SANTIAGO OFICIAL DO MP BELO HORIZONTE - COMARCA; CAO-FUNDACOES-SECRETARIA 14.224,47 4.267,34 0,00 0,00 0,00 0,00 0,00 1.911,00 20.402,81 2.751,90 3.354,84 0,00 0,00 6.106,74 14.296,07 30/11/2022
975 420800 FABRICIO BERNARDES DE OLIVEIRA OFICIAL DO MP ITURAMA - COMARCA; ITURAMA-PJ-02PJ 9.684,23 1.936,85 0,00 0,00 0,00 0,00 0,00 2.796,30 14.417,38 1.652,59 1.819,84 0,00 0,00 3.472,43 10.944,95 30/11/2022
976 474000 FABRICIO DE FREITAS SALES ANALISTA DO MP MONTES CLAROS - COMARCA; COORD REG PP NORTE MINAS GERAIS MONTES CLAROS 11.008,33 2.201,67 0,00 0,00 0,00 0,00 0,00 1.911,00 15.121,00 1.906,81 2.239,02 0,00 0,00 4.145,83 10.975,17 30/11/2022
977 510100 FABRICIO FURTADO ASSIS DO CARMO ANALISTA DO MP BELO HORIZONTE - COMARCA; SERVICO MEDICO-DEPTO PERIC MEDICA SAUDE OCUP 11.008,33 2.201,67 0,00 0,00 0,00 0,00 1.053,33 3.681,60 17.944,93 1.906,81 2.528,68 0,00 0,00 4.435,49 13.509,44 30/11/2022
978 519600 FABRICIO GONTIJO SALVATI ANALISTA DO MP JUIZ DE FORA - COMARCA; JUIZ DE FORA-CAO ESPECIALIZADO-SECRETARIA 11.008,33 2.201,67 0,00 0,00 0,00 0,00 0,00 1.911,00 15.121,00 1.906,81 2.239,02 0,00 0,00 4.145,83 10.975,17 30/11/2022
979 637400 FABRICIO HENRIQUE DA SILVA PASSOS ANALISTA DO MP BELO HORIZONTE - COMARCA; DIR CRIACAO E MIDIAS 11.008,33 1.100,83 3.585,64 0,00 0,00 0,00 0,00 1.911,00 17.605,80 1.730,68 2.970,77 0,00 0,00 4.701,45 12.904,35 30/11/2022
980 428200 FABRICIO ORZIL VIANA ANALISTA DO MP SANTA LUZIA - COMARCA; SANTA LUZIA-PJ-04PJ 11.008,33 2.201,67 0,00 0,00 0,00 0,00 0,00 1.911,00 15.121,00 1.906,81 2.239,02 0,00 0,00 4.145,83 10.975,17 30/11/2022
981 455600 FABRICIO PAIVA DA ROCHA ANALISTA DO MP SÃO JOÃO DEL REI - COMARCA; SAO JOAO DEL REI-PJ-06PJ 11.008,33 2.201,67 0,00 0,00 0,00 0,00 0,00 2.796,30 16.006,30 1.906,81 2.186,88 0,00 0,00 4.093,69 11.912,61 30/11/2022
982 511500 FABRICIO RENE CARDOSO DE PADUA ANALISTA DO MP SÃO SEBASTIÃO DO PARAÍSO - COMARCA; SAO SEBASTIAO DO PARAISO-PJ-03PJ 11.008,33 2.201,67 0,00 0,00 0,00 0,00 0,00 1.911,00 15.121,00 1.906,81 2.239,02 0,00 0,00 4.145,83 10.975,17 30/11/2022
983 496100 FABRICIO RESENDE GONCALVES OFICIAL DO MP ENTRE-RIOS DE MINAS - COMARCA; ENTRE RIOS DE MINAS-PJ-UNPJ 8.377,76 1.675,55 0,00 0,00 0,00 0,00 0,00 1.911,00 11.964,31 1.401,74 1.509,82 0,00 0,00 2.911,56 9.052,75 30/11/2022
984 650300 FABRICIO ROBERTO AZEVEDO OFICIAL DO MP NOVA SERRANA - COMARCA; NOVA SERRANA-PJ-04PJ 5.266,66 526,67 0,00 0,00 0,00 0,00 0,00 1.911,00 7.704,33 729,60 523,17 0,00 0,00 1.252,77 6.451,56 30/11/2022
985 514900 FADUA MARIA DRUMOND CHEQUER ANALISTA DO MP BETIM - COMARCA; BETIM-PJ-12PJ 11.008,33 2.201,67 0,00 0,00 0,00 0,00 0,00 1.911,00 15.121,00 1.906,81 2.134,74 0,00 0,00 4.041,55 11.079,45 30/11/2022
986 282500 FANNY FERREIRA MELO OFICIAL DO MP ARAXÁ - COMARCA; ARAXA-PJ-03PJ 11.366,79 3.410,04 0,00 0,00 0,00 0,00 0,00 1.911,00 16.687,83 2.157,51 2.600,95 0,00 0,00 4.758,46 11.929,37 30/11/2022
987 692500 FARID JUNIOR NUNES DA SILVA ASSESSOR PROCURADOR JUSTICA BELO HORIZONTE - COMARCA; GABINETE DE PROCURADOR DE JUSTIÇA - SALA 912 0,00 0,00 7.857,77 0,00 0,00 0,00 0,00 1.911,00 9.768,77 828,38 1.326,02 0,00 0,00 2.154,40 7.614,37 30/11/2022
988 382800 FATIMA DE OLIVEIRA COELHO E SILVA OFICIAL DO MP BELO HORIZONTE - COMARCA; DIRETORIA DE ADMINISTRACAO FINANCEIRA 9.999,62 2.999,89 3.585,64 0,00 0,00 0,00 0,00 1.911,00 18.496,15 1.873,14 3.124,31 0,00 0,00 4.997,45 13.498,70 30/11/2022
989 398601 FELIPE ANTONIO HORTA DE PAULA ANALISTA DO MP BELO HORIZONTE - COMARCA; PROC. JUSTICA DIR. DIFUSOS E COLETIVOS-SEC 11.008,33 1.100,83 0,00 0,00 0,00 0,00 0,00 1.911,00 14.020,16 1.730,68 1.984,72 0,00 0,00 3.715,40 10.304,76 30/11/2022
990 430900 FELIPE BOY VIEIRA ANALISTA DO MP BELO HORIZONTE - COMARCA; DIRETORIA DE SEGURANCA 14.224,47 2.844,89 0,00 0,00 0,00 0,00 0,00 1.911,00 18.980,36 927,17 3.363,86 0,00 0,00 4.291,03 14.689,33 30/11/2022
991 631700 FELIPE DE MORAIS SIMOES COELHO ANALISTA DO MP BELO HORIZONTE - COMARCA; BH-18PJ VIOLENCIA DOMESTICA-SECRETARIA 9.223,00 922,30 0,00 0,00 0,00 0,00 0,00 1.911,00 12.056,30 1.416,46 1.531,07 0,00 0,00 2.947,53 9.108,77 30/11/2022
992 549100 FELIPE FERNANDES ALVIM ANALISTA DO MP LAJINHA - COMARCA; LAJINHA-PJ-UNPJ 11.008,33 1.100,83 0,00 0,00 0,00 0,00 0,00 2.796,30 14.905,46 1.730,68 1.984,72 0,00 0,00 3.715,40 11.190,06 30/11/2022
993 693100 FELIPE FROIS DO AMARAL ASSESSOR PROMOTOR JUSTICA RIBEIRÃO DAS NEVES - COMARCA; RIBEIRAO NEVES-SEC PJ EXECUCAO PENAL 0,00 0,00 7.857,77 0,00 0,00 0,00 0,00 1.911,00 9.768,77 828,38 1.326,02 0,00 0,00 2.154,40 7.614,37 30/11/2022
994 620100 FELIPE GOMES DE AZEVEDO OFICIAL DO MP BELO HORIZONTE - COMARCA; DIVISAO DE SERVICOS 6.081,20 608,12 3.585,64 0,00 0,00 0,00 0,00 1.911,00 12.185,96 865,50 1.718,24 0,00 0,00 2.583,74 9.602,22 30/11/2022
995 601600 FELIPE RODRIGUES DE SIQUEIRA ANALISTA DO MP BELO HORIZONTE - COMARCA; BH-02PJ FAMILIA-SECRETARIA 11.008,33 1.100,83 0,00 0,00 0,00 0,00 0,00 1.911,00 14.020,16 927,17 1.702,15 0,00 0,00 2.629,32 11.390,84 30/11/2022
996 628900 FELIX FERNANDO JUNIO VIEIRA ANALISTA DO MP BELO HORIZONTE - COMARCA; BH-21PJ TUTELA DAS FUNDACOES-ASS CURADORES 10.325,15 1.032,52 0,00 0,00 0,00 0,00 0,00 2.796,30 14.153,97 1.610,44 1.706,85 0,00 0,00 3.317,29 10.836,68 30/11/2022
997 544500 FELLIPE LEMOS MARCONDES BUENO ANALISTA DO MP SÃO SEBASTIÃO DO PARAÍSO - COMARCA; SAO SEBASTIAO DO PARAISO-PJ-04PJ 11.008,33 1.100,83 0,00 0,00 0,00 0,00 0,00 1.911,00 14.020,16 1.730,68 1.984,72 0,00 0,00 3.715,40 10.304,76 30/11/2022
998 688500 FELLIPE TADEU DE ANDRADE RAMOS ASSESSOR PROCURADOR JUSTICA BELO HORIZONTE - COMARCA; GABINETE DE PROCURADOR DE JUSTIÇA - SALA 907 0,00 0,00 7.857,77 0,00 0,00 0,00 0,00 1.911,00 9.768,77 828,38 1.430,30 0,00 0,00 2.258,68 7.510,09 30/11/2022
999 612600 FERNANDA ADRIANA DE PAULA GUIDO ANALISTA DO MP BELO HORIZONTE - COMARCA; SUPERINTENDENCIA GESTÃO DE PESSOAS 10.325,15 1.032,52 0,00 0,00 0,00 0,00 0,00 2.796,30 14.153,97 1.610,44 1.811,13 0,00 0,00 3.421,57 10.732,40 30/11/2022
1000 508400 FERNANDA AGANETTI MATTOS DE OLIVEIRA ANALISTA DO MP BELO HORIZONTE - COMARCA; SUPER DE RECURSOS HUMANOS-COOP REMOTA 11.008,33 2.201,67 0,00 0,00 0,00 0,00 0,00 3.681,60 16.891,60 927,17 2.508,42 0,00 0,00 3.435,59 13.456,01 30/11/2022
1001 453600 FERNANDA ALBERNAZ RABELO ANALISTA DO MP BELO HORIZONTE - COMARCA; GABINETE DE PROCURADOR DE JUSTIÇA - SALA 616 11.008,33 2.201,67 0,00 0,00 0,00 0,00 0,00 2.796,30 16.006,30 1.906,81 2.239,02 0,00 0,00 4.145,83 11.860,47 30/11/2022
1002 255600 FERNANDA ALINA DE ALMEIDA ANDRADE OFICIAL DO MP BELO HORIZONTE - COMARCA; DIRETORIA DE INTELIGENCIA 11.008,33 3.302,50 0,00 0,00 0,00 0,00 0,00 1.911,00 16.221,83 2.082,95 2.493,31 0,00 0,00 4.576,26 11.645,57 30/11/2022
1003 443200 FERNANDA ALMEIDA LOPES ANALISTA DO MP CONTAGEM - COMARCA; CONTAGEM-PJ-10PJ 15.659,55 3.131,91 0,00 0,00 0,00 0,00 482,31 8.825,17 28.098,94 2.799,85 3.424,06 0,00 0,00 6.223,91 21.875,03 30/11/2022
1004 281100 FERNANDA ANANIAS MEIRA ANALISTA DO MP BELO HORIZONTE - COMARCA; BH-23PJ INFRACIONAL-ASS JURIDICA 19.791,01 5.937,30 0,00 0,00 0,00 0,00 2.646,36 1.911,00 30.285,67 4.333,16 5.742,05 0,00 0,00 10.075,21 20.210,46 30/11/2022
1005 539000 FERNANDA BARBOSA ALVES ANALISTA DO MP UBERABA - COMARCA; UBERABA-PJ-04PJ 11.008,33 1.100,83 0,00 0,00 0,00 0,00 0,00 2.796,30 14.905,46 1.730,68 1.984,72 0,00 0,00 3.715,40 11.190,06 30/11/2022
1006 451200 FERNANDA BLOISE PRADO OFICIAL DO MP BELO HORIZONTE - COMARCA; GAECO - SECRETARIA 9.223,00 1.844,60 0,00 0,00 0,00 0,00 0,00 1.911,00 12.978,60 1.564,03 1.744,12 0,00 0,00 3.308,15 9.670,45 30/11/2022
1007 427900 FERNANDA BRAGA CARNEIRO BICALHO ANALISTA DO MP PEÇANHA - COMARCA; PECANHA-PJ-SECRETARIA 11.008,33 2.201,67 0,00 0,00 0,00 0,00 0,00 1.911,00 15.121,00 1.906,81 2.186,88 0,00 0,00 4.093,69 11.027,31 30/11/2022
1008 507100 FERNANDA CABRINI VAZ MOTA ANALISTA DO MP BELO HORIZONTE - COMARCA; DIVISAO DE MATERIAIS 11.008,33 2.201,67 0,00 0,00 0,00 0,00 0,00 3.681,60 16.891,60 927,17 2.382,14 0,00 0,00 3.309,31 13.582,29 30/11/2022
1009 259800 FERNANDA CALZAVARA DE SOUSA OFICIAL DO MP BELO HORIZONTE - COMARCA; DIRET DE INFORMACAO E CONHECIMENTO-DINC/CEAF 14.224,47 4.267,34 5.493,71 0,00 0,00 0,00 0,00 2.796,30 26.781,82 2.751,90 4.917,75 0,00 0,00 7.669,65 19.112,17 30/11/2022
1010 494400 FERNANDA CAMPOS BARATA OFICIAL DO MP JUIZ DE FORA - COMARCA; JUIZ DE FORA-PJ-08PJ 6.694,66 1.338,93 0,00 0,00 0,00 0,00 0,00 1.911,00 9.944,59 1.078,59 1.043,27 0,00 0,00 2.121,86 7.822,73 30/11/2022
1011 555600 FERNANDA CAROLINE RIBEIRO ANALISTA DO MP BELO HORIZONTE - COMARCA; DIRETORIA GESTAO CONTRATOS CONVENIOS 11.008,33 1.100,83 0,00 0,00 0,00 0,00 0,00 1.911,00 14.020,16 1.730,68 1.984,72 0,00 0,00 3.715,40 10.304,76 30/11/2022
1012 692000 FERNANDA CESAR SILVA ASSESSOR PROCURADOR JUSTICA BELO HORIZONTE - COMARCA; GABINETE DE PROCURADOR DE JUSTIÇA - SALA 809 0,00 0,00 7.857,77 0,00 0,00 0,00 0,00 1.911,00 9.768,77 828,38 1.430,30 0,00 0,00 2.258,68 7.510,09 30/11/2022
1013 294500 FERNANDA COSTA FLORES OFICIAL DO MP PARÁ DE MINAS - COMARCA; PARA DE MINAS-PJ-04PJ 11.736,91 3.521,07 0,00 0,00 0,00 0,00 0,00 1.911,00 17.168,98 2.234,49 2.712,10 0,00 0,00 4.946,59 12.222,39 30/11/2022
1014 344500 FERNANDA CRISTINA DE SOUZA PAZ ASSESSOR ADMINISTRATIVO II BELO HORIZONTE - COMARCA; CENTRAL DE APOIO TECN-SETOR DE MEIO AMBIENTE 0,00 0,00 6.694,66 0,00 0,00 0,00 0,00 1.911,00 8.605,66 828,38 1.006,17 0,00 0,00 1.834,55 6.771,11 30/11/2022
1015 538100 FERNANDA CRISTINA DOS SANTOS ROSA OFICIAL DO MP RIBEIRÃO DAS NEVES - COMARCA; RIBEIRAO DAS NEVES-PJ-04PJ 6.694,66 2.008,40 0,00 0,00 0,00 0,00 0,00 1.911,00 10.614,06 1.185,70 1.197,91 0,00 0,00 2.383,61 8.230,45 30/11/2022
1016 337800 FERNANDA CRISTINA ROLAND CLIMACO MENDES COORDENADOR II BELO HORIZONTE - COMARCA; DIRETORIA DE PAGAMENTO DE PESSOAL-DPAG 18.312,36 5.493,71 0,00 0,00 0,00 0,00 0,00 1.911,00 25.717,07 2.568,29 4.971,03 0,00 0,00 7.539,32 18.177,75 30/11/2022
1017 545400 FERNANDA CUNHA GUIMARAES ANALISTA DO MP CAPINÓPOLIS - COMARCA; CAO-CIVEL 11.008,33 1.100,83 0,00 0,00 0,00 0,00 0,00 1.911,00 14.020,16 1.730,68 1.984,72 0,00 0,00 3.715,40 10.304,76 30/11/2022
1018 429801 FERNANDA CUNHA PINHEIRO DA SILVA ANALISTA DO MP BELO HORIZONTE - COMARCA; ASSESSORIA DE COMUNICACAO INTEGRADA 11.008,33 2.201,67 0,00 0,00 0,00 0,00 0,00 1.911,00 15.121,00 1.906,81 2.134,74 0,00 0,00 4.041,55 11.079,45 30/11/2022
1019 408000 FERNANDA DAS NEVES RAMOS ANALISTA DO MP BELO HORIZONTE - COMARCA; FEPDC-SECRETARIA EXECUTIVA 15.659,55 3.131,91 0,00 0,00 0,00 0,00 0,00 1.911,00 20.702,46 2.799,85 3.528,33 0,00 0,00 6.328,18 14.374,28 30/11/2022
1020 496000 FERNANDA DE ALMEIDA VIANA ANALISTA DO MP BELO HORIZONTE - COMARCA; PROC JUST ATUACAO TRIBUNAIS SUPERIORES-GAB002 11.008,33 2.201,67 0,00 0,00 0,00 0,00 0,00 3.681,60 16.891,60 1.906,81 2.134,74 0,00 0,00 4.041,55 12.850,05 30/11/2022
1021 266700 FERNANDA DE CASTRO LUCAS OFICIAL DO MP BELO HORIZONTE - COMARCA; DIRET DE DESENV DE RECURSOS HUMANOS-DDRH 14.224,47 4.267,34 5.493,71 0,00 0,00 0,00 24.982,93 2.796,30 51.764,75 2.751,90 11.788,05 0,00 0,00 14.539,95 37.224,80 30/11/2022
1022 433200 FERNANDA DE FIGUEIREDO NORTE ANALISTA DO MP BELO HORIZONTE - COMARCA; ASSESS JUR DO CONS SUPERIOR DO MINISTERIO PUB 15.659,55 3.131,91 0,00 0,00 0,00 0,00 0,00 1.911,00 20.702,46 2.799,85 3.424,06 0,00 0,00 6.223,91 14.478,55 30/11/2022
1023 419200 FERNANDA DE MIRANDA MARTINS SIMOES ANALISTA DO MP UBERLÂNDIA - COMARCA; UBERLANDIA-PJ-17PJ 16.169,47 3.233,89 0,00 0,00 0,00 0,00 0,00 2.796,30 22.199,66 2.897,75 3.669,68 0,00 0,00 6.567,43 15.632,23 30/11/2022
1024 441400 FERNANDA DE MORAIS PINTO ANALISTA DO MP BELO HORIZONTE - COMARCA; PROC. JUSTICA DIR. DIFUSOS E COLETIVOS-SEC 14.224,47 2.844,89 0,00 0,00 0,00 0,00 940,00 1.911,00 19.920,36 2.524,31 3.130,53 0,00 0,00 5.654,84 14.265,52 30/11/2022
1025 432200 FERNANDA DE MOURA GUIMARAES ANALISTA DO MP BELO HORIZONTE - COMARCA; BH-26 CRIME CONT CRIAN ADOL-SECRETARIA 15.659,55 3.131,91 0,00 0,00 0,00 0,00 0,00 1.911,00 20.702,46 2.799,85 3.528,33 0,00 0,00 6.328,18 14.374,28 30/11/2022
1026 461800 FERNANDA DE OLIVEIRA SANTOS ANALISTA DO MP JUIZ DE FORA - COMARCA; JUIZ DE FORA-PJ-21PJ 12.118,97 2.423,79 0,00 0,00 0,00 0,00 0,00 2.796,30 17.339,06 2.120,06 2.546,88 0,00 0,00 4.666,94 12.672,12 30/11/2022
1027 432500 FERNANDA DE PAULA PINTO ANALISTA DO MP BELO HORIZONTE - COMARCA; PROC JUST ATUACAO TRIBUNAIS SUPERIORES-GAB003 14.224,47 2.844,89 0,00 0,00 0,00 0,00 0,00 2.796,30 19.865,66 2.524,31 3.130,53 0,00 0,00 5.654,84 14.210,82 30/11/2022
1028 729700 FERNANDA DE SOUZA GUIMARAES ASSESSOR ADMINISTRATIVO I BELO HORIZONTE - COMARCA; DIRETORIA DE PAGAMENTO DE PESSOAL-DPAG 0,00 0,00 4.345,58 0,00 0,00 0,00 0,00 1.911,00 6.256,58 631,17 518,68 0,00 0,00 1.149,85 5.106,73 30/11/2022
1029 431600 FERNANDA DIAS BARBOSA PEREIRA ANALISTA DO MP BELO HORIZONTE - COMARCA; BH-02PJ FAMILIA-SECRETARIA 15.659,55 3.131,91 0,00 0,00 0,00 0,00 0,00 2.796,30 21.587,76 2.799,85 3.371,92 0,00 0,00 6.171,77 15.415,99 30/11/2022
1030 162200 FERNANDA FERNANDES MONTEIRO ASSESSOR ADMINISTRATIVO II BELO HORIZONTE - COMARCA; BH-18PJ VIOLENCIA DOMESTICA-SECRETARIA 0,00 2.677,86 6.694,66 0,00 0,00 0,00 0,00 1.911,00 11.283,52 828,38 1.742,58 0,00 0,00 2.570,96 8.712,56 30/11/2022
1031 512800 FERNANDA FERREIRA BARBOSA MOREIRA ANALISTA DO MP IPATINGA - COMARCA; IPATINGA-PJ-05PJ 11.008,33 2.201,67 0,00 0,00 0,00 0,00 0,00 2.796,30 16.006,30 927,17 2.382,14 0,00 0,00 3.309,31 12.696,99 30/11/2022
1032 329200 FERNANDA GABRIEL GUZELLA OFICIAL DO MP BELO HORIZONTE - COMARCA; DIRET DE PLANOS PROJETOS E PROGRAMAS INST 11.008,33 3.302,50 0,00 0,00 0,00 0,00 0,00 1.911,00 16.221,83 2.082,95 2.493,31 0,00 0,00 4.576,26 11.645,57 30/11/2022
1033 324200 FERNANDA GEORGIA NEVES ZAHAN OFICIAL DO MP IPANEMA - COMARCA; IPANEMA-PJ-01PJ 11.008,33 8.806,67 0,00 0,00 0,00 0,00 0,00 1.911,00 21.726,00 2.963,61 3.764,77 0,00 0,00 6.728,38 14.997,62 30/11/2022
1034 548200 FERNANDA GONCALVES DE CARVALHO ZUZA OFICIAL DO MP TUPACIGUARA - COMARCA; TUPACIGUARA-PJ-01PJ 6.694,66 669,47 0,00 0,00 0,00 0,00 0,00 1.911,00 9.275,13 971,47 888,62 0,00 0,00 1.860,09 7.415,04 30/11/2022
1035 355400 FERNANDA HELENA BASQUES OFICIAL DO MP SABARÁ - COMARCA; SABARA-PJ-01PJ 11.008,33 3.302,50 0,00 0,00 0,00 0,00 0,00 1.911,00 16.221,83 2.082,95 2.493,31 0,00 0,00 4.576,26 11.645,57 30/11/2022
1036 454800 FERNANDA IATAROLA BARBOSA DIAS ANALISTA DO MP BARBACENA - COMARCA; BARBACENA-PJ-05PJ 13.341,69 2.668,34 0,00 0,00 0,00 0,00 0,00 1.911,00 17.921,03 2.354,82 2.833,69 0,00 0,00 5.188,51 12.732,52 30/11/2022
1037 515500 FERNANDA LILIANE MARUGEIRO ANALISTA DO MP LAGOA SANTA - COMARCA; LAGOA SANTA-PJ-01PJ 11.008,33 2.201,67 0,00 0,00 0,00 0,00 0,00 3.681,60 16.891,60 1.906,81 2.186,88 0,00 0,00 4.093,69 12.797,91 30/11/2022
1038 392900 FERNANDA MAGALHAES SILVA ANALISTA DO MP BELO HORIZONTE - COMARCA; DIR CONTEUDO JORNALISTICO 16.695,70 3.339,14 0,00 0,00 0,00 0,00 0,00 1.911,00 21.945,84 2.998,79 3.815,55 0,00 0,00 6.814,34 15.131,50 30/11/2022
1039 409200 FERNANDA MAIA SANTIAGO CARDOSO ANALISTA DO MP PIRAPORA - COMARCA; PIRAPORA-PJ-02PJ 11.008,33 2.201,67 0,00 0,00 0,00 0,00 0,00 2.796,30 16.006,30 1.906,81 2.239,02 0,00 0,00 4.145,83 11.860,47 30/11/2022
1040 714100 FERNANDA MELO FIORENZANO REIS ASSESSOR ADMINISTRATIVO IV BELO HORIZONTE - COMARCA; DIR CONTEUDO JORNALISTICO 0,00 0,00 12.920,95 0,00 0,00 0,00 0,00 1.911,00 14.831,95 828,38 2.822,67 0,00 0,00 3.651,05 11.180,90 30/11/2022
1041 556500 FERNANDA OTERO COSTA ANALISTA DO MP BELO HORIZONTE - COMARCA; ASSESS TECNICO-JUR JUNTO AS PROC. DE JUST 11.008,33 1.100,83 0,00 0,00 0,00 0,00 0,00 1.911,00 14.020,16 927,17 2.102,11 0,00 0,00 3.029,28 10.990,88 30/11/2022
1042 615300 FERNANDA PATRICIA RIBEIRO MOTA OFICIAL DO MP UBERABA - COMARCA; UBERABA-PJ-10PJ 6.694,66 669,47 0,00 0,00 0,00 0,00 0,00 1.911,00 9.275,13 927,17 895,09 0,00 0,00 1.822,26 7.452,87 30/11/2022
1043 619800 FERNANDA PINTO PEREIRA ANALISTA DO MP UBERLÂNDIA - COMARCA; UBERLANDIA-PJ-20PJ 10.325,15 1.032,52 0,00 0,00 0,00 0,00 0,00 3.681,60 15.039,27 1.610,44 1.758,99 0,00 0,00 3.369,43 11.669,84 30/11/2022
1044 412900 FERNANDA PORTELA ROSA ANALISTA DO MP BELO HORIZONTE - COMARCA; BH-08PJ JUIZADO ESPECIAL-SECRETARIA 16.169,47 3.233,89 0,00 0,00 0,00 0,00 0,00 2.796,30 22.199,66 2.897,75 3.669,68 0,00 0,00 6.567,43 15.632,23 30/11/2022
1045 274301 FERNANDA QUEIROZ PARREIRA ANALISTA DO MP PATOS DE MINAS - COMARCA; GAECO REGIONAL DE PATOS DE MINAS 11.008,33 2.201,67